<?xml version="1.0" encoding="UTF-8" standalone="no" ?>
<gpx xmlns="http://www.topografix.com/GPX/1/1" xmlns:xsi="http://www.w3.org/2001/XMLSchema-instance" xsi:schemaLocation="http://www.topografix.com/GPX/1/1 http://www.topografix.com/GPX/1/1/gpx.xsd" version="1.1" creator="VisuGPX - https://www.visugpx.com">
  <metadata>
    <name>RANDO CORDEMAIS (retour rapide)</name>
    <desc><![CDATA[Rando 28 km écourtée après péripéties]]></desc>
  </metadata>
  <trk>
    <name><![CDATA[Rando Cordemais - 2013-09-22-01]]></name>
    <trkseg>
      <trkpt lat="47.28401" lon="-1.8831">
        <ele>-20.083782</ele>
        <time>2013-09-22T07:55:12Z</time>
      </trkpt>
      <trkpt lat="47.28401" lon="-1.8831">
        <ele>-7.750144</ele>
        <time>2013-09-22T07:55:13Z</time>
      </trkpt>
      <trkpt lat="47.28401" lon="-1.8831">
        <ele>-7.7</ele>
        <time>2013-09-22T07:55:13Z</time>
      </trkpt>
      <trkpt lat="47.28395" lon="-1.88324">
        <ele>-2.5</ele>
        <time>2013-09-22T07:55:21Z</time>
      </trkpt>
      <trkpt lat="47.28398" lon="-1.88337">
        <ele>-5.6</ele>
        <time>2013-09-22T07:55:36Z</time>
      </trkpt>
      <trkpt lat="47.28394" lon="-1.88352">
        <ele>-3.3</ele>
        <time>2013-09-22T07:55:40Z</time>
      </trkpt>
      <trkpt lat="47.2839" lon="-1.88364">
        <ele>-1.2</ele>
        <time>2013-09-22T07:55:44Z</time>
      </trkpt>
      <trkpt lat="47.28382" lon="-1.88377">
        <ele>-0.6</ele>
        <time>2013-09-22T07:55:48Z</time>
      </trkpt>
      <trkpt lat="47.28373" lon="-1.88382">
        <ele>-0.2</ele>
        <time>2013-09-22T07:55:51Z</time>
      </trkpt>
      <trkpt lat="47.28363" lon="-1.88383">
        <ele>0.2</ele>
        <time>2013-09-22T07:55:55Z</time>
      </trkpt>
      <trkpt lat="47.28359" lon="-1.88397">
        <ele>1</ele>
        <time>2013-09-22T07:56:00Z</time>
      </trkpt>
      <trkpt lat="47.28369" lon="-1.884">
        <ele>1.3</ele>
        <time>2013-09-22T07:56:04Z</time>
      </trkpt>
      <trkpt lat="47.28379" lon="-1.88399">
        <ele>1.4</ele>
        <time>2013-09-22T07:56:07Z</time>
      </trkpt>
      <trkpt lat="47.28391" lon="-1.88398">
        <ele>1</ele>
        <time>2013-09-22T07:56:11Z</time>
      </trkpt>
      <trkpt lat="47.28404" lon="-1.88393">
        <ele>0.9</ele>
        <time>2013-09-22T07:56:14Z</time>
      </trkpt>
      <trkpt lat="47.28404" lon="-1.88393">
        <ele>0.9</ele>
        <time>2013-09-22T07:56:14Z</time>
      </trkpt>
      <trkpt lat="47.28414" lon="-1.88389">
        <ele>0.8</ele>
        <time>2013-09-22T07:56:16Z</time>
      </trkpt>
      <trkpt lat="47.28424" lon="-1.88386">
        <ele>0.7</ele>
        <time>2013-09-22T07:56:18Z</time>
      </trkpt>
      <trkpt lat="47.28435" lon="-1.88379">
        <ele>0.8</ele>
        <time>2013-09-22T07:56:21Z</time>
      </trkpt>
      <trkpt lat="47.28443" lon="-1.88373">
        <ele>0.9</ele>
        <time>2013-09-22T07:56:23Z</time>
      </trkpt>
      <trkpt lat="47.28454" lon="-1.88369">
        <ele>1.1</ele>
        <time>2013-09-22T07:56:26Z</time>
      </trkpt>
      <trkpt lat="47.28464" lon="-1.88365">
        <ele>1.2</ele>
        <time>2013-09-22T07:56:29Z</time>
      </trkpt>
      <trkpt lat="47.28476" lon="-1.8836">
        <ele>0.5</ele>
        <time>2013-09-22T07:56:32Z</time>
      </trkpt>
      <trkpt lat="47.28485" lon="-1.88353">
        <ele>0.3</ele>
        <time>2013-09-22T07:56:35Z</time>
      </trkpt>
      <trkpt lat="47.28497" lon="-1.88347">
        <ele>0.1</ele>
        <time>2013-09-22T07:56:38Z</time>
      </trkpt>
      <trkpt lat="47.28505" lon="-1.88342">
        <ele>0.1</ele>
        <time>2013-09-22T07:56:40Z</time>
      </trkpt>
      <trkpt lat="47.28518" lon="-1.88336">
        <ele>-0.1</ele>
        <time>2013-09-22T07:56:43Z</time>
      </trkpt>
      <trkpt lat="47.28527" lon="-1.88332">
        <ele>-0.3</ele>
        <time>2013-09-22T07:56:45Z</time>
      </trkpt>
      <trkpt lat="47.28536" lon="-1.88329">
        <ele>-0.1</ele>
        <time>2013-09-22T07:56:47Z</time>
      </trkpt>
      <trkpt lat="47.28547" lon="-1.88325">
        <ele>-0.3</ele>
        <time>2013-09-22T07:56:50Z</time>
      </trkpt>
      <trkpt lat="47.28557" lon="-1.88318">
        <ele>-0.7</ele>
        <time>2013-09-22T07:56:54Z</time>
      </trkpt>
      <trkpt lat="47.28566" lon="-1.88313">
        <ele>-0.9</ele>
        <time>2013-09-22T07:56:57Z</time>
      </trkpt>
      <trkpt lat="47.28575" lon="-1.88302">
        <ele>-1.3</ele>
        <time>2013-09-22T07:57:01Z</time>
      </trkpt>
      <trkpt lat="47.28578" lon="-1.88282">
        <ele>-0.8</ele>
        <time>2013-09-22T07:57:04Z</time>
      </trkpt>
      <trkpt lat="47.28577" lon="-1.88268">
        <ele>-0.1</ele>
        <time>2013-09-22T07:57:05Z</time>
      </trkpt>
      <trkpt lat="47.28574" lon="-1.88249">
        <ele>1.5</ele>
        <time>2013-09-22T07:57:08Z</time>
      </trkpt>
      <trkpt lat="47.28572" lon="-1.88233">
        <ele>2.4</ele>
        <time>2013-09-22T07:57:11Z</time>
      </trkpt>
      <trkpt lat="47.28568" lon="-1.88215">
        <ele>2.3</ele>
        <time>2013-09-22T07:57:14Z</time>
      </trkpt>
      <trkpt lat="47.28565" lon="-1.88199">
        <ele>1.7</ele>
        <time>2013-09-22T07:57:17Z</time>
      </trkpt>
      <trkpt lat="47.28564" lon="-1.8818">
        <ele>1.5</ele>
        <time>2013-09-22T07:57:20Z</time>
      </trkpt>
      <trkpt lat="47.28565" lon="-1.88163">
        <ele>1.6</ele>
        <time>2013-09-22T07:57:23Z</time>
      </trkpt>
      <trkpt lat="47.28567" lon="-1.88148">
        <ele>1.5</ele>
        <time>2013-09-22T07:57:26Z</time>
      </trkpt>
      <trkpt lat="47.2857" lon="-1.88129">
        <ele>2</ele>
        <time>2013-09-22T07:57:29Z</time>
      </trkpt>
      <trkpt lat="47.28577" lon="-1.88114">
        <ele>2.6</ele>
        <time>2013-09-22T07:57:32Z</time>
      </trkpt>
      <trkpt lat="47.28589" lon="-1.88106">
        <ele>2.2</ele>
        <time>2013-09-22T07:57:35Z</time>
      </trkpt>
      <trkpt lat="47.28598" lon="-1.88103">
        <ele>2.2</ele>
        <time>2013-09-22T07:57:37Z</time>
      </trkpt>
      <trkpt lat="47.28607" lon="-1.88099">
        <ele>3.1</ele>
        <time>2013-09-22T07:57:39Z</time>
      </trkpt>
      <trkpt lat="47.28618" lon="-1.88095">
        <ele>3.7</ele>
        <time>2013-09-22T07:57:42Z</time>
      </trkpt>
      <trkpt lat="47.2863" lon="-1.8809">
        <ele>3.8</ele>
        <time>2013-09-22T07:57:45Z</time>
      </trkpt>
      <trkpt lat="47.28642" lon="-1.88083">
        <ele>4.1</ele>
        <time>2013-09-22T07:57:48Z</time>
      </trkpt>
      <trkpt lat="47.28651" lon="-1.88079">
        <ele>5</ele>
        <time>2013-09-22T07:57:50Z</time>
      </trkpt>
      <trkpt lat="47.28662" lon="-1.88073">
        <ele>5.6</ele>
        <time>2013-09-22T07:57:53Z</time>
      </trkpt>
      <trkpt lat="47.28674" lon="-1.88069">
        <ele>5.6</ele>
        <time>2013-09-22T07:57:56Z</time>
      </trkpt>
      <trkpt lat="47.28684" lon="-1.88066">
        <ele>5.7</ele>
        <time>2013-09-22T07:57:59Z</time>
      </trkpt>
      <trkpt lat="47.28695" lon="-1.88063">
        <ele>5.8</ele>
        <time>2013-09-22T07:58:02Z</time>
      </trkpt>
      <trkpt lat="47.28706" lon="-1.88062">
        <ele>6.1</ele>
        <time>2013-09-22T07:58:05Z</time>
      </trkpt>
      <trkpt lat="47.28719" lon="-1.88062">
        <ele>5.7</ele>
        <time>2013-09-22T07:58:08Z</time>
      </trkpt>
      <trkpt lat="47.28729" lon="-1.88062">
        <ele>6</ele>
        <time>2013-09-22T07:58:10Z</time>
      </trkpt>
      <trkpt lat="47.28741" lon="-1.88061">
        <ele>6.6</ele>
        <time>2013-09-22T07:58:13Z</time>
      </trkpt>
      <trkpt lat="47.28755" lon="-1.8806">
        <ele>6.9</ele>
        <time>2013-09-22T07:58:16Z</time>
      </trkpt>
      <trkpt lat="47.28767" lon="-1.88059">
        <ele>7</ele>
        <time>2013-09-22T07:58:19Z</time>
      </trkpt>
      <trkpt lat="47.28778" lon="-1.88058">
        <ele>7.1</ele>
        <time>2013-09-22T07:58:22Z</time>
      </trkpt>
      <trkpt lat="47.28788" lon="-1.88057">
        <ele>7.3</ele>
        <time>2013-09-22T07:58:25Z</time>
      </trkpt>
      <trkpt lat="47.28797" lon="-1.88063">
        <ele>7.4</ele>
        <time>2013-09-22T07:58:30Z</time>
      </trkpt>
      <trkpt lat="47.28809" lon="-1.88062">
        <ele>7.3</ele>
        <time>2013-09-22T07:58:34Z</time>
      </trkpt>
      <trkpt lat="47.288" lon="-1.88066">
        <ele>7.7</ele>
        <time>2013-09-22T07:58:41Z</time>
      </trkpt>
      <trkpt lat="47.28791" lon="-1.88061">
        <ele>7.9</ele>
        <time>2013-09-22T07:58:44Z</time>
      </trkpt>
      <trkpt lat="47.28797" lon="-1.88051">
        <ele>8</ele>
        <time>2013-09-22T07:58:51Z</time>
      </trkpt>
      <trkpt lat="47.28796" lon="-1.88031">
        <ele>6</ele>
        <time>2013-09-22T07:58:54Z</time>
      </trkpt>
      <trkpt lat="47.28797" lon="-1.88014">
        <ele>4.9</ele>
        <time>2013-09-22T07:58:56Z</time>
      </trkpt>
      <trkpt lat="47.28796" lon="-1.87996">
        <ele>4.2</ele>
        <time>2013-09-22T07:58:58Z</time>
      </trkpt>
      <trkpt lat="47.28795" lon="-1.87978">
        <ele>3.1</ele>
        <time>2013-09-22T07:59:00Z</time>
      </trkpt>
      <trkpt lat="47.28796" lon="-1.87961">
        <ele>2.9</ele>
        <time>2013-09-22T07:59:02Z</time>
      </trkpt>
      <trkpt lat="47.28793" lon="-1.87946">
        <ele>2.9</ele>
        <time>2013-09-22T07:59:05Z</time>
      </trkpt>
      <trkpt lat="47.28781" lon="-1.87938">
        <ele>3.6</ele>
        <time>2013-09-22T07:59:08Z</time>
      </trkpt>
      <trkpt lat="47.28771" lon="-1.8793">
        <ele>4.2</ele>
        <time>2013-09-22T07:59:10Z</time>
      </trkpt>
      <trkpt lat="47.28768" lon="-1.87912">
        <ele>3.3</ele>
        <time>2013-09-22T07:59:12Z</time>
      </trkpt>
      <trkpt lat="47.28768" lon="-1.87893">
        <ele>2.4</ele>
        <time>2013-09-22T07:59:14Z</time>
      </trkpt>
      <trkpt lat="47.28768" lon="-1.87873">
        <ele>1.2</ele>
        <time>2013-09-22T07:59:16Z</time>
      </trkpt>
      <trkpt lat="47.28768" lon="-1.87852">
        <ele>1</ele>
        <time>2013-09-22T07:59:18Z</time>
      </trkpt>
      <trkpt lat="47.28773" lon="-1.87833">
        <ele>0.7</ele>
        <time>2013-09-22T07:59:20Z</time>
      </trkpt>
      <trkpt lat="47.2878" lon="-1.87818">
        <ele>0.9</ele>
        <time>2013-09-22T07:59:22Z</time>
      </trkpt>
      <trkpt lat="47.28791" lon="-1.87805">
        <ele>1.3</ele>
        <time>2013-09-22T07:59:24Z</time>
      </trkpt>
      <trkpt lat="47.28803" lon="-1.87793">
        <ele>1.9</ele>
        <time>2013-09-22T07:59:26Z</time>
      </trkpt>
      <trkpt lat="47.28815" lon="-1.87786">
        <ele>2.2</ele>
        <time>2013-09-22T07:59:28Z</time>
      </trkpt>
      <trkpt lat="47.28828" lon="-1.87786">
        <ele>2.2</ele>
        <time>2013-09-22T07:59:30Z</time>
      </trkpt>
      <trkpt lat="47.28843" lon="-1.87789">
        <ele>2.4</ele>
        <time>2013-09-22T07:59:32Z</time>
      </trkpt>
      <trkpt lat="47.28856" lon="-1.87791">
        <ele>2.5</ele>
        <time>2013-09-22T07:59:34Z</time>
      </trkpt>
      <trkpt lat="47.28867" lon="-1.87794">
        <ele>2.4</ele>
        <time>2013-09-22T07:59:36Z</time>
      </trkpt>
      <trkpt lat="47.28878" lon="-1.87797">
        <ele>2.1</ele>
        <time>2013-09-22T07:59:38Z</time>
      </trkpt>
      <trkpt lat="47.28889" lon="-1.87796">
        <ele>2.1</ele>
        <time>2013-09-22T07:59:41Z</time>
      </trkpt>
      <trkpt lat="47.28896" lon="-1.87785">
        <ele>2.4</ele>
        <time>2013-09-22T07:59:44Z</time>
      </trkpt>
      <trkpt lat="47.28898" lon="-1.8777">
        <ele>2.8</ele>
        <time>2013-09-22T07:59:49Z</time>
      </trkpt>
      <trkpt lat="47.28892" lon="-1.87752">
        <ele>3.2</ele>
        <time>2013-09-22T07:59:52Z</time>
      </trkpt>
      <trkpt lat="47.28886" lon="-1.87739">
        <ele>4.7</ele>
        <time>2013-09-22T07:59:54Z</time>
      </trkpt>
      <trkpt lat="47.28879" lon="-1.87724">
        <ele>5.3</ele>
        <time>2013-09-22T07:59:56Z</time>
      </trkpt>
      <trkpt lat="47.28872" lon="-1.87711">
        <ele>5.4</ele>
        <time>2013-09-22T07:59:58Z</time>
      </trkpt>
      <trkpt lat="47.28864" lon="-1.87699">
        <ele>6.2</ele>
        <time>2013-09-22T08:00:00Z</time>
      </trkpt>
      <trkpt lat="47.28854" lon="-1.87687">
        <ele>6.5</ele>
        <time>2013-09-22T08:00:02Z</time>
      </trkpt>
      <trkpt lat="47.28843" lon="-1.87676">
        <ele>6.6</ele>
        <time>2013-09-22T08:00:04Z</time>
      </trkpt>
      <trkpt lat="47.28833" lon="-1.87662">
        <ele>6.6</ele>
        <time>2013-09-22T08:00:06Z</time>
      </trkpt>
      <trkpt lat="47.28822" lon="-1.8765">
        <ele>5.6</ele>
        <time>2013-09-22T08:00:08Z</time>
      </trkpt>
      <trkpt lat="47.28814" lon="-1.87638">
        <ele>4.4</ele>
        <time>2013-09-22T08:00:10Z</time>
      </trkpt>
      <trkpt lat="47.28806" lon="-1.8763">
        <ele>5.3</ele>
        <time>2013-09-22T08:00:12Z</time>
      </trkpt>
      <trkpt lat="47.28798" lon="-1.8762">
        <ele>6.3</ele>
        <time>2013-09-22T08:00:14Z</time>
      </trkpt>
      <trkpt lat="47.28789" lon="-1.87609">
        <ele>7</ele>
        <time>2013-09-22T08:00:16Z</time>
      </trkpt>
      <trkpt lat="47.2878" lon="-1.876">
        <ele>8.3</ele>
        <time>2013-09-22T08:00:18Z</time>
      </trkpt>
      <trkpt lat="47.28772" lon="-1.87592">
        <ele>8.9</ele>
        <time>2013-09-22T08:00:20Z</time>
      </trkpt>
      <trkpt lat="47.28761" lon="-1.87583">
        <ele>9.1</ele>
        <time>2013-09-22T08:00:22Z</time>
      </trkpt>
      <trkpt lat="47.28751" lon="-1.87573">
        <ele>9.8</ele>
        <time>2013-09-22T08:00:24Z</time>
      </trkpt>
      <trkpt lat="47.28741" lon="-1.87565">
        <ele>8.6</ele>
        <time>2013-09-22T08:00:26Z</time>
      </trkpt>
      <trkpt lat="47.28729" lon="-1.87556">
        <ele>7.1</ele>
        <time>2013-09-22T08:00:28Z</time>
      </trkpt>
      <trkpt lat="47.28719" lon="-1.87548">
        <ele>6.8</ele>
        <time>2013-09-22T08:00:30Z</time>
      </trkpt>
      <trkpt lat="47.28709" lon="-1.8754">
        <ele>6.4</ele>
        <time>2013-09-22T08:00:32Z</time>
      </trkpt>
      <trkpt lat="47.28699" lon="-1.87532">
        <ele>6</ele>
        <time>2013-09-22T08:00:34Z</time>
      </trkpt>
      <trkpt lat="47.2869" lon="-1.87526">
        <ele>5.8</ele>
        <time>2013-09-22T08:00:36Z</time>
      </trkpt>
      <trkpt lat="47.28678" lon="-1.87521">
        <ele>5.1</ele>
        <time>2013-09-22T08:00:38Z</time>
      </trkpt>
      <trkpt lat="47.28667" lon="-1.87518">
        <ele>4.9</ele>
        <time>2013-09-22T08:00:40Z</time>
      </trkpt>
      <trkpt lat="47.28657" lon="-1.87512">
        <ele>5.2</ele>
        <time>2013-09-22T08:00:42Z</time>
      </trkpt>
      <trkpt lat="47.28647" lon="-1.87506">
        <ele>5.4</ele>
        <time>2013-09-22T08:00:44Z</time>
      </trkpt>
      <trkpt lat="47.28639" lon="-1.875">
        <ele>5.3</ele>
        <time>2013-09-22T08:00:46Z</time>
      </trkpt>
      <trkpt lat="47.28631" lon="-1.87494">
        <ele>4.9</ele>
        <time>2013-09-22T08:00:48Z</time>
      </trkpt>
      <trkpt lat="47.28622" lon="-1.87486">
        <ele>5.1</ele>
        <time>2013-09-22T08:00:50Z</time>
      </trkpt>
      <trkpt lat="47.28614" lon="-1.87479">
        <ele>5.2</ele>
        <time>2013-09-22T08:00:52Z</time>
      </trkpt>
      <trkpt lat="47.28604" lon="-1.87468">
        <ele>5.2</ele>
        <time>2013-09-22T08:00:55Z</time>
      </trkpt>
      <trkpt lat="47.28594" lon="-1.87461">
        <ele>4.9</ele>
        <time>2013-09-22T08:00:58Z</time>
      </trkpt>
      <trkpt lat="47.28583" lon="-1.87463">
        <ele>5</ele>
        <time>2013-09-22T08:01:01Z</time>
      </trkpt>
      <trkpt lat="47.28571" lon="-1.87465">
        <ele>5.1</ele>
        <time>2013-09-22T08:01:04Z</time>
      </trkpt>
      <trkpt lat="47.28563" lon="-1.87457">
        <ele>5.3</ele>
        <time>2013-09-22T08:01:07Z</time>
      </trkpt>
      <trkpt lat="47.28557" lon="-1.87439">
        <ele>7.1</ele>
        <time>2013-09-22T08:01:10Z</time>
      </trkpt>
      <trkpt lat="47.28552" lon="-1.87425">
        <ele>6.5</ele>
        <time>2013-09-22T08:01:12Z</time>
      </trkpt>
      <trkpt lat="47.28549" lon="-1.8741">
        <ele>5.6</ele>
        <time>2013-09-22T08:01:14Z</time>
      </trkpt>
      <trkpt lat="47.28546" lon="-1.87395">
        <ele>5</ele>
        <time>2013-09-22T08:01:16Z</time>
      </trkpt>
      <trkpt lat="47.28542" lon="-1.8738">
        <ele>5.7</ele>
        <time>2013-09-22T08:01:18Z</time>
      </trkpt>
      <trkpt lat="47.28538" lon="-1.87366">
        <ele>7</ele>
        <time>2013-09-22T08:01:20Z</time>
      </trkpt>
      <trkpt lat="47.28534" lon="-1.87353">
        <ele>7.2</ele>
        <time>2013-09-22T08:01:22Z</time>
      </trkpt>
      <trkpt lat="47.28529" lon="-1.8734">
        <ele>6.7</ele>
        <time>2013-09-22T08:01:24Z</time>
      </trkpt>
      <trkpt lat="47.28525" lon="-1.87329">
        <ele>7</ele>
        <time>2013-09-22T08:01:26Z</time>
      </trkpt>
      <trkpt lat="47.2852" lon="-1.87312">
        <ele>7.7</ele>
        <time>2013-09-22T08:01:29Z</time>
      </trkpt>
      <trkpt lat="47.28514" lon="-1.87294">
        <ele>8.1</ele>
        <time>2013-09-22T08:01:32Z</time>
      </trkpt>
      <trkpt lat="47.28508" lon="-1.87275">
        <ele>8.7</ele>
        <time>2013-09-22T08:01:35Z</time>
      </trkpt>
      <trkpt lat="47.28503" lon="-1.87259">
        <ele>10.3</ele>
        <time>2013-09-22T08:01:38Z</time>
      </trkpt>
      <trkpt lat="47.28492" lon="-1.87253">
        <ele>11.4</ele>
        <time>2013-09-22T08:01:41Z</time>
      </trkpt>
      <trkpt lat="47.28481" lon="-1.87247">
        <ele>12.7</ele>
        <time>2013-09-22T08:01:44Z</time>
      </trkpt>
      <trkpt lat="47.28475" lon="-1.87238">
        <ele>12.3</ele>
        <time>2013-09-22T08:01:46Z</time>
      </trkpt>
      <trkpt lat="47.28469" lon="-1.87227">
        <ele>12.3</ele>
        <time>2013-09-22T08:01:48Z</time>
      </trkpt>
      <trkpt lat="47.28464" lon="-1.87216">
        <ele>11.8</ele>
        <time>2013-09-22T08:01:50Z</time>
      </trkpt>
      <trkpt lat="47.28458" lon="-1.87205">
        <ele>11</ele>
        <time>2013-09-22T08:01:52Z</time>
      </trkpt>
      <trkpt lat="47.28452" lon="-1.87194">
        <ele>10.8</ele>
        <time>2013-09-22T08:01:54Z</time>
      </trkpt>
      <trkpt lat="47.28446" lon="-1.87183">
        <ele>11.2</ele>
        <time>2013-09-22T08:01:56Z</time>
      </trkpt>
      <trkpt lat="47.28439" lon="-1.87172">
        <ele>11.7</ele>
        <time>2013-09-22T08:01:58Z</time>
      </trkpt>
      <trkpt lat="47.28433" lon="-1.87162">
        <ele>11.9</ele>
        <time>2013-09-22T08:02:00Z</time>
      </trkpt>
      <trkpt lat="47.28426" lon="-1.87152">
        <ele>12.3</ele>
        <time>2013-09-22T08:02:02Z</time>
      </trkpt>
      <trkpt lat="47.28418" lon="-1.87143">
        <ele>12.8</ele>
        <time>2013-09-22T08:02:04Z</time>
      </trkpt>
      <trkpt lat="47.28409" lon="-1.87135">
        <ele>13</ele>
        <time>2013-09-22T08:02:06Z</time>
      </trkpt>
      <trkpt lat="47.28399" lon="-1.87128">
        <ele>13.1</ele>
        <time>2013-09-22T08:02:09Z</time>
      </trkpt>
      <trkpt lat="47.28392" lon="-1.8712">
        <ele>13.4</ele>
        <time>2013-09-22T08:02:12Z</time>
      </trkpt>
      <trkpt lat="47.28383" lon="-1.8711">
        <ele>13.3</ele>
        <time>2013-09-22T08:02:14Z</time>
      </trkpt>
      <trkpt lat="47.28375" lon="-1.87099">
        <ele>12.7</ele>
        <time>2013-09-22T08:02:16Z</time>
      </trkpt>
      <trkpt lat="47.28365" lon="-1.87087">
        <ele>12</ele>
        <time>2013-09-22T08:02:18Z</time>
      </trkpt>
      <trkpt lat="47.28355" lon="-1.87077">
        <ele>11</ele>
        <time>2013-09-22T08:02:20Z</time>
      </trkpt>
      <trkpt lat="47.28343" lon="-1.87066">
        <ele>10.5</ele>
        <time>2013-09-22T08:02:22Z</time>
      </trkpt>
      <trkpt lat="47.28332" lon="-1.87053">
        <ele>10.1</ele>
        <time>2013-09-22T08:02:24Z</time>
      </trkpt>
      <trkpt lat="47.28323" lon="-1.87043">
        <ele>9.6</ele>
        <time>2013-09-22T08:02:26Z</time>
      </trkpt>
      <trkpt lat="47.28315" lon="-1.87034">
        <ele>9.3</ele>
        <time>2013-09-22T08:02:28Z</time>
      </trkpt>
      <trkpt lat="47.28307" lon="-1.87027">
        <ele>9.4</ele>
        <time>2013-09-22T08:02:30Z</time>
      </trkpt>
      <trkpt lat="47.28295" lon="-1.87019">
        <ele>9.3</ele>
        <time>2013-09-22T08:02:32Z</time>
      </trkpt>
      <trkpt lat="47.28283" lon="-1.87012">
        <ele>8.6</ele>
        <time>2013-09-22T08:02:34Z</time>
      </trkpt>
      <trkpt lat="47.2827" lon="-1.87005">
        <ele>7.9</ele>
        <time>2013-09-22T08:02:36Z</time>
      </trkpt>
      <trkpt lat="47.28257" lon="-1.86996">
        <ele>7.9</ele>
        <time>2013-09-22T08:02:38Z</time>
      </trkpt>
      <trkpt lat="47.28246" lon="-1.86987">
        <ele>7.2</ele>
        <time>2013-09-22T08:02:40Z</time>
      </trkpt>
      <trkpt lat="47.28236" lon="-1.86977">
        <ele>7.3</ele>
        <time>2013-09-22T08:02:43Z</time>
      </trkpt>
      <trkpt lat="47.28238" lon="-1.86962">
        <ele>7.2</ele>
        <time>2013-09-22T08:02:45Z</time>
      </trkpt>
      <trkpt lat="47.28244" lon="-1.86942">
        <ele>6.7</ele>
        <time>2013-09-22T08:02:47Z</time>
      </trkpt>
      <trkpt lat="47.28251" lon="-1.86921">
        <ele>6</ele>
        <time>2013-09-22T08:02:49Z</time>
      </trkpt>
      <trkpt lat="47.28255" lon="-1.86901">
        <ele>4.5</ele>
        <time>2013-09-22T08:02:51Z</time>
      </trkpt>
      <trkpt lat="47.2826" lon="-1.86882">
        <ele>3.6</ele>
        <time>2013-09-22T08:02:53Z</time>
      </trkpt>
      <trkpt lat="47.28266" lon="-1.86864">
        <ele>3.2</ele>
        <time>2013-09-22T08:02:55Z</time>
      </trkpt>
      <trkpt lat="47.2827" lon="-1.86847">
        <ele>2.9</ele>
        <time>2013-09-22T08:02:57Z</time>
      </trkpt>
      <trkpt lat="47.28273" lon="-1.86828">
        <ele>2.7</ele>
        <time>2013-09-22T08:02:59Z</time>
      </trkpt>
      <trkpt lat="47.28276" lon="-1.86809">
        <ele>1.8</ele>
        <time>2013-09-22T08:03:01Z</time>
      </trkpt>
      <trkpt lat="47.28281" lon="-1.86792">
        <ele>2.2</ele>
        <time>2013-09-22T08:03:03Z</time>
      </trkpt>
      <trkpt lat="47.28286" lon="-1.86777">
        <ele>3.2</ele>
        <time>2013-09-22T08:03:05Z</time>
      </trkpt>
      <trkpt lat="47.28292" lon="-1.86762">
        <ele>3.7</ele>
        <time>2013-09-22T08:03:07Z</time>
      </trkpt>
      <trkpt lat="47.28297" lon="-1.86749">
        <ele>4.5</ele>
        <time>2013-09-22T08:03:09Z</time>
      </trkpt>
      <trkpt lat="47.28305" lon="-1.86736">
        <ele>4.5</ele>
        <time>2013-09-22T08:03:11Z</time>
      </trkpt>
      <trkpt lat="47.28313" lon="-1.86723">
        <ele>4.4</ele>
        <time>2013-09-22T08:03:13Z</time>
      </trkpt>
      <trkpt lat="47.28323" lon="-1.86712">
        <ele>3.9</ele>
        <time>2013-09-22T08:03:15Z</time>
      </trkpt>
      <trkpt lat="47.28332" lon="-1.86703">
        <ele>3.8</ele>
        <time>2013-09-22T08:03:17Z</time>
      </trkpt>
      <trkpt lat="47.28343" lon="-1.86695">
        <ele>3.7</ele>
        <time>2013-09-22T08:03:19Z</time>
      </trkpt>
      <trkpt lat="47.28355" lon="-1.86689">
        <ele>3.7</ele>
        <time>2013-09-22T08:03:21Z</time>
      </trkpt>
      <trkpt lat="47.28365" lon="-1.86684">
        <ele>3.7</ele>
        <time>2013-09-22T08:03:23Z</time>
      </trkpt>
      <trkpt lat="47.28374" lon="-1.86678">
        <ele>3.9</ele>
        <time>2013-09-22T08:03:25Z</time>
      </trkpt>
      <trkpt lat="47.28383" lon="-1.86674">
        <ele>3.5</ele>
        <time>2013-09-22T08:03:27Z</time>
      </trkpt>
      <trkpt lat="47.28395" lon="-1.8667">
        <ele>2.6</ele>
        <time>2013-09-22T08:03:29Z</time>
      </trkpt>
      <trkpt lat="47.28407" lon="-1.86668">
        <ele>2.1</ele>
        <time>2013-09-22T08:03:31Z</time>
      </trkpt>
      <trkpt lat="47.2842" lon="-1.86665">
        <ele>1.8</ele>
        <time>2013-09-22T08:03:33Z</time>
      </trkpt>
      <trkpt lat="47.28432" lon="-1.86663">
        <ele>1.1</ele>
        <time>2013-09-22T08:03:35Z</time>
      </trkpt>
      <trkpt lat="47.28444" lon="-1.86661">
        <ele>0.4</ele>
        <time>2013-09-22T08:03:37Z</time>
      </trkpt>
      <trkpt lat="47.28456" lon="-1.86659">
        <ele>3.6</ele>
        <time>2013-09-22T08:03:39Z</time>
      </trkpt>
      <trkpt lat="47.28468" lon="-1.86657">
        <ele>4.1</ele>
        <time>2013-09-22T08:03:41Z</time>
      </trkpt>
      <trkpt lat="47.28479" lon="-1.86655">
        <ele>0.3</ele>
        <time>2013-09-22T08:03:43Z</time>
      </trkpt>
      <trkpt lat="47.28491" lon="-1.86653">
        <ele>0.1</ele>
        <time>2013-09-22T08:03:45Z</time>
      </trkpt>
      <trkpt lat="47.28503" lon="-1.86651">
        <ele>3.5</ele>
        <time>2013-09-22T08:03:47Z</time>
      </trkpt>
      <trkpt lat="47.28514" lon="-1.86649">
        <ele>3.8</ele>
        <time>2013-09-22T08:03:49Z</time>
      </trkpt>
      <trkpt lat="47.28524" lon="-1.86647">
        <ele>0.2</ele>
        <time>2013-09-22T08:03:51Z</time>
      </trkpt>
      <trkpt lat="47.28534" lon="-1.86645">
        <ele>1.1</ele>
        <time>2013-09-22T08:03:53Z</time>
      </trkpt>
      <trkpt lat="47.28545" lon="-1.86642">
        <ele>2.5</ele>
        <time>2013-09-22T08:03:55Z</time>
      </trkpt>
      <trkpt lat="47.28553" lon="-1.86639">
        <ele>3.7</ele>
        <time>2013-09-22T08:03:57Z</time>
      </trkpt>
      <trkpt lat="47.28567" lon="-1.86634">
        <ele>5.1</ele>
        <time>2013-09-22T08:04:00Z</time>
      </trkpt>
      <trkpt lat="47.28578" lon="-1.8663">
        <ele>5.2</ele>
        <time>2013-09-22T08:04:02Z</time>
      </trkpt>
      <trkpt lat="47.28587" lon="-1.86624">
        <ele>5.3</ele>
        <time>2013-09-22T08:04:04Z</time>
      </trkpt>
      <trkpt lat="47.28597" lon="-1.86617">
        <ele>5.3</ele>
        <time>2013-09-22T08:04:06Z</time>
      </trkpt>
      <trkpt lat="47.28605" lon="-1.86609">
        <ele>5</ele>
        <time>2013-09-22T08:04:08Z</time>
      </trkpt>
      <trkpt lat="47.28613" lon="-1.86601">
        <ele>5</ele>
        <time>2013-09-22T08:04:10Z</time>
      </trkpt>
      <trkpt lat="47.28621" lon="-1.86592">
        <ele>5.4</ele>
        <time>2013-09-22T08:04:12Z</time>
      </trkpt>
      <trkpt lat="47.2863" lon="-1.86583">
        <ele>5.7</ele>
        <time>2013-09-22T08:04:14Z</time>
      </trkpt>
      <trkpt lat="47.28638" lon="-1.86573">
        <ele>5.8</ele>
        <time>2013-09-22T08:04:16Z</time>
      </trkpt>
      <trkpt lat="47.28646" lon="-1.86564">
        <ele>5.4</ele>
        <time>2013-09-22T08:04:18Z</time>
      </trkpt>
      <trkpt lat="47.28654" lon="-1.86555">
        <ele>5.2</ele>
        <time>2013-09-22T08:04:20Z</time>
      </trkpt>
      <trkpt lat="47.28663" lon="-1.86547">
        <ele>5.6</ele>
        <time>2013-09-22T08:04:23Z</time>
      </trkpt>
      <trkpt lat="47.28673" lon="-1.86537">
        <ele>6</ele>
        <time>2013-09-22T08:04:26Z</time>
      </trkpt>
      <trkpt lat="47.28681" lon="-1.86529">
        <ele>6</ele>
        <time>2013-09-22T08:04:28Z</time>
      </trkpt>
      <trkpt lat="47.2869" lon="-1.86519">
        <ele>6.5</ele>
        <time>2013-09-22T08:04:30Z</time>
      </trkpt>
      <trkpt lat="47.28699" lon="-1.86508">
        <ele>7</ele>
        <time>2013-09-22T08:04:32Z</time>
      </trkpt>
      <trkpt lat="47.28707" lon="-1.86498">
        <ele>7.8</ele>
        <time>2013-09-22T08:04:34Z</time>
      </trkpt>
      <trkpt lat="47.28715" lon="-1.86489">
        <ele>7.7</ele>
        <time>2013-09-22T08:04:36Z</time>
      </trkpt>
      <trkpt lat="47.28726" lon="-1.86476">
        <ele>7.2</ele>
        <time>2013-09-22T08:04:39Z</time>
      </trkpt>
      <trkpt lat="47.28736" lon="-1.86464">
        <ele>7</ele>
        <time>2013-09-22T08:04:42Z</time>
      </trkpt>
      <trkpt lat="47.28744" lon="-1.86453">
        <ele>7.3</ele>
        <time>2013-09-22T08:04:45Z</time>
      </trkpt>
      <trkpt lat="47.28753" lon="-1.86442">
        <ele>8.5</ele>
        <time>2013-09-22T08:04:48Z</time>
      </trkpt>
      <trkpt lat="47.28763" lon="-1.8643">
        <ele>8.7</ele>
        <time>2013-09-22T08:04:51Z</time>
      </trkpt>
      <trkpt lat="47.28774" lon="-1.86418">
        <ele>9</ele>
        <time>2013-09-22T08:04:54Z</time>
      </trkpt>
      <trkpt lat="47.28784" lon="-1.86407">
        <ele>9.2</ele>
        <time>2013-09-22T08:04:57Z</time>
      </trkpt>
      <trkpt lat="47.28793" lon="-1.86394">
        <ele>9.5</ele>
        <time>2013-09-22T08:05:00Z</time>
      </trkpt>
      <trkpt lat="47.28801" lon="-1.86386">
        <ele>9.6</ele>
        <time>2013-09-22T08:05:02Z</time>
      </trkpt>
      <trkpt lat="47.28812" lon="-1.86376">
        <ele>9.8</ele>
        <time>2013-09-22T08:05:05Z</time>
      </trkpt>
      <trkpt lat="47.2882" lon="-1.86367">
        <ele>9.9</ele>
        <time>2013-09-22T08:05:07Z</time>
      </trkpt>
      <trkpt lat="47.28828" lon="-1.86359">
        <ele>10</ele>
        <time>2013-09-22T08:05:09Z</time>
      </trkpt>
      <trkpt lat="47.28835" lon="-1.86351">
        <ele>11.6</ele>
        <time>2013-09-22T08:05:11Z</time>
      </trkpt>
      <trkpt lat="47.28843" lon="-1.86342">
        <ele>12.9</ele>
        <time>2013-09-22T08:05:13Z</time>
      </trkpt>
      <trkpt lat="47.28855" lon="-1.86332">
        <ele>12.8</ele>
        <time>2013-09-22T08:05:16Z</time>
      </trkpt>
      <trkpt lat="47.28864" lon="-1.86325">
        <ele>12</ele>
        <time>2013-09-22T08:05:18Z</time>
      </trkpt>
      <trkpt lat="47.28872" lon="-1.86317">
        <ele>10.8</ele>
        <time>2013-09-22T08:05:20Z</time>
      </trkpt>
      <trkpt lat="47.28879" lon="-1.86308">
        <ele>10.5</ele>
        <time>2013-09-22T08:05:22Z</time>
      </trkpt>
      <trkpt lat="47.28887" lon="-1.863">
        <ele>11.2</ele>
        <time>2013-09-22T08:05:24Z</time>
      </trkpt>
      <trkpt lat="47.28895" lon="-1.8629">
        <ele>12.7</ele>
        <time>2013-09-22T08:05:26Z</time>
      </trkpt>
      <trkpt lat="47.28904" lon="-1.86278">
        <ele>13.5</ele>
        <time>2013-09-22T08:05:28Z</time>
      </trkpt>
      <trkpt lat="47.28912" lon="-1.86266">
        <ele>13.4</ele>
        <time>2013-09-22T08:05:30Z</time>
      </trkpt>
      <trkpt lat="47.28918" lon="-1.86254">
        <ele>13.5</ele>
        <time>2013-09-22T08:05:32Z</time>
      </trkpt>
      <trkpt lat="47.28925" lon="-1.8624">
        <ele>14.3</ele>
        <time>2013-09-22T08:05:34Z</time>
      </trkpt>
      <trkpt lat="47.28931" lon="-1.86225">
        <ele>14.9</ele>
        <time>2013-09-22T08:05:36Z</time>
      </trkpt>
      <trkpt lat="47.28938" lon="-1.8621">
        <ele>14.3</ele>
        <time>2013-09-22T08:05:38Z</time>
      </trkpt>
      <trkpt lat="47.28946" lon="-1.86195">
        <ele>13.3</ele>
        <time>2013-09-22T08:05:40Z</time>
      </trkpt>
      <trkpt lat="47.28954" lon="-1.86181">
        <ele>12.5</ele>
        <time>2013-09-22T08:05:42Z</time>
      </trkpt>
      <trkpt lat="47.28961" lon="-1.86166">
        <ele>12</ele>
        <time>2013-09-22T08:05:44Z</time>
      </trkpt>
      <trkpt lat="47.28968" lon="-1.86152">
        <ele>12.3</ele>
        <time>2013-09-22T08:05:46Z</time>
      </trkpt>
      <trkpt lat="47.28973" lon="-1.86141">
        <ele>12.6</ele>
        <time>2013-09-22T08:05:48Z</time>
      </trkpt>
      <trkpt lat="47.2898" lon="-1.86127">
        <ele>12.3</ele>
        <time>2013-09-22T08:05:50Z</time>
      </trkpt>
      <trkpt lat="47.28986" lon="-1.86114">
        <ele>12.2</ele>
        <time>2013-09-22T08:05:52Z</time>
      </trkpt>
      <trkpt lat="47.28992" lon="-1.86101">
        <ele>11.7</ele>
        <time>2013-09-22T08:05:54Z</time>
      </trkpt>
      <trkpt lat="47.29" lon="-1.86088">
        <ele>11.1</ele>
        <time>2013-09-22T08:05:56Z</time>
      </trkpt>
      <trkpt lat="47.29007" lon="-1.86078">
        <ele>10.6</ele>
        <time>2013-09-22T08:05:58Z</time>
      </trkpt>
      <trkpt lat="47.29017" lon="-1.86065">
        <ele>9.8</ele>
        <time>2013-09-22T08:06:00Z</time>
      </trkpt>
      <trkpt lat="47.29025" lon="-1.86055">
        <ele>9.7</ele>
        <time>2013-09-22T08:06:02Z</time>
      </trkpt>
      <trkpt lat="47.29036" lon="-1.86046">
        <ele>9.6</ele>
        <time>2013-09-22T08:06:04Z</time>
      </trkpt>
      <trkpt lat="47.29048" lon="-1.86039">
        <ele>9.8</ele>
        <time>2013-09-22T08:06:06Z</time>
      </trkpt>
      <trkpt lat="47.29059" lon="-1.86032">
        <ele>9.7</ele>
        <time>2013-09-22T08:06:08Z</time>
      </trkpt>
      <trkpt lat="47.29072" lon="-1.86026">
        <ele>9.9</ele>
        <time>2013-09-22T08:06:10Z</time>
      </trkpt>
      <trkpt lat="47.29085" lon="-1.86022">
        <ele>9.9</ele>
        <time>2013-09-22T08:06:12Z</time>
      </trkpt>
      <trkpt lat="47.29101" lon="-1.86018">
        <ele>9.3</ele>
        <time>2013-09-22T08:06:14Z</time>
      </trkpt>
      <trkpt lat="47.29117" lon="-1.86014">
        <ele>8.5</ele>
        <time>2013-09-22T08:06:16Z</time>
      </trkpt>
      <trkpt lat="47.29132" lon="-1.86009">
        <ele>8.2</ele>
        <time>2013-09-22T08:06:18Z</time>
      </trkpt>
      <trkpt lat="47.29146" lon="-1.86004">
        <ele>7.5</ele>
        <time>2013-09-22T08:06:20Z</time>
      </trkpt>
      <trkpt lat="47.29159" lon="-1.85999">
        <ele>7.5</ele>
        <time>2013-09-22T08:06:22Z</time>
      </trkpt>
      <trkpt lat="47.29172" lon="-1.85992">
        <ele>7.7</ele>
        <time>2013-09-22T08:06:24Z</time>
      </trkpt>
      <trkpt lat="47.29185" lon="-1.85986">
        <ele>7.3</ele>
        <time>2013-09-22T08:06:26Z</time>
      </trkpt>
      <trkpt lat="47.29195" lon="-1.85981">
        <ele>6.5</ele>
        <time>2013-09-22T08:06:28Z</time>
      </trkpt>
      <trkpt lat="47.29205" lon="-1.85978">
        <ele>6.2</ele>
        <time>2013-09-22T08:06:31Z</time>
      </trkpt>
      <trkpt lat="47.29216" lon="-1.8598">
        <ele>5.9</ele>
        <time>2013-09-22T08:06:36Z</time>
      </trkpt>
      <trkpt lat="47.29228" lon="-1.85979">
        <ele>5.7</ele>
        <time>2013-09-22T08:06:40Z</time>
      </trkpt>
      <trkpt lat="47.29237" lon="-1.85975">
        <ele>5.6</ele>
        <time>2013-09-22T08:06:42Z</time>
      </trkpt>
      <trkpt lat="47.29248" lon="-1.8597">
        <ele>5.3</ele>
        <time>2013-09-22T08:06:45Z</time>
      </trkpt>
      <trkpt lat="47.29258" lon="-1.85965">
        <ele>5.3</ele>
        <time>2013-09-22T08:06:48Z</time>
      </trkpt>
      <trkpt lat="47.29269" lon="-1.85961">
        <ele>5.4</ele>
        <time>2013-09-22T08:06:52Z</time>
      </trkpt>
      <trkpt lat="47.29278" lon="-1.85953">
        <ele>5.3</ele>
        <time>2013-09-22T08:06:55Z</time>
      </trkpt>
      <trkpt lat="47.29286" lon="-1.85946">
        <ele>5.2</ele>
        <time>2013-09-22T08:06:58Z</time>
      </trkpt>
      <trkpt lat="47.29296" lon="-1.85941">
        <ele>5.1</ele>
        <time>2013-09-22T08:07:01Z</time>
      </trkpt>
      <trkpt lat="47.29306" lon="-1.85938">
        <ele>4.8</ele>
        <time>2013-09-22T08:07:04Z</time>
      </trkpt>
      <trkpt lat="47.29317" lon="-1.85931">
        <ele>4.8</ele>
        <time>2013-09-22T08:07:08Z</time>
      </trkpt>
      <trkpt lat="47.29325" lon="-1.85925">
        <ele>4.7</ele>
        <time>2013-09-22T08:07:11Z</time>
      </trkpt>
      <trkpt lat="47.29338" lon="-1.85918">
        <ele>4.7</ele>
        <time>2013-09-22T08:07:14Z</time>
      </trkpt>
      <trkpt lat="47.2935" lon="-1.85914">
        <ele>4.6</ele>
        <time>2013-09-22T08:07:17Z</time>
      </trkpt>
      <trkpt lat="47.29361" lon="-1.85907">
        <ele>4.4</ele>
        <time>2013-09-22T08:07:20Z</time>
      </trkpt>
      <trkpt lat="47.29372" lon="-1.85896">
        <ele>4.2</ele>
        <time>2013-09-22T08:07:23Z</time>
      </trkpt>
      <trkpt lat="47.29381" lon="-1.85887">
        <ele>4.2</ele>
        <time>2013-09-22T08:07:25Z</time>
      </trkpt>
      <trkpt lat="47.2939" lon="-1.85876">
        <ele>4.2</ele>
        <time>2013-09-22T08:07:27Z</time>
      </trkpt>
      <trkpt lat="47.29399" lon="-1.85864">
        <ele>3.6</ele>
        <time>2013-09-22T08:07:29Z</time>
      </trkpt>
      <trkpt lat="47.29408" lon="-1.85849">
        <ele>4.1</ele>
        <time>2013-09-22T08:07:31Z</time>
      </trkpt>
      <trkpt lat="47.29415" lon="-1.85838">
        <ele>4</ele>
        <time>2013-09-22T08:07:33Z</time>
      </trkpt>
      <trkpt lat="47.29423" lon="-1.85828">
        <ele>3.7</ele>
        <time>2013-09-22T08:07:36Z</time>
      </trkpt>
      <trkpt lat="47.29427" lon="-1.85812">
        <ele>3.8</ele>
        <time>2013-09-22T08:07:39Z</time>
      </trkpt>
      <trkpt lat="47.29429" lon="-1.85793">
        <ele>3.8</ele>
        <time>2013-09-22T08:07:42Z</time>
      </trkpt>
      <trkpt lat="47.29431" lon="-1.85779">
        <ele>3.7</ele>
        <time>2013-09-22T08:07:44Z</time>
      </trkpt>
      <trkpt lat="47.29435" lon="-1.8576">
        <ele>3.9</ele>
        <time>2013-09-22T08:07:47Z</time>
      </trkpt>
      <trkpt lat="47.29438" lon="-1.85742">
        <ele>4.6</ele>
        <time>2013-09-22T08:07:50Z</time>
      </trkpt>
      <trkpt lat="47.29441" lon="-1.85724">
        <ele>5.3</ele>
        <time>2013-09-22T08:07:53Z</time>
      </trkpt>
      <trkpt lat="47.29443" lon="-1.85705">
        <ele>5.8</ele>
        <time>2013-09-22T08:07:56Z</time>
      </trkpt>
      <trkpt lat="47.29444" lon="-1.85691">
        <ele>6.3</ele>
        <time>2013-09-22T08:07:58Z</time>
      </trkpt>
      <trkpt lat="47.29446" lon="-1.85675">
        <ele>6.4</ele>
        <time>2013-09-22T08:08:01Z</time>
      </trkpt>
      <trkpt lat="47.29448" lon="-1.8566">
        <ele>6.3</ele>
        <time>2013-09-22T08:08:04Z</time>
      </trkpt>
      <trkpt lat="47.29449" lon="-1.85643">
        <ele>6</ele>
        <time>2013-09-22T08:08:08Z</time>
      </trkpt>
      <trkpt lat="47.29449" lon="-1.85626">
        <ele>5.7</ele>
        <time>2013-09-22T08:08:11Z</time>
      </trkpt>
      <trkpt lat="47.2945" lon="-1.85607">
        <ele>4.3</ele>
        <time>2013-09-22T08:08:14Z</time>
      </trkpt>
      <trkpt lat="47.29453" lon="-1.85588">
        <ele>3.9</ele>
        <time>2013-09-22T08:08:17Z</time>
      </trkpt>
      <trkpt lat="47.29458" lon="-1.85576">
        <ele>3.4</ele>
        <time>2013-09-22T08:08:19Z</time>
      </trkpt>
      <trkpt lat="47.29463" lon="-1.85564">
        <ele>2.9</ele>
        <time>2013-09-22T08:08:21Z</time>
      </trkpt>
      <trkpt lat="47.29469" lon="-1.85552">
        <ele>3</ele>
        <time>2013-09-22T08:08:23Z</time>
      </trkpt>
      <trkpt lat="47.29474" lon="-1.8554">
        <ele>3.2</ele>
        <time>2013-09-22T08:08:25Z</time>
      </trkpt>
      <trkpt lat="47.29481" lon="-1.85528">
        <ele>3.6</ele>
        <time>2013-09-22T08:08:27Z</time>
      </trkpt>
      <trkpt lat="47.29488" lon="-1.85515">
        <ele>4.4</ele>
        <time>2013-09-22T08:08:29Z</time>
      </trkpt>
      <trkpt lat="47.29495" lon="-1.85505">
        <ele>4.8</ele>
        <time>2013-09-22T08:08:31Z</time>
      </trkpt>
      <trkpt lat="47.29503" lon="-1.85494">
        <ele>4.6</ele>
        <time>2013-09-22T08:08:33Z</time>
      </trkpt>
      <trkpt lat="47.29512" lon="-1.85482">
        <ele>4.7</ele>
        <time>2013-09-22T08:08:35Z</time>
      </trkpt>
      <trkpt lat="47.2952" lon="-1.85471">
        <ele>5.3</ele>
        <time>2013-09-22T08:08:37Z</time>
      </trkpt>
      <trkpt lat="47.29526" lon="-1.85461">
        <ele>5.5</ele>
        <time>2013-09-22T08:08:39Z</time>
      </trkpt>
      <trkpt lat="47.29533" lon="-1.85449">
        <ele>5.8</ele>
        <time>2013-09-22T08:08:41Z</time>
      </trkpt>
      <trkpt lat="47.2954" lon="-1.85439">
        <ele>7.1</ele>
        <time>2013-09-22T08:08:43Z</time>
      </trkpt>
      <trkpt lat="47.29546" lon="-1.85428">
        <ele>8.5</ele>
        <time>2013-09-22T08:08:45Z</time>
      </trkpt>
      <trkpt lat="47.29552" lon="-1.85417">
        <ele>10</ele>
        <time>2013-09-22T08:08:47Z</time>
      </trkpt>
      <trkpt lat="47.29558" lon="-1.85408">
        <ele>11.2</ele>
        <time>2013-09-22T08:08:49Z</time>
      </trkpt>
      <trkpt lat="47.29569" lon="-1.85394">
        <ele>10.9</ele>
        <time>2013-09-22T08:08:52Z</time>
      </trkpt>
      <trkpt lat="47.29577" lon="-1.85385">
        <ele>10.6</ele>
        <time>2013-09-22T08:08:54Z</time>
      </trkpt>
      <trkpt lat="47.29584" lon="-1.85375">
        <ele>10.7</ele>
        <time>2013-09-22T08:08:56Z</time>
      </trkpt>
      <trkpt lat="47.29592" lon="-1.85364">
        <ele>10.1</ele>
        <time>2013-09-22T08:08:58Z</time>
      </trkpt>
      <trkpt lat="47.296" lon="-1.8535">
        <ele>9.2</ele>
        <time>2013-09-22T08:09:01Z</time>
      </trkpt>
      <trkpt lat="47.29607" lon="-1.85334">
        <ele>9.1</ele>
        <time>2013-09-22T08:09:04Z</time>
      </trkpt>
      <trkpt lat="47.29613" lon="-1.85323">
        <ele>9.2</ele>
        <time>2013-09-22T08:09:06Z</time>
      </trkpt>
      <trkpt lat="47.29619" lon="-1.85314">
        <ele>9.9</ele>
        <time>2013-09-22T08:09:08Z</time>
      </trkpt>
      <trkpt lat="47.29626" lon="-1.85304">
        <ele>9.8</ele>
        <time>2013-09-22T08:09:10Z</time>
      </trkpt>
      <trkpt lat="47.29634" lon="-1.85292">
        <ele>9.6</ele>
        <time>2013-09-22T08:09:13Z</time>
      </trkpt>
      <trkpt lat="47.29642" lon="-1.8528">
        <ele>7.2</ele>
        <time>2013-09-22T08:09:16Z</time>
      </trkpt>
      <trkpt lat="47.29651" lon="-1.85265">
        <ele>7.2</ele>
        <time>2013-09-22T08:09:19Z</time>
      </trkpt>
      <trkpt lat="47.29657" lon="-1.85254">
        <ele>7.2</ele>
        <time>2013-09-22T08:09:21Z</time>
      </trkpt>
      <trkpt lat="47.29664" lon="-1.85243">
        <ele>7.2</ele>
        <time>2013-09-22T08:09:23Z</time>
      </trkpt>
      <trkpt lat="47.29673" lon="-1.85228">
        <ele>7.4</ele>
        <time>2013-09-22T08:09:26Z</time>
      </trkpt>
      <trkpt lat="47.29679" lon="-1.85216">
        <ele>7.9</ele>
        <time>2013-09-22T08:09:28Z</time>
      </trkpt>
      <trkpt lat="47.29686" lon="-1.85204">
        <ele>9.4</ele>
        <time>2013-09-22T08:09:30Z</time>
      </trkpt>
      <trkpt lat="47.29693" lon="-1.85194">
        <ele>10</ele>
        <time>2013-09-22T08:09:32Z</time>
      </trkpt>
      <trkpt lat="47.29701" lon="-1.85185">
        <ele>10.7</ele>
        <time>2013-09-22T08:09:34Z</time>
      </trkpt>
      <trkpt lat="47.29709" lon="-1.85174">
        <ele>11.2</ele>
        <time>2013-09-22T08:09:36Z</time>
      </trkpt>
      <trkpt lat="47.29715" lon="-1.85162">
        <ele>10.7</ele>
        <time>2013-09-22T08:09:38Z</time>
      </trkpt>
      <trkpt lat="47.29721" lon="-1.8515">
        <ele>10.5</ele>
        <time>2013-09-22T08:09:40Z</time>
      </trkpt>
      <trkpt lat="47.29731" lon="-1.85141">
        <ele>9.9</ele>
        <time>2013-09-22T08:09:43Z</time>
      </trkpt>
      <trkpt lat="47.29741" lon="-1.85134">
        <ele>9.6</ele>
        <time>2013-09-22T08:09:48Z</time>
      </trkpt>
      <trkpt lat="47.29748" lon="-1.85115">
        <ele>8.5</ele>
        <time>2013-09-22T08:09:51Z</time>
      </trkpt>
      <trkpt lat="47.29752" lon="-1.85102">
        <ele>8.3</ele>
        <time>2013-09-22T08:09:53Z</time>
      </trkpt>
      <trkpt lat="47.29755" lon="-1.85087">
        <ele>8.4</ele>
        <time>2013-09-22T08:09:55Z</time>
      </trkpt>
      <trkpt lat="47.29758" lon="-1.8507">
        <ele>8.5</ele>
        <time>2013-09-22T08:09:57Z</time>
      </trkpt>
      <trkpt lat="47.2976" lon="-1.85054">
        <ele>8.6</ele>
        <time>2013-09-22T08:09:59Z</time>
      </trkpt>
      <trkpt lat="47.29761" lon="-1.85038">
        <ele>8.7</ele>
        <time>2013-09-22T08:10:01Z</time>
      </trkpt>
      <trkpt lat="47.29761" lon="-1.85023">
        <ele>8.7</ele>
        <time>2013-09-22T08:10:03Z</time>
      </trkpt>
      <trkpt lat="47.29761" lon="-1.85007">
        <ele>8.2</ele>
        <time>2013-09-22T08:10:05Z</time>
      </trkpt>
      <trkpt lat="47.29762" lon="-1.84991">
        <ele>7.7</ele>
        <time>2013-09-22T08:10:07Z</time>
      </trkpt>
      <trkpt lat="47.29758" lon="-1.84972">
        <ele>7.1</ele>
        <time>2013-09-22T08:10:09Z</time>
      </trkpt>
      <trkpt lat="47.29755" lon="-1.84956">
        <ele>6.8</ele>
        <time>2013-09-22T08:10:11Z</time>
      </trkpt>
      <trkpt lat="47.29751" lon="-1.84942">
        <ele>6</ele>
        <time>2013-09-22T08:10:13Z</time>
      </trkpt>
      <trkpt lat="47.29747" lon="-1.84926">
        <ele>4.6</ele>
        <time>2013-09-22T08:10:15Z</time>
      </trkpt>
      <trkpt lat="47.29744" lon="-1.84911">
        <ele>2.7</ele>
        <time>2013-09-22T08:10:17Z</time>
      </trkpt>
      <trkpt lat="47.2974" lon="-1.84894">
        <ele>2.3</ele>
        <time>2013-09-22T08:10:19Z</time>
      </trkpt>
      <trkpt lat="47.29736" lon="-1.84877">
        <ele>2.3</ele>
        <time>2013-09-22T08:10:21Z</time>
      </trkpt>
      <trkpt lat="47.29732" lon="-1.84859">
        <ele>2.2</ele>
        <time>2013-09-22T08:10:23Z</time>
      </trkpt>
      <trkpt lat="47.29728" lon="-1.84843">
        <ele>2.9</ele>
        <time>2013-09-22T08:10:25Z</time>
      </trkpt>
      <trkpt lat="47.29724" lon="-1.84826">
        <ele>3.3</ele>
        <time>2013-09-22T08:10:27Z</time>
      </trkpt>
      <trkpt lat="47.29719" lon="-1.8481">
        <ele>3</ele>
        <time>2013-09-22T08:10:29Z</time>
      </trkpt>
      <trkpt lat="47.29715" lon="-1.84794">
        <ele>1.5</ele>
        <time>2013-09-22T08:10:31Z</time>
      </trkpt>
      <trkpt lat="47.29711" lon="-1.84777">
        <ele>1.4</ele>
        <time>2013-09-22T08:10:33Z</time>
      </trkpt>
      <trkpt lat="47.29708" lon="-1.84759">
        <ele>1.4</ele>
        <time>2013-09-22T08:10:35Z</time>
      </trkpt>
      <trkpt lat="47.29704" lon="-1.8474">
        <ele>2.6</ele>
        <time>2013-09-22T08:10:37Z</time>
      </trkpt>
      <trkpt lat="47.297" lon="-1.84721">
        <ele>3.3</ele>
        <time>2013-09-22T08:10:39Z</time>
      </trkpt>
      <trkpt lat="47.29695" lon="-1.84701">
        <ele>4.3</ele>
        <time>2013-09-22T08:10:41Z</time>
      </trkpt>
      <trkpt lat="47.29691" lon="-1.84683">
        <ele>3.7</ele>
        <time>2013-09-22T08:10:43Z</time>
      </trkpt>
      <trkpt lat="47.29687" lon="-1.84662">
        <ele>2.8</ele>
        <time>2013-09-22T08:10:45Z</time>
      </trkpt>
      <trkpt lat="47.29684" lon="-1.84644">
        <ele>2.6</ele>
        <time>2013-09-22T08:10:47Z</time>
      </trkpt>
      <trkpt lat="47.29682" lon="-1.84624">
        <ele>2.2</ele>
        <time>2013-09-22T08:10:49Z</time>
      </trkpt>
      <trkpt lat="47.29682" lon="-1.84607">
        <ele>1.4</ele>
        <time>2013-09-22T08:10:51Z</time>
      </trkpt>
      <trkpt lat="47.29682" lon="-1.84589">
        <ele>0.4</ele>
        <time>2013-09-22T08:10:53Z</time>
      </trkpt>
      <trkpt lat="47.29683" lon="-1.84574">
        <ele>-0.5</ele>
        <time>2013-09-22T08:10:55Z</time>
      </trkpt>
      <trkpt lat="47.29688" lon="-1.84551">
        <ele>6.1</ele>
        <time>2013-09-22T08:10:57Z</time>
      </trkpt>
      <trkpt lat="47.29693" lon="-1.84531">
        <ele>1.5</ele>
        <time>2013-09-22T08:10:59Z</time>
      </trkpt>
      <trkpt lat="47.297" lon="-1.84516">
        <ele>2.9</ele>
        <time>2013-09-22T08:11:01Z</time>
      </trkpt>
      <trkpt lat="47.29708" lon="-1.84502">
        <ele>4.7</ele>
        <time>2013-09-22T08:11:03Z</time>
      </trkpt>
      <trkpt lat="47.29715" lon="-1.84488">
        <ele>5.2</ele>
        <time>2013-09-22T08:11:05Z</time>
      </trkpt>
      <trkpt lat="47.29722" lon="-1.84477">
        <ele>6.4</ele>
        <time>2013-09-22T08:11:07Z</time>
      </trkpt>
      <trkpt lat="47.29732" lon="-1.8446">
        <ele>7.2</ele>
        <time>2013-09-22T08:11:09Z</time>
      </trkpt>
      <trkpt lat="47.29739" lon="-1.84446">
        <ele>7.6</ele>
        <time>2013-09-22T08:11:11Z</time>
      </trkpt>
      <trkpt lat="47.29746" lon="-1.84433">
        <ele>7.2</ele>
        <time>2013-09-22T08:11:13Z</time>
      </trkpt>
      <trkpt lat="47.29752" lon="-1.84419">
        <ele>7.3</ele>
        <time>2013-09-22T08:11:15Z</time>
      </trkpt>
      <trkpt lat="47.29759" lon="-1.84403">
        <ele>6.4</ele>
        <time>2013-09-22T08:11:17Z</time>
      </trkpt>
      <trkpt lat="47.29766" lon="-1.8439">
        <ele>4.9</ele>
        <time>2013-09-22T08:11:19Z</time>
      </trkpt>
      <trkpt lat="47.29772" lon="-1.84379">
        <ele>4.7</ele>
        <time>2013-09-22T08:11:21Z</time>
      </trkpt>
      <trkpt lat="47.29779" lon="-1.8437">
        <ele>5.1</ele>
        <time>2013-09-22T08:11:23Z</time>
      </trkpt>
      <trkpt lat="47.29778" lon="-1.84355">
        <ele>5.1</ele>
        <time>2013-09-22T08:11:27Z</time>
      </trkpt>
      <trkpt lat="47.29769" lon="-1.84355">
        <ele>5.9</ele>
        <time>2013-09-22T08:12:48Z</time>
      </trkpt>
      <trkpt lat="47.2976" lon="-1.84348">
        <ele>5.9</ele>
        <time>2013-09-22T08:12:55Z</time>
      </trkpt>
      <trkpt lat="47.29762" lon="-1.84332">
        <ele>5.6</ele>
        <time>2013-09-22T08:13:00Z</time>
      </trkpt>
      <trkpt lat="47.29764" lon="-1.84317">
        <ele>5.4</ele>
        <time>2013-09-22T08:13:04Z</time>
      </trkpt>
      <trkpt lat="47.29767" lon="-1.84301">
        <ele>5.2</ele>
        <time>2013-09-22T08:13:08Z</time>
      </trkpt>
      <trkpt lat="47.29767" lon="-1.84285">
        <ele>5.2</ele>
        <time>2013-09-22T08:13:12Z</time>
      </trkpt>
      <trkpt lat="47.29763" lon="-1.84272">
        <ele>5.3</ele>
        <time>2013-09-22T08:13:17Z</time>
      </trkpt>
      <trkpt lat="47.29756" lon="-1.84259">
        <ele>5.2</ele>
        <time>2013-09-22T08:13:22Z</time>
      </trkpt>
      <trkpt lat="47.29748" lon="-1.84251">
        <ele>5.5</ele>
        <time>2013-09-22T08:13:28Z</time>
      </trkpt>
      <trkpt lat="47.2974" lon="-1.8424">
        <ele>5.7</ele>
        <time>2013-09-22T08:13:32Z</time>
      </trkpt>
      <trkpt lat="47.29731" lon="-1.84228">
        <ele>5.9</ele>
        <time>2013-09-22T08:13:36Z</time>
      </trkpt>
      <trkpt lat="47.29722" lon="-1.84214">
        <ele>5.8</ele>
        <time>2013-09-22T08:13:39Z</time>
      </trkpt>
      <trkpt lat="47.29716" lon="-1.84205">
        <ele>5.5</ele>
        <time>2013-09-22T08:13:41Z</time>
      </trkpt>
      <trkpt lat="47.29707" lon="-1.84196">
        <ele>5.3</ele>
        <time>2013-09-22T08:13:43Z</time>
      </trkpt>
      <trkpt lat="47.29698" lon="-1.84187">
        <ele>5.8</ele>
        <time>2013-09-22T08:13:45Z</time>
      </trkpt>
      <trkpt lat="47.29688" lon="-1.84174">
        <ele>6.1</ele>
        <time>2013-09-22T08:13:48Z</time>
      </trkpt>
      <trkpt lat="47.29682" lon="-1.84164">
        <ele>5.2</ele>
        <time>2013-09-22T08:13:50Z</time>
      </trkpt>
      <trkpt lat="47.29673" lon="-1.84153">
        <ele>5.2</ele>
        <time>2013-09-22T08:13:53Z</time>
      </trkpt>
      <trkpt lat="47.2967" lon="-1.84141">
        <ele>5.5</ele>
        <time>2013-09-22T08:13:59Z</time>
      </trkpt>
      <trkpt lat="47.29668" lon="-1.84127">
        <ele>5.9</ele>
        <time>2013-09-22T08:14:12Z</time>
      </trkpt>
      <trkpt lat="47.29668" lon="-1.84112">
        <ele>5.8</ele>
        <time>2013-09-22T08:14:23Z</time>
      </trkpt>
      <trkpt lat="47.2966" lon="-1.84104">
        <ele>5.9</ele>
        <time>2013-09-22T08:14:28Z</time>
      </trkpt>
      <trkpt lat="47.29651" lon="-1.84101">
        <ele>6</ele>
        <time>2013-09-22T08:14:32Z</time>
      </trkpt>
      <trkpt lat="47.29644" lon="-1.84091">
        <ele>6.2</ele>
        <time>2013-09-22T08:14:37Z</time>
      </trkpt>
      <trkpt lat="47.29636" lon="-1.84081">
        <ele>6.2</ele>
        <time>2013-09-22T08:14:41Z</time>
      </trkpt>
      <trkpt lat="47.29626" lon="-1.84074">
        <ele>6.1</ele>
        <time>2013-09-22T08:14:45Z</time>
      </trkpt>
      <trkpt lat="47.29618" lon="-1.84063">
        <ele>6.7</ele>
        <time>2013-09-22T08:14:53Z</time>
      </trkpt>
      <trkpt lat="47.29609" lon="-1.84062">
        <ele>7.2</ele>
        <time>2013-09-22T08:15:02Z</time>
      </trkpt>
      <trkpt lat="47.29599" lon="-1.8406">
        <ele>7.5</ele>
        <time>2013-09-22T08:15:08Z</time>
      </trkpt>
      <trkpt lat="47.2959" lon="-1.84056">
        <ele>7.7</ele>
        <time>2013-09-22T08:15:13Z</time>
      </trkpt>
      <trkpt lat="47.29583" lon="-1.84044">
        <ele>7.7</ele>
        <time>2013-09-22T08:15:18Z</time>
      </trkpt>
      <trkpt lat="47.29576" lon="-1.84033">
        <ele>7.8</ele>
        <time>2013-09-22T08:15:23Z</time>
      </trkpt>
      <trkpt lat="47.29566" lon="-1.8403">
        <ele>7.8</ele>
        <time>2013-09-22T08:15:28Z</time>
      </trkpt>
      <trkpt lat="47.29561" lon="-1.84017">
        <ele>7.8</ele>
        <time>2013-09-22T08:15:36Z</time>
      </trkpt>
      <trkpt lat="47.29554" lon="-1.84007">
        <ele>7.9</ele>
        <time>2013-09-22T08:15:42Z</time>
      </trkpt>
      <trkpt lat="47.29553" lon="-1.83993">
        <ele>7.3</ele>
        <time>2013-09-22T08:15:47Z</time>
      </trkpt>
      <trkpt lat="47.29551" lon="-1.83978">
        <ele>7</ele>
        <time>2013-09-22T08:15:52Z</time>
      </trkpt>
      <trkpt lat="47.29548" lon="-1.83965">
        <ele>7.2</ele>
        <time>2013-09-22T08:15:58Z</time>
      </trkpt>
      <trkpt lat="47.29538" lon="-1.83961">
        <ele>7.4</ele>
        <time>2013-09-22T08:16:03Z</time>
      </trkpt>
      <trkpt lat="47.29528" lon="-1.83953">
        <ele>7.4</ele>
        <time>2013-09-22T08:16:07Z</time>
      </trkpt>
      <trkpt lat="47.29519" lon="-1.83948">
        <ele>7.3</ele>
        <time>2013-09-22T08:16:13Z</time>
      </trkpt>
      <trkpt lat="47.2951" lon="-1.83946">
        <ele>6.8</ele>
        <time>2013-09-22T08:16:20Z</time>
      </trkpt>
      <trkpt lat="47.295" lon="-1.83945">
        <ele>6.1</ele>
        <time>2013-09-22T08:16:26Z</time>
      </trkpt>
      <trkpt lat="47.29489" lon="-1.83941">
        <ele>6.1</ele>
        <time>2013-09-22T08:16:32Z</time>
      </trkpt>
      <trkpt lat="47.2948" lon="-1.83937">
        <ele>6.3</ele>
        <time>2013-09-22T08:16:37Z</time>
      </trkpt>
      <trkpt lat="47.29471" lon="-1.83933">
        <ele>6.7</ele>
        <time>2013-09-22T08:16:43Z</time>
      </trkpt>
      <trkpt lat="47.29461" lon="-1.83936">
        <ele>6.9</ele>
        <time>2013-09-22T08:16:48Z</time>
      </trkpt>
      <trkpt lat="47.29452" lon="-1.83933">
        <ele>7</ele>
        <time>2013-09-22T08:16:54Z</time>
      </trkpt>
      <trkpt lat="47.29444" lon="-1.83924">
        <ele>6.9</ele>
        <time>2013-09-22T08:17:06Z</time>
      </trkpt>
      <trkpt lat="47.2944" lon="-1.83913">
        <ele>8</ele>
        <time>2013-09-22T08:17:46Z</time>
      </trkpt>
      <trkpt lat="47.29434" lon="-1.839">
        <ele>8.3</ele>
        <time>2013-09-22T08:17:51Z</time>
      </trkpt>
      <trkpt lat="47.29428" lon="-1.83889">
        <ele>8.7</ele>
        <time>2013-09-22T08:17:56Z</time>
      </trkpt>
      <trkpt lat="47.29421" lon="-1.83877">
        <ele>8.9</ele>
        <time>2013-09-22T08:18:00Z</time>
      </trkpt>
      <trkpt lat="47.29412" lon="-1.83867">
        <ele>9.3</ele>
        <time>2013-09-22T08:18:04Z</time>
      </trkpt>
      <trkpt lat="47.29404" lon="-1.83857">
        <ele>9.9</ele>
        <time>2013-09-22T08:18:08Z</time>
      </trkpt>
      <trkpt lat="47.29397" lon="-1.83847">
        <ele>10.4</ele>
        <time>2013-09-22T08:18:11Z</time>
      </trkpt>
      <trkpt lat="47.29389" lon="-1.83834">
        <ele>10.8</ele>
        <time>2013-09-22T08:18:15Z</time>
      </trkpt>
      <trkpt lat="47.29382" lon="-1.83824">
        <ele>10.9</ele>
        <time>2013-09-22T08:18:18Z</time>
      </trkpt>
      <trkpt lat="47.29376" lon="-1.83814">
        <ele>11.2</ele>
        <time>2013-09-22T08:18:21Z</time>
      </trkpt>
      <trkpt lat="47.29369" lon="-1.83803">
        <ele>11.4</ele>
        <time>2013-09-22T08:18:24Z</time>
      </trkpt>
      <trkpt lat="47.29361" lon="-1.83789">
        <ele>11.8</ele>
        <time>2013-09-22T08:18:28Z</time>
      </trkpt>
      <trkpt lat="47.29355" lon="-1.83778">
        <ele>12.1</ele>
        <time>2013-09-22T08:18:31Z</time>
      </trkpt>
      <trkpt lat="47.29349" lon="-1.83766">
        <ele>12.5</ele>
        <time>2013-09-22T08:18:34Z</time>
      </trkpt>
      <trkpt lat="47.2934" lon="-1.83751">
        <ele>12.8</ele>
        <time>2013-09-22T08:18:37Z</time>
      </trkpt>
      <trkpt lat="47.29332" lon="-1.83741">
        <ele>12.9</ele>
        <time>2013-09-22T08:18:39Z</time>
      </trkpt>
      <trkpt lat="47.29323" lon="-1.83728">
        <ele>13.1</ele>
        <time>2013-09-22T08:18:42Z</time>
      </trkpt>
      <trkpt lat="47.29313" lon="-1.83713">
        <ele>13.6</ele>
        <time>2013-09-22T08:18:45Z</time>
      </trkpt>
      <trkpt lat="47.29306" lon="-1.83701">
        <ele>13.8</ele>
        <time>2013-09-22T08:18:47Z</time>
      </trkpt>
      <trkpt lat="47.293" lon="-1.83688">
        <ele>13.7</ele>
        <time>2013-09-22T08:18:50Z</time>
      </trkpt>
      <trkpt lat="47.29293" lon="-1.83675">
        <ele>13.2</ele>
        <time>2013-09-22T08:18:53Z</time>
      </trkpt>
      <trkpt lat="47.29287" lon="-1.83665">
        <ele>13.8</ele>
        <time>2013-09-22T08:18:55Z</time>
      </trkpt>
      <trkpt lat="47.29279" lon="-1.83654">
        <ele>14.3</ele>
        <time>2013-09-22T08:18:57Z</time>
      </trkpt>
      <trkpt lat="47.29268" lon="-1.83642">
        <ele>14.1</ele>
        <time>2013-09-22T08:18:59Z</time>
      </trkpt>
      <trkpt lat="47.29258" lon="-1.83629">
        <ele>13.4</ele>
        <time>2013-09-22T08:19:01Z</time>
      </trkpt>
      <trkpt lat="47.29246" lon="-1.83617">
        <ele>12.3</ele>
        <time>2013-09-22T08:19:03Z</time>
      </trkpt>
      <trkpt lat="47.29235" lon="-1.83604">
        <ele>11.6</ele>
        <time>2013-09-22T08:19:05Z</time>
      </trkpt>
      <trkpt lat="47.29223" lon="-1.83589">
        <ele>11.1</ele>
        <time>2013-09-22T08:19:07Z</time>
      </trkpt>
      <trkpt lat="47.29215" lon="-1.8357">
        <ele>10.6</ele>
        <time>2013-09-22T08:19:09Z</time>
      </trkpt>
      <trkpt lat="47.29211" lon="-1.8355">
        <ele>9.7</ele>
        <time>2013-09-22T08:19:11Z</time>
      </trkpt>
      <trkpt lat="47.29207" lon="-1.83529">
        <ele>9.1</ele>
        <time>2013-09-22T08:19:13Z</time>
      </trkpt>
      <trkpt lat="47.29206" lon="-1.83507">
        <ele>8.5</ele>
        <time>2013-09-22T08:19:15Z</time>
      </trkpt>
      <trkpt lat="47.29205" lon="-1.83485">
        <ele>8.2</ele>
        <time>2013-09-22T08:19:17Z</time>
      </trkpt>
      <trkpt lat="47.29204" lon="-1.83464">
        <ele>7.8</ele>
        <time>2013-09-22T08:19:19Z</time>
      </trkpt>
      <trkpt lat="47.292" lon="-1.83443">
        <ele>8.1</ele>
        <time>2013-09-22T08:19:21Z</time>
      </trkpt>
      <trkpt lat="47.29193" lon="-1.83425">
        <ele>9.6</ele>
        <time>2013-09-22T08:19:23Z</time>
      </trkpt>
      <trkpt lat="47.29186" lon="-1.83407">
        <ele>11.1</ele>
        <time>2013-09-22T08:19:25Z</time>
      </trkpt>
      <trkpt lat="47.29178" lon="-1.8339">
        <ele>12.1</ele>
        <time>2013-09-22T08:19:27Z</time>
      </trkpt>
      <trkpt lat="47.29169" lon="-1.83373">
        <ele>12.5</ele>
        <time>2013-09-22T08:19:29Z</time>
      </trkpt>
      <trkpt lat="47.29161" lon="-1.83357">
        <ele>12.6</ele>
        <time>2013-09-22T08:19:31Z</time>
      </trkpt>
      <trkpt lat="47.29154" lon="-1.83343">
        <ele>12.2</ele>
        <time>2013-09-22T08:19:33Z</time>
      </trkpt>
      <trkpt lat="47.29147" lon="-1.83328">
        <ele>12.2</ele>
        <time>2013-09-22T08:19:35Z</time>
      </trkpt>
      <trkpt lat="47.2914" lon="-1.83311">
        <ele>11.8</ele>
        <time>2013-09-22T08:19:37Z</time>
      </trkpt>
      <trkpt lat="47.29132" lon="-1.83294">
        <ele>11.2</ele>
        <time>2013-09-22T08:19:39Z</time>
      </trkpt>
      <trkpt lat="47.29124" lon="-1.83277">
        <ele>11</ele>
        <time>2013-09-22T08:19:41Z</time>
      </trkpt>
      <trkpt lat="47.29117" lon="-1.8326">
        <ele>10.7</ele>
        <time>2013-09-22T08:19:43Z</time>
      </trkpt>
      <trkpt lat="47.29112" lon="-1.83243">
        <ele>10.4</ele>
        <time>2013-09-22T08:19:45Z</time>
      </trkpt>
      <trkpt lat="47.29106" lon="-1.83225">
        <ele>9.8</ele>
        <time>2013-09-22T08:19:47Z</time>
      </trkpt>
      <trkpt lat="47.29101" lon="-1.83208">
        <ele>9.4</ele>
        <time>2013-09-22T08:19:49Z</time>
      </trkpt>
      <trkpt lat="47.29095" lon="-1.83192">
        <ele>9.1</ele>
        <time>2013-09-22T08:19:51Z</time>
      </trkpt>
      <trkpt lat="47.29089" lon="-1.83175">
        <ele>9.1</ele>
        <time>2013-09-22T08:19:53Z</time>
      </trkpt>
      <trkpt lat="47.29083" lon="-1.83157">
        <ele>9.1</ele>
        <time>2013-09-22T08:19:55Z</time>
      </trkpt>
      <trkpt lat="47.29079" lon="-1.83138">
        <ele>9.1</ele>
        <time>2013-09-22T08:19:57Z</time>
      </trkpt>
      <trkpt lat="47.29077" lon="-1.8312">
        <ele>9</ele>
        <time>2013-09-22T08:19:59Z</time>
      </trkpt>
      <trkpt lat="47.29076" lon="-1.83101">
        <ele>8.8</ele>
        <time>2013-09-22T08:20:01Z</time>
      </trkpt>
      <trkpt lat="47.29075" lon="-1.83084">
        <ele>8.5</ele>
        <time>2013-09-22T08:20:03Z</time>
      </trkpt>
      <trkpt lat="47.29074" lon="-1.83068">
        <ele>8.2</ele>
        <time>2013-09-22T08:20:05Z</time>
      </trkpt>
      <trkpt lat="47.29073" lon="-1.83053">
        <ele>7.7</ele>
        <time>2013-09-22T08:20:07Z</time>
      </trkpt>
      <trkpt lat="47.29072" lon="-1.83037">
        <ele>7.3</ele>
        <time>2013-09-22T08:20:09Z</time>
      </trkpt>
      <trkpt lat="47.29071" lon="-1.83022">
        <ele>6.3</ele>
        <time>2013-09-22T08:20:11Z</time>
      </trkpt>
      <trkpt lat="47.29069" lon="-1.83006">
        <ele>5.4</ele>
        <time>2013-09-22T08:20:13Z</time>
      </trkpt>
      <trkpt lat="47.29067" lon="-1.82989">
        <ele>5.1</ele>
        <time>2013-09-22T08:20:15Z</time>
      </trkpt>
      <trkpt lat="47.29065" lon="-1.82972">
        <ele>5.4</ele>
        <time>2013-09-22T08:20:17Z</time>
      </trkpt>
      <trkpt lat="47.29059" lon="-1.82953">
        <ele>5.9</ele>
        <time>2013-09-22T08:20:19Z</time>
      </trkpt>
      <trkpt lat="47.29052" lon="-1.82936">
        <ele>6.6</ele>
        <time>2013-09-22T08:20:21Z</time>
      </trkpt>
      <trkpt lat="47.29045" lon="-1.82919">
        <ele>6.9</ele>
        <time>2013-09-22T08:20:23Z</time>
      </trkpt>
      <trkpt lat="47.29039" lon="-1.82904">
        <ele>7.6</ele>
        <time>2013-09-22T08:20:25Z</time>
      </trkpt>
      <trkpt lat="47.29034" lon="-1.82891">
        <ele>8.2</ele>
        <time>2013-09-22T08:20:27Z</time>
      </trkpt>
      <trkpt lat="47.29029" lon="-1.82877">
        <ele>9.2</ele>
        <time>2013-09-22T08:20:29Z</time>
      </trkpt>
      <trkpt lat="47.29023" lon="-1.8286">
        <ele>9.2</ele>
        <time>2013-09-22T08:20:32Z</time>
      </trkpt>
      <trkpt lat="47.29019" lon="-1.82848">
        <ele>9.4</ele>
        <time>2013-09-22T08:20:38Z</time>
      </trkpt>
      <trkpt lat="47.29012" lon="-1.82839">
        <ele>9.6</ele>
        <time>2013-09-22T08:20:41Z</time>
      </trkpt>
      <trkpt lat="47.29001" lon="-1.82834">
        <ele>10.3</ele>
        <time>2013-09-22T08:20:44Z</time>
      </trkpt>
      <trkpt lat="47.28991" lon="-1.82834">
        <ele>10.5</ele>
        <time>2013-09-22T08:20:46Z</time>
      </trkpt>
      <trkpt lat="47.28982" lon="-1.82827">
        <ele>8.9</ele>
        <time>2013-09-22T08:20:48Z</time>
      </trkpt>
      <trkpt lat="47.28974" lon="-1.82814">
        <ele>7.2</ele>
        <time>2013-09-22T08:20:50Z</time>
      </trkpt>
      <trkpt lat="47.28965" lon="-1.82799">
        <ele>5.9</ele>
        <time>2013-09-22T08:20:52Z</time>
      </trkpt>
      <trkpt lat="47.28957" lon="-1.82784">
        <ele>4.5</ele>
        <time>2013-09-22T08:20:54Z</time>
      </trkpt>
      <trkpt lat="47.28947" lon="-1.8277">
        <ele>3.5</ele>
        <time>2013-09-22T08:20:56Z</time>
      </trkpt>
      <trkpt lat="47.28937" lon="-1.82757">
        <ele>4</ele>
        <time>2013-09-22T08:20:58Z</time>
      </trkpt>
      <trkpt lat="47.28926" lon="-1.82745">
        <ele>5</ele>
        <time>2013-09-22T08:21:00Z</time>
      </trkpt>
      <trkpt lat="47.28917" lon="-1.82732">
        <ele>6</ele>
        <time>2013-09-22T08:21:02Z</time>
      </trkpt>
      <trkpt lat="47.28907" lon="-1.82718">
        <ele>7.2</ele>
        <time>2013-09-22T08:21:04Z</time>
      </trkpt>
      <trkpt lat="47.28898" lon="-1.82703">
        <ele>8</ele>
        <time>2013-09-22T08:21:06Z</time>
      </trkpt>
      <trkpt lat="47.2889" lon="-1.82687">
        <ele>8.5</ele>
        <time>2013-09-22T08:21:08Z</time>
      </trkpt>
      <trkpt lat="47.28884" lon="-1.82672">
        <ele>9.4</ele>
        <time>2013-09-22T08:21:10Z</time>
      </trkpt>
      <trkpt lat="47.28878" lon="-1.82654">
        <ele>9.8</ele>
        <time>2013-09-22T08:21:12Z</time>
      </trkpt>
      <trkpt lat="47.28873" lon="-1.82637">
        <ele>9.9</ele>
        <time>2013-09-22T08:21:14Z</time>
      </trkpt>
      <trkpt lat="47.28868" lon="-1.82622">
        <ele>10.4</ele>
        <time>2013-09-22T08:21:16Z</time>
      </trkpt>
      <trkpt lat="47.28863" lon="-1.82606">
        <ele>10.1</ele>
        <time>2013-09-22T08:21:18Z</time>
      </trkpt>
      <trkpt lat="47.2886" lon="-1.82592">
        <ele>10.1</ele>
        <time>2013-09-22T08:21:20Z</time>
      </trkpt>
      <trkpt lat="47.28856" lon="-1.82576">
        <ele>10.3</ele>
        <time>2013-09-22T08:21:22Z</time>
      </trkpt>
      <trkpt lat="47.28853" lon="-1.8256">
        <ele>10.5</ele>
        <time>2013-09-22T08:21:24Z</time>
      </trkpt>
      <trkpt lat="47.2885" lon="-1.82545">
        <ele>10.2</ele>
        <time>2013-09-22T08:21:26Z</time>
      </trkpt>
      <trkpt lat="47.28845" lon="-1.82527">
        <ele>10.7</ele>
        <time>2013-09-22T08:21:29Z</time>
      </trkpt>
      <trkpt lat="47.28841" lon="-1.82514">
        <ele>10.7</ele>
        <time>2013-09-22T08:21:31Z</time>
      </trkpt>
      <trkpt lat="47.28836" lon="-1.825">
        <ele>10.8</ele>
        <time>2013-09-22T08:21:33Z</time>
      </trkpt>
      <trkpt lat="47.28833" lon="-1.82483">
        <ele>10.4</ele>
        <time>2013-09-22T08:21:35Z</time>
      </trkpt>
      <trkpt lat="47.28831" lon="-1.82466">
        <ele>9.9</ele>
        <time>2013-09-22T08:21:37Z</time>
      </trkpt>
      <trkpt lat="47.2883" lon="-1.82451">
        <ele>10.7</ele>
        <time>2013-09-22T08:21:39Z</time>
      </trkpt>
      <trkpt lat="47.28828" lon="-1.82437">
        <ele>10.6</ele>
        <time>2013-09-22T08:21:41Z</time>
      </trkpt>
      <trkpt lat="47.28825" lon="-1.82419">
        <ele>10.2</ele>
        <time>2013-09-22T08:21:44Z</time>
      </trkpt>
      <trkpt lat="47.28823" lon="-1.82406">
        <ele>10</ele>
        <time>2013-09-22T08:21:46Z</time>
      </trkpt>
      <trkpt lat="47.2882" lon="-1.82394">
        <ele>10.4</ele>
        <time>2013-09-22T08:21:48Z</time>
      </trkpt>
      <trkpt lat="47.28817" lon="-1.82381">
        <ele>10.6</ele>
        <time>2013-09-22T08:21:50Z</time>
      </trkpt>
      <trkpt lat="47.28814" lon="-1.82367">
        <ele>10.4</ele>
        <time>2013-09-22T08:21:52Z</time>
      </trkpt>
      <trkpt lat="47.28812" lon="-1.82353">
        <ele>10.2</ele>
        <time>2013-09-22T08:21:54Z</time>
      </trkpt>
      <trkpt lat="47.28808" lon="-1.82334">
        <ele>8.9</ele>
        <time>2013-09-22T08:21:57Z</time>
      </trkpt>
      <trkpt lat="47.28805" lon="-1.82322">
        <ele>8.9</ele>
        <time>2013-09-22T08:21:59Z</time>
      </trkpt>
      <trkpt lat="47.288" lon="-1.82305">
        <ele>9</ele>
        <time>2013-09-22T08:22:02Z</time>
      </trkpt>
      <trkpt lat="47.28788" lon="-1.82299">
        <ele>9</ele>
        <time>2013-09-22T08:22:05Z</time>
      </trkpt>
      <trkpt lat="47.28777" lon="-1.82301">
        <ele>8.8</ele>
        <time>2013-09-22T08:22:07Z</time>
      </trkpt>
      <trkpt lat="47.28766" lon="-1.82308">
        <ele>8.3</ele>
        <time>2013-09-22T08:22:09Z</time>
      </trkpt>
      <trkpt lat="47.28756" lon="-1.82318">
        <ele>7.5</ele>
        <time>2013-09-22T08:22:11Z</time>
      </trkpt>
      <trkpt lat="47.28747" lon="-1.82328">
        <ele>7</ele>
        <time>2013-09-22T08:22:13Z</time>
      </trkpt>
      <trkpt lat="47.28736" lon="-1.82327">
        <ele>6.4</ele>
        <time>2013-09-22T08:22:16Z</time>
      </trkpt>
      <trkpt lat="47.28732" lon="-1.82314">
        <ele>5.7</ele>
        <time>2013-09-22T08:22:18Z</time>
      </trkpt>
      <trkpt lat="47.28727" lon="-1.82297">
        <ele>4.3</ele>
        <time>2013-09-22T08:22:20Z</time>
      </trkpt>
      <trkpt lat="47.28723" lon="-1.82279">
        <ele>4.2</ele>
        <time>2013-09-22T08:22:22Z</time>
      </trkpt>
      <trkpt lat="47.2872" lon="-1.82261">
        <ele>4.7</ele>
        <time>2013-09-22T08:22:24Z</time>
      </trkpt>
      <trkpt lat="47.28717" lon="-1.82245">
        <ele>4.3</ele>
        <time>2013-09-22T08:22:26Z</time>
      </trkpt>
      <trkpt lat="47.28713" lon="-1.82227">
        <ele>3.7</ele>
        <time>2013-09-22T08:22:28Z</time>
      </trkpt>
      <trkpt lat="47.28709" lon="-1.8221">
        <ele>2.7</ele>
        <time>2013-09-22T08:22:30Z</time>
      </trkpt>
      <trkpt lat="47.28705" lon="-1.82191">
        <ele>2.8</ele>
        <time>2013-09-22T08:22:32Z</time>
      </trkpt>
      <trkpt lat="47.28703" lon="-1.82173">
        <ele>3.5</ele>
        <time>2013-09-22T08:22:34Z</time>
      </trkpt>
      <trkpt lat="47.28702" lon="-1.82153">
        <ele>4.2</ele>
        <time>2013-09-22T08:22:36Z</time>
      </trkpt>
      <trkpt lat="47.28701" lon="-1.82136">
        <ele>4.7</ele>
        <time>2013-09-22T08:22:38Z</time>
      </trkpt>
      <trkpt lat="47.28701" lon="-1.82121">
        <ele>5.7</ele>
        <time>2013-09-22T08:22:40Z</time>
      </trkpt>
      <trkpt lat="47.28699" lon="-1.82105">
        <ele>5.9</ele>
        <time>2013-09-22T08:22:42Z</time>
      </trkpt>
      <trkpt lat="47.28698" lon="-1.82088">
        <ele>5.7</ele>
        <time>2013-09-22T08:22:44Z</time>
      </trkpt>
      <trkpt lat="47.28696" lon="-1.82067">
        <ele>5.4</ele>
        <time>2013-09-22T08:22:46Z</time>
      </trkpt>
      <trkpt lat="47.28694" lon="-1.82049">
        <ele>5.8</ele>
        <time>2013-09-22T08:22:48Z</time>
      </trkpt>
      <trkpt lat="47.28693" lon="-1.82035">
        <ele>6.2</ele>
        <time>2013-09-22T08:22:50Z</time>
      </trkpt>
      <trkpt lat="47.28692" lon="-1.82021">
        <ele>6.7</ele>
        <time>2013-09-22T08:22:52Z</time>
      </trkpt>
      <trkpt lat="47.28691" lon="-1.82008">
        <ele>6.9</ele>
        <time>2013-09-22T08:22:54Z</time>
      </trkpt>
      <trkpt lat="47.28689" lon="-1.81993">
        <ele>7.9</ele>
        <time>2013-09-22T08:22:56Z</time>
      </trkpt>
      <trkpt lat="47.28681" lon="-1.81976">
        <ele>8</ele>
        <time>2013-09-22T08:22:59Z</time>
      </trkpt>
      <trkpt lat="47.28672" lon="-1.81967">
        <ele>6.9</ele>
        <time>2013-09-22T08:23:01Z</time>
      </trkpt>
      <trkpt lat="47.28661" lon="-1.81962">
        <ele>6.2</ele>
        <time>2013-09-22T08:23:03Z</time>
      </trkpt>
      <trkpt lat="47.28648" lon="-1.81959">
        <ele>5.8</ele>
        <time>2013-09-22T08:23:05Z</time>
      </trkpt>
      <trkpt lat="47.28635" lon="-1.81955">
        <ele>6.3</ele>
        <time>2013-09-22T08:23:07Z</time>
      </trkpt>
      <trkpt lat="47.28623" lon="-1.81952">
        <ele>5.7</ele>
        <time>2013-09-22T08:23:09Z</time>
      </trkpt>
      <trkpt lat="47.28611" lon="-1.81949">
        <ele>5.1</ele>
        <time>2013-09-22T08:23:11Z</time>
      </trkpt>
      <trkpt lat="47.28599" lon="-1.81946">
        <ele>5.1</ele>
        <time>2013-09-22T08:23:13Z</time>
      </trkpt>
      <trkpt lat="47.28587" lon="-1.81943">
        <ele>6.3</ele>
        <time>2013-09-22T08:23:15Z</time>
      </trkpt>
      <trkpt lat="47.28575" lon="-1.81941">
        <ele>7.6</ele>
        <time>2013-09-22T08:23:17Z</time>
      </trkpt>
      <trkpt lat="47.28565" lon="-1.81939">
        <ele>8</ele>
        <time>2013-09-22T08:23:19Z</time>
      </trkpt>
      <trkpt lat="47.28557" lon="-1.81927">
        <ele>8</ele>
        <time>2013-09-22T08:23:22Z</time>
      </trkpt>
      <trkpt lat="47.28562" lon="-1.81912">
        <ele>7.8</ele>
        <time>2013-09-22T08:23:25Z</time>
      </trkpt>
      <trkpt lat="47.28568" lon="-1.81901">
        <ele>6.9</ele>
        <time>2013-09-22T08:23:27Z</time>
      </trkpt>
      <trkpt lat="47.28577" lon="-1.81889">
        <ele>5.6</ele>
        <time>2013-09-22T08:23:29Z</time>
      </trkpt>
      <trkpt lat="47.28587" lon="-1.81878">
        <ele>4.5</ele>
        <time>2013-09-22T08:23:31Z</time>
      </trkpt>
      <trkpt lat="47.28596" lon="-1.81869">
        <ele>4.1</ele>
        <time>2013-09-22T08:23:33Z</time>
      </trkpt>
      <trkpt lat="47.28605" lon="-1.81857">
        <ele>4.2</ele>
        <time>2013-09-22T08:23:35Z</time>
      </trkpt>
      <trkpt lat="47.28614" lon="-1.81845">
        <ele>3.9</ele>
        <time>2013-09-22T08:23:37Z</time>
      </trkpt>
      <trkpt lat="47.28622" lon="-1.81835">
        <ele>3.6</ele>
        <time>2013-09-22T08:23:39Z</time>
      </trkpt>
      <trkpt lat="47.28631" lon="-1.81823">
        <ele>3.5</ele>
        <time>2013-09-22T08:23:41Z</time>
      </trkpt>
      <trkpt lat="47.2864" lon="-1.81811">
        <ele>4.2</ele>
        <time>2013-09-22T08:23:43Z</time>
      </trkpt>
      <trkpt lat="47.28648" lon="-1.818">
        <ele>4.6</ele>
        <time>2013-09-22T08:23:45Z</time>
      </trkpt>
      <trkpt lat="47.28655" lon="-1.81791">
        <ele>4.4</ele>
        <time>2013-09-22T08:23:47Z</time>
      </trkpt>
      <trkpt lat="47.28662" lon="-1.81781">
        <ele>4.3</ele>
        <time>2013-09-22T08:23:49Z</time>
      </trkpt>
      <trkpt lat="47.28672" lon="-1.8177">
        <ele>4.6</ele>
        <time>2013-09-22T08:23:51Z</time>
      </trkpt>
      <trkpt lat="47.2868" lon="-1.81759">
        <ele>4.5</ele>
        <time>2013-09-22T08:23:53Z</time>
      </trkpt>
      <trkpt lat="47.28689" lon="-1.81749">
        <ele>4.1</ele>
        <time>2013-09-22T08:23:55Z</time>
      </trkpt>
      <trkpt lat="47.28699" lon="-1.8174">
        <ele>4.3</ele>
        <time>2013-09-22T08:23:57Z</time>
      </trkpt>
      <trkpt lat="47.28708" lon="-1.81733">
        <ele>4.5</ele>
        <time>2013-09-22T08:23:59Z</time>
      </trkpt>
      <trkpt lat="47.28718" lon="-1.81723">
        <ele>4.6</ele>
        <time>2013-09-22T08:24:01Z</time>
      </trkpt>
      <trkpt lat="47.28729" lon="-1.8171">
        <ele>5.5</ele>
        <time>2013-09-22T08:24:03Z</time>
      </trkpt>
      <trkpt lat="47.28737" lon="-1.81698">
        <ele>6.8</ele>
        <time>2013-09-22T08:24:05Z</time>
      </trkpt>
      <trkpt lat="47.28744" lon="-1.81685">
        <ele>7.7</ele>
        <time>2013-09-22T08:24:07Z</time>
      </trkpt>
      <trkpt lat="47.28752" lon="-1.81672">
        <ele>8.3</ele>
        <time>2013-09-22T08:24:09Z</time>
      </trkpt>
      <trkpt lat="47.28759" lon="-1.81659">
        <ele>8.7</ele>
        <time>2013-09-22T08:24:11Z</time>
      </trkpt>
      <trkpt lat="47.28765" lon="-1.81646">
        <ele>8.8</ele>
        <time>2013-09-22T08:24:13Z</time>
      </trkpt>
      <trkpt lat="47.28772" lon="-1.81634">
        <ele>8.6</ele>
        <time>2013-09-22T08:24:15Z</time>
      </trkpt>
      <trkpt lat="47.2878" lon="-1.81621">
        <ele>8.5</ele>
        <time>2013-09-22T08:24:18Z</time>
      </trkpt>
      <trkpt lat="47.28788" lon="-1.81608">
        <ele>8.1</ele>
        <time>2013-09-22T08:24:21Z</time>
      </trkpt>
      <trkpt lat="47.28786" lon="-1.81594">
        <ele>7.8</ele>
        <time>2013-09-22T08:24:24Z</time>
      </trkpt>
      <trkpt lat="47.28779" lon="-1.8158">
        <ele>7.7</ele>
        <time>2013-09-22T08:24:27Z</time>
      </trkpt>
      <trkpt lat="47.28771" lon="-1.81567">
        <ele>8.4</ele>
        <time>2013-09-22T08:24:29Z</time>
      </trkpt>
      <trkpt lat="47.28763" lon="-1.81553">
        <ele>8.5</ele>
        <time>2013-09-22T08:24:31Z</time>
      </trkpt>
      <trkpt lat="47.28753" lon="-1.81535">
        <ele>7.7</ele>
        <time>2013-09-22T08:24:33Z</time>
      </trkpt>
      <trkpt lat="47.28746" lon="-1.8152">
        <ele>7.2</ele>
        <time>2013-09-22T08:24:35Z</time>
      </trkpt>
      <trkpt lat="47.28748" lon="-1.81506">
        <ele>6.2</ele>
        <time>2013-09-22T08:24:37Z</time>
      </trkpt>
      <trkpt lat="47.28756" lon="-1.81494">
        <ele>6.8</ele>
        <time>2013-09-22T08:24:40Z</time>
      </trkpt>
      <trkpt lat="47.28765" lon="-1.81487">
        <ele>5.9</ele>
        <time>2013-09-22T08:24:42Z</time>
      </trkpt>
      <trkpt lat="47.28774" lon="-1.8148">
        <ele>4.8</ele>
        <time>2013-09-22T08:24:44Z</time>
      </trkpt>
      <trkpt lat="47.28784" lon="-1.81473">
        <ele>4.1</ele>
        <time>2013-09-22T08:24:46Z</time>
      </trkpt>
      <trkpt lat="47.28796" lon="-1.81466">
        <ele>4.7</ele>
        <time>2013-09-22T08:24:48Z</time>
      </trkpt>
      <trkpt lat="47.28807" lon="-1.81459">
        <ele>5.3</ele>
        <time>2013-09-22T08:24:50Z</time>
      </trkpt>
      <trkpt lat="47.28818" lon="-1.81453">
        <ele>6.3</ele>
        <time>2013-09-22T08:24:52Z</time>
      </trkpt>
      <trkpt lat="47.28827" lon="-1.81448">
        <ele>6.4</ele>
        <time>2013-09-22T08:24:55Z</time>
      </trkpt>
      <trkpt lat="47.28835" lon="-1.81439">
        <ele>6.6</ele>
        <time>2013-09-22T08:25:00Z</time>
      </trkpt>
      <trkpt lat="47.28846" lon="-1.81435">
        <ele>6.6</ele>
        <time>2013-09-22T08:25:04Z</time>
      </trkpt>
      <trkpt lat="47.28854" lon="-1.81429">
        <ele>6.5</ele>
        <time>2013-09-22T08:25:06Z</time>
      </trkpt>
      <trkpt lat="47.28865" lon="-1.81419">
        <ele>5.9</ele>
        <time>2013-09-22T08:25:09Z</time>
      </trkpt>
      <trkpt lat="47.28874" lon="-1.81413">
        <ele>5.7</ele>
        <time>2013-09-22T08:25:11Z</time>
      </trkpt>
      <trkpt lat="47.28885" lon="-1.81404">
        <ele>5.7</ele>
        <time>2013-09-22T08:25:14Z</time>
      </trkpt>
      <trkpt lat="47.28897" lon="-1.81395">
        <ele>5.9</ele>
        <time>2013-09-22T08:25:17Z</time>
      </trkpt>
      <trkpt lat="47.28907" lon="-1.81388">
        <ele>6</ele>
        <time>2013-09-22T08:25:20Z</time>
      </trkpt>
      <trkpt lat="47.28915" lon="-1.81382">
        <ele>6.1</ele>
        <time>2013-09-22T08:25:23Z</time>
      </trkpt>
      <trkpt lat="47.28925" lon="-1.81375">
        <ele>6.3</ele>
        <time>2013-09-22T08:25:26Z</time>
      </trkpt>
      <trkpt lat="47.28934" lon="-1.81369">
        <ele>6.6</ele>
        <time>2013-09-22T08:25:29Z</time>
      </trkpt>
      <trkpt lat="47.28945" lon="-1.81361">
        <ele>6.8</ele>
        <time>2013-09-22T08:25:32Z</time>
      </trkpt>
      <trkpt lat="47.28954" lon="-1.81353">
        <ele>7.1</ele>
        <time>2013-09-22T08:25:35Z</time>
      </trkpt>
      <trkpt lat="47.28958" lon="-1.81338">
        <ele>7.3</ele>
        <time>2013-09-22T08:25:38Z</time>
      </trkpt>
      <trkpt lat="47.28959" lon="-1.81324">
        <ele>7.7</ele>
        <time>2013-09-22T08:25:40Z</time>
      </trkpt>
      <trkpt lat="47.28959" lon="-1.81309">
        <ele>8</ele>
        <time>2013-09-22T08:25:42Z</time>
      </trkpt>
      <trkpt lat="47.2896" lon="-1.81295">
        <ele>8.3</ele>
        <time>2013-09-22T08:25:44Z</time>
      </trkpt>
      <trkpt lat="47.2896" lon="-1.81277">
        <ele>8.3</ele>
        <time>2013-09-22T08:25:47Z</time>
      </trkpt>
      <trkpt lat="47.28961" lon="-1.81259">
        <ele>8.3</ele>
        <time>2013-09-22T08:25:50Z</time>
      </trkpt>
      <trkpt lat="47.28962" lon="-1.81244">
        <ele>8.2</ele>
        <time>2013-09-22T08:25:52Z</time>
      </trkpt>
      <trkpt lat="47.28964" lon="-1.81226">
        <ele>8.2</ele>
        <time>2013-09-22T08:25:55Z</time>
      </trkpt>
      <trkpt lat="47.28967" lon="-1.81209">
        <ele>8.2</ele>
        <time>2013-09-22T08:25:58Z</time>
      </trkpt>
      <trkpt lat="47.28971" lon="-1.81191">
        <ele>8.6</ele>
        <time>2013-09-22T08:26:01Z</time>
      </trkpt>
      <trkpt lat="47.28974" lon="-1.81176">
        <ele>8.5</ele>
        <time>2013-09-22T08:26:04Z</time>
      </trkpt>
      <trkpt lat="47.28978" lon="-1.81162">
        <ele>8.5</ele>
        <time>2013-09-22T08:26:06Z</time>
      </trkpt>
      <trkpt lat="47.28981" lon="-1.8115">
        <ele>8.6</ele>
        <time>2013-09-22T08:26:08Z</time>
      </trkpt>
      <trkpt lat="47.28986" lon="-1.81131">
        <ele>8.7</ele>
        <time>2013-09-22T08:26:11Z</time>
      </trkpt>
      <trkpt lat="47.2899" lon="-1.81115">
        <ele>8</ele>
        <time>2013-09-22T08:26:13Z</time>
      </trkpt>
      <trkpt lat="47.28994" lon="-1.81101">
        <ele>8.5</ele>
        <time>2013-09-22T08:26:15Z</time>
      </trkpt>
      <trkpt lat="47.28999" lon="-1.81085">
        <ele>9.2</ele>
        <time>2013-09-22T08:26:18Z</time>
      </trkpt>
      <trkpt lat="47.29004" lon="-1.81066">
        <ele>11.4</ele>
        <time>2013-09-22T08:26:21Z</time>
      </trkpt>
      <trkpt lat="47.29011" lon="-1.81052">
        <ele>11.9</ele>
        <time>2013-09-22T08:26:24Z</time>
      </trkpt>
      <trkpt lat="47.29019" lon="-1.81038">
        <ele>11.5</ele>
        <time>2013-09-22T08:26:27Z</time>
      </trkpt>
      <trkpt lat="47.29028" lon="-1.81025">
        <ele>11.5</ele>
        <time>2013-09-22T08:26:30Z</time>
      </trkpt>
      <trkpt lat="47.29036" lon="-1.81015">
        <ele>11.4</ele>
        <time>2013-09-22T08:26:33Z</time>
      </trkpt>
      <trkpt lat="47.29047" lon="-1.81005">
        <ele>11.3</ele>
        <time>2013-09-22T08:26:36Z</time>
      </trkpt>
      <trkpt lat="47.29056" lon="-1.80996">
        <ele>11.2</ele>
        <time>2013-09-22T08:26:39Z</time>
      </trkpt>
      <trkpt lat="47.29064" lon="-1.80987">
        <ele>11</ele>
        <time>2013-09-22T08:26:42Z</time>
      </trkpt>
      <trkpt lat="47.29068" lon="-1.80972">
        <ele>11.4</ele>
        <time>2013-09-22T08:26:45Z</time>
      </trkpt>
      <trkpt lat="47.29071" lon="-1.80957">
        <ele>12.2</ele>
        <time>2013-09-22T08:26:48Z</time>
      </trkpt>
      <trkpt lat="47.29081" lon="-1.8095">
        <ele>12.3</ele>
        <time>2013-09-22T08:26:52Z</time>
      </trkpt>
      <trkpt lat="47.29093" lon="-1.80947">
        <ele>12.3</ele>
        <time>2013-09-22T08:26:55Z</time>
      </trkpt>
      <trkpt lat="47.29103" lon="-1.80945">
        <ele>12.6</ele>
        <time>2013-09-22T08:26:58Z</time>
      </trkpt>
      <trkpt lat="47.29113" lon="-1.80954">
        <ele>12.9</ele>
        <time>2013-09-22T08:27:02Z</time>
      </trkpt>
      <trkpt lat="47.29119" lon="-1.80966">
        <ele>13.1</ele>
        <time>2013-09-22T08:27:05Z</time>
      </trkpt>
      <trkpt lat="47.2913" lon="-1.80975">
        <ele>13.4</ele>
        <time>2013-09-22T08:27:08Z</time>
      </trkpt>
      <trkpt lat="47.2914" lon="-1.80972">
        <ele>13.6</ele>
        <time>2013-09-22T08:27:11Z</time>
      </trkpt>
      <trkpt lat="47.2915" lon="-1.80967">
        <ele>13.6</ele>
        <time>2013-09-22T08:27:14Z</time>
      </trkpt>
      <trkpt lat="47.2916" lon="-1.8096">
        <ele>13.6</ele>
        <time>2013-09-22T08:27:17Z</time>
      </trkpt>
      <trkpt lat="47.29168" lon="-1.80953">
        <ele>13.7</ele>
        <time>2013-09-22T08:27:20Z</time>
      </trkpt>
      <trkpt lat="47.29177" lon="-1.80945">
        <ele>14</ele>
        <time>2013-09-22T08:27:24Z</time>
      </trkpt>
      <trkpt lat="47.29185" lon="-1.80936">
        <ele>14.4</ele>
        <time>2013-09-22T08:27:28Z</time>
      </trkpt>
      <trkpt lat="47.29194" lon="-1.80928">
        <ele>14.9</ele>
        <time>2013-09-22T08:27:32Z</time>
      </trkpt>
      <trkpt lat="47.29202" lon="-1.80921">
        <ele>15.4</ele>
        <time>2013-09-22T08:27:36Z</time>
      </trkpt>
      <trkpt lat="47.29211" lon="-1.80911">
        <ele>15.8</ele>
        <time>2013-09-22T08:27:40Z</time>
      </trkpt>
      <trkpt lat="47.29219" lon="-1.80904">
        <ele>16.1</ele>
        <time>2013-09-22T08:27:43Z</time>
      </trkpt>
      <trkpt lat="47.29228" lon="-1.80896">
        <ele>16.4</ele>
        <time>2013-09-22T08:27:48Z</time>
      </trkpt>
      <trkpt lat="47.29236" lon="-1.80887">
        <ele>16.8</ele>
        <time>2013-09-22T08:27:53Z</time>
      </trkpt>
      <trkpt lat="47.29245" lon="-1.80884">
        <ele>17.6</ele>
        <time>2013-09-22T08:27:58Z</time>
      </trkpt>
      <trkpt lat="47.29249" lon="-1.80898">
        <ele>20.4</ele>
        <time>2013-09-22T08:28:15Z</time>
      </trkpt>
      <trkpt lat="47.29253" lon="-1.80914">
        <ele>21.6</ele>
        <time>2013-09-22T08:28:22Z</time>
      </trkpt>
      <trkpt lat="47.29257" lon="-1.80928">
        <ele>22.2</ele>
        <time>2013-09-22T08:28:26Z</time>
      </trkpt>
      <trkpt lat="47.29264" lon="-1.80938">
        <ele>22.8</ele>
        <time>2013-09-22T08:28:30Z</time>
      </trkpt>
      <trkpt lat="47.29273" lon="-1.80933">
        <ele>23.3</ele>
        <time>2013-09-22T08:28:36Z</time>
      </trkpt>
      <trkpt lat="47.29281" lon="-1.80924">
        <ele>23.5</ele>
        <time>2013-09-22T08:28:42Z</time>
      </trkpt>
      <trkpt lat="47.2929" lon="-1.80917">
        <ele>24</ele>
        <time>2013-09-22T08:28:47Z</time>
      </trkpt>
      <trkpt lat="47.29298" lon="-1.8091">
        <ele>24.4</ele>
        <time>2013-09-22T08:28:51Z</time>
      </trkpt>
      <trkpt lat="47.29308" lon="-1.80905">
        <ele>25.1</ele>
        <time>2013-09-22T08:28:56Z</time>
      </trkpt>
      <trkpt lat="47.29317" lon="-1.80899">
        <ele>25.8</ele>
        <time>2013-09-22T08:29:01Z</time>
      </trkpt>
      <trkpt lat="47.29327" lon="-1.80895">
        <ele>26.3</ele>
        <time>2013-09-22T08:29:06Z</time>
      </trkpt>
      <trkpt lat="47.29336" lon="-1.80892">
        <ele>27.1</ele>
        <time>2013-09-22T08:29:13Z</time>
      </trkpt>
      <trkpt lat="47.29339" lon="-1.80878">
        <ele>29.8</ele>
        <time>2013-09-22T08:30:33Z</time>
      </trkpt>
      <trkpt lat="47.29339" lon="-1.80864">
        <ele>29.8</ele>
        <time>2013-09-22T08:30:36Z</time>
      </trkpt>
      <trkpt lat="47.2934" lon="-1.80848">
        <ele>30</ele>
        <time>2013-09-22T08:30:40Z</time>
      </trkpt>
      <trkpt lat="47.29346" lon="-1.80836">
        <ele>30.1</ele>
        <time>2013-09-22T08:30:44Z</time>
      </trkpt>
      <trkpt lat="47.29355" lon="-1.80829">
        <ele>30.5</ele>
        <time>2013-09-22T08:30:48Z</time>
      </trkpt>
      <trkpt lat="47.29366" lon="-1.80823">
        <ele>31.2</ele>
        <time>2013-09-22T08:30:52Z</time>
      </trkpt>
      <trkpt lat="47.29376" lon="-1.80817">
        <ele>31.6</ele>
        <time>2013-09-22T08:30:56Z</time>
      </trkpt>
      <trkpt lat="47.29386" lon="-1.80812">
        <ele>32.6</ele>
        <time>2013-09-22T08:31:02Z</time>
      </trkpt>
      <trkpt lat="47.29395" lon="-1.80807">
        <ele>33.3</ele>
        <time>2013-09-22T08:31:07Z</time>
      </trkpt>
      <trkpt lat="47.29402" lon="-1.80799">
        <ele>34.1</ele>
        <time>2013-09-22T08:31:13Z</time>
      </trkpt>
      <trkpt lat="47.29411" lon="-1.80793">
        <ele>34.9</ele>
        <time>2013-09-22T08:31:19Z</time>
      </trkpt>
      <trkpt lat="47.29418" lon="-1.80784">
        <ele>35.8</ele>
        <time>2013-09-22T08:31:26Z</time>
      </trkpt>
      <trkpt lat="47.29423" lon="-1.80771">
        <ele>36.6</ele>
        <time>2013-09-22T08:31:34Z</time>
      </trkpt>
      <trkpt lat="47.29427" lon="-1.80759">
        <ele>37.4</ele>
        <time>2013-09-22T08:31:41Z</time>
      </trkpt>
      <trkpt lat="47.29432" lon="-1.80746">
        <ele>39</ele>
        <time>2013-09-22T08:31:48Z</time>
      </trkpt>
      <trkpt lat="47.29441" lon="-1.80739">
        <ele>41.1</ele>
        <time>2013-09-22T08:31:59Z</time>
      </trkpt>
      <trkpt lat="47.29449" lon="-1.80732">
        <ele>43.2</ele>
        <time>2013-09-22T08:32:10Z</time>
      </trkpt>
      <trkpt lat="47.29458" lon="-1.80727">
        <ele>44.8</ele>
        <time>2013-09-22T08:32:21Z</time>
      </trkpt>
      <trkpt lat="47.29467" lon="-1.80722">
        <ele>46.1</ele>
        <time>2013-09-22T08:32:31Z</time>
      </trkpt>
      <trkpt lat="47.29475" lon="-1.80716">
        <ele>48.3</ele>
        <time>2013-09-22T08:32:41Z</time>
      </trkpt>
      <trkpt lat="47.29484" lon="-1.8071">
        <ele>49.5</ele>
        <time>2013-09-22T08:32:54Z</time>
      </trkpt>
      <trkpt lat="47.29494" lon="-1.80706">
        <ele>50.5</ele>
        <time>2013-09-22T08:33:03Z</time>
      </trkpt>
      <trkpt lat="47.29504" lon="-1.80707">
        <ele>51.2</ele>
        <time>2013-09-22T08:33:11Z</time>
      </trkpt>
      <trkpt lat="47.29513" lon="-1.80703">
        <ele>51.8</ele>
        <time>2013-09-22T08:33:19Z</time>
      </trkpt>
      <trkpt lat="47.29523" lon="-1.80697">
        <ele>53.4</ele>
        <time>2013-09-22T08:33:28Z</time>
      </trkpt>
      <trkpt lat="47.29531" lon="-1.8069">
        <ele>55.5</ele>
        <time>2013-09-22T08:33:38Z</time>
      </trkpt>
      <trkpt lat="47.29539" lon="-1.80682">
        <ele>56.7</ele>
        <time>2013-09-22T08:33:46Z</time>
      </trkpt>
      <trkpt lat="47.29545" lon="-1.8067">
        <ele>57</ele>
        <time>2013-09-22T08:33:55Z</time>
      </trkpt>
      <trkpt lat="47.29553" lon="-1.80663">
        <ele>57.2</ele>
        <time>2013-09-22T08:34:00Z</time>
      </trkpt>
      <trkpt lat="47.29562" lon="-1.80655">
        <ele>57.6</ele>
        <time>2013-09-22T08:34:06Z</time>
      </trkpt>
      <trkpt lat="47.29569" lon="-1.80647">
        <ele>57.8</ele>
        <time>2013-09-22T08:34:10Z</time>
      </trkpt>
      <trkpt lat="47.29576" lon="-1.80638">
        <ele>57.9</ele>
        <time>2013-09-22T08:34:15Z</time>
      </trkpt>
      <trkpt lat="47.29581" lon="-1.80627">
        <ele>58.1</ele>
        <time>2013-09-22T08:34:20Z</time>
      </trkpt>
      <trkpt lat="47.29587" lon="-1.80616">
        <ele>58.6</ele>
        <time>2013-09-22T08:34:25Z</time>
      </trkpt>
      <trkpt lat="47.29595" lon="-1.80606">
        <ele>59.5</ele>
        <time>2013-09-22T08:34:31Z</time>
      </trkpt>
      <trkpt lat="47.29605" lon="-1.80597">
        <ele>60.3</ele>
        <time>2013-09-22T08:34:36Z</time>
      </trkpt>
      <trkpt lat="47.29614" lon="-1.80587">
        <ele>60.7</ele>
        <time>2013-09-22T08:34:40Z</time>
      </trkpt>
      <trkpt lat="47.29625" lon="-1.80579">
        <ele>61.8</ele>
        <time>2013-09-22T08:34:44Z</time>
      </trkpt>
      <trkpt lat="47.29635" lon="-1.80575">
        <ele>63.2</ele>
        <time>2013-09-22T08:34:46Z</time>
      </trkpt>
      <trkpt lat="47.29645" lon="-1.80571">
        <ele>63.3</ele>
        <time>2013-09-22T08:34:48Z</time>
      </trkpt>
      <trkpt lat="47.29656" lon="-1.80566">
        <ele>64.1</ele>
        <time>2013-09-22T08:34:50Z</time>
      </trkpt>
      <trkpt lat="47.29667" lon="-1.80561">
        <ele>65.5</ele>
        <time>2013-09-22T08:34:52Z</time>
      </trkpt>
      <trkpt lat="47.29677" lon="-1.80557">
        <ele>66</ele>
        <time>2013-09-22T08:34:54Z</time>
      </trkpt>
      <trkpt lat="47.29687" lon="-1.80549">
        <ele>66.1</ele>
        <time>2013-09-22T08:34:56Z</time>
      </trkpt>
      <trkpt lat="47.29696" lon="-1.80541">
        <ele>65.9</ele>
        <time>2013-09-22T08:34:58Z</time>
      </trkpt>
      <trkpt lat="47.29705" lon="-1.80535">
        <ele>64.3</ele>
        <time>2013-09-22T08:35:00Z</time>
      </trkpt>
      <trkpt lat="47.29713" lon="-1.80529">
        <ele>63.8</ele>
        <time>2013-09-22T08:35:02Z</time>
      </trkpt>
      <trkpt lat="47.29722" lon="-1.80522">
        <ele>63.6</ele>
        <time>2013-09-22T08:35:04Z</time>
      </trkpt>
      <trkpt lat="47.29731" lon="-1.80516">
        <ele>63.2</ele>
        <time>2013-09-22T08:35:06Z</time>
      </trkpt>
      <trkpt lat="47.29742" lon="-1.80508">
        <ele>63.2</ele>
        <time>2013-09-22T08:35:09Z</time>
      </trkpt>
      <trkpt lat="47.29751" lon="-1.80508">
        <ele>63.3</ele>
        <time>2013-09-22T08:36:27Z</time>
      </trkpt>
      <trkpt lat="47.29758" lon="-1.8052">
        <ele>62.8</ele>
        <time>2013-09-22T08:37:36Z</time>
      </trkpt>
      <trkpt lat="47.29768" lon="-1.80525">
        <ele>62.6</ele>
        <time>2013-09-22T08:37:40Z</time>
      </trkpt>
      <trkpt lat="47.29778" lon="-1.80527">
        <ele>62.5</ele>
        <time>2013-09-22T08:37:43Z</time>
      </trkpt>
      <trkpt lat="47.29788" lon="-1.80527">
        <ele>62.4</ele>
        <time>2013-09-22T08:37:46Z</time>
      </trkpt>
      <trkpt lat="47.29799" lon="-1.80528">
        <ele>62.3</ele>
        <time>2013-09-22T08:37:49Z</time>
      </trkpt>
      <trkpt lat="47.2981" lon="-1.8053">
        <ele>62.2</ele>
        <time>2013-09-22T08:37:52Z</time>
      </trkpt>
      <trkpt lat="47.29823" lon="-1.80532">
        <ele>62.2</ele>
        <time>2013-09-22T08:37:55Z</time>
      </trkpt>
      <trkpt lat="47.29834" lon="-1.80535">
        <ele>62.2</ele>
        <time>2013-09-22T08:37:58Z</time>
      </trkpt>
      <trkpt lat="47.29845" lon="-1.80535">
        <ele>62.1</ele>
        <time>2013-09-22T08:38:01Z</time>
      </trkpt>
      <trkpt lat="47.29855" lon="-1.80534">
        <ele>62</ele>
        <time>2013-09-22T08:38:04Z</time>
      </trkpt>
      <trkpt lat="47.29865" lon="-1.80529">
        <ele>62</ele>
        <time>2013-09-22T08:38:07Z</time>
      </trkpt>
      <trkpt lat="47.29874" lon="-1.80522">
        <ele>62</ele>
        <time>2013-09-22T08:38:10Z</time>
      </trkpt>
      <trkpt lat="47.29882" lon="-1.80516">
        <ele>62.1</ele>
        <time>2013-09-22T08:38:13Z</time>
      </trkpt>
      <trkpt lat="47.2989" lon="-1.80508">
        <ele>62.2</ele>
        <time>2013-09-22T08:38:16Z</time>
      </trkpt>
      <trkpt lat="47.29898" lon="-1.80502">
        <ele>62.2</ele>
        <time>2013-09-22T08:38:19Z</time>
      </trkpt>
      <trkpt lat="47.29908" lon="-1.80493">
        <ele>62.3</ele>
        <time>2013-09-22T08:38:23Z</time>
      </trkpt>
      <trkpt lat="47.29916" lon="-1.80486">
        <ele>62.5</ele>
        <time>2013-09-22T08:38:26Z</time>
      </trkpt>
      <trkpt lat="47.29925" lon="-1.80478">
        <ele>62.6</ele>
        <time>2013-09-22T08:38:29Z</time>
      </trkpt>
      <trkpt lat="47.29934" lon="-1.80471">
        <ele>62.7</ele>
        <time>2013-09-22T08:38:32Z</time>
      </trkpt>
      <trkpt lat="47.29944" lon="-1.80463">
        <ele>62.9</ele>
        <time>2013-09-22T08:38:35Z</time>
      </trkpt>
      <trkpt lat="47.29953" lon="-1.80455">
        <ele>63.1</ele>
        <time>2013-09-22T08:38:38Z</time>
      </trkpt>
      <trkpt lat="47.29963" lon="-1.80447">
        <ele>63.2</ele>
        <time>2013-09-22T08:38:41Z</time>
      </trkpt>
      <trkpt lat="47.29971" lon="-1.8044">
        <ele>63.3</ele>
        <time>2013-09-22T08:38:44Z</time>
      </trkpt>
      <trkpt lat="47.29981" lon="-1.80433">
        <ele>63.4</ele>
        <time>2013-09-22T08:38:47Z</time>
      </trkpt>
      <trkpt lat="47.29989" lon="-1.80426">
        <ele>63.8</ele>
        <time>2013-09-22T08:38:51Z</time>
      </trkpt>
      <trkpt lat="47.29997" lon="-1.80418">
        <ele>64.2</ele>
        <time>2013-09-22T08:38:55Z</time>
      </trkpt>
      <trkpt lat="47.30007" lon="-1.80411">
        <ele>65.1</ele>
        <time>2013-09-22T08:39:05Z</time>
      </trkpt>
      <trkpt lat="47.30014" lon="-1.80402">
        <ele>65.5</ele>
        <time>2013-09-22T08:39:09Z</time>
      </trkpt>
      <trkpt lat="47.30022" lon="-1.80392">
        <ele>65.7</ele>
        <time>2013-09-22T08:39:12Z</time>
      </trkpt>
      <trkpt lat="47.30029" lon="-1.8038">
        <ele>65.9</ele>
        <time>2013-09-22T08:39:15Z</time>
      </trkpt>
      <trkpt lat="47.30038" lon="-1.80375">
        <ele>66.3</ele>
        <time>2013-09-22T08:39:19Z</time>
      </trkpt>
      <trkpt lat="47.30047" lon="-1.8038">
        <ele>66.6</ele>
        <time>2013-09-22T08:39:22Z</time>
      </trkpt>
      <trkpt lat="47.30056" lon="-1.8039">
        <ele>67.4</ele>
        <time>2013-09-22T08:39:25Z</time>
      </trkpt>
      <trkpt lat="47.30064" lon="-1.80406">
        <ele>68.3</ele>
        <time>2013-09-22T08:39:28Z</time>
      </trkpt>
      <trkpt lat="47.30071" lon="-1.8042">
        <ele>68.3</ele>
        <time>2013-09-22T08:39:31Z</time>
      </trkpt>
      <trkpt lat="47.30077" lon="-1.80436">
        <ele>68.2</ele>
        <time>2013-09-22T08:39:34Z</time>
      </trkpt>
      <trkpt lat="47.30085" lon="-1.80451">
        <ele>68.1</ele>
        <time>2013-09-22T08:39:37Z</time>
      </trkpt>
      <trkpt lat="47.30092" lon="-1.80466">
        <ele>68</ele>
        <time>2013-09-22T08:39:40Z</time>
      </trkpt>
      <trkpt lat="47.30098" lon="-1.80479">
        <ele>67.9</ele>
        <time>2013-09-22T08:39:43Z</time>
      </trkpt>
      <trkpt lat="47.30105" lon="-1.80492">
        <ele>67.9</ele>
        <time>2013-09-22T08:39:46Z</time>
      </trkpt>
      <trkpt lat="47.30112" lon="-1.80505">
        <ele>68</ele>
        <time>2013-09-22T08:39:49Z</time>
      </trkpt>
      <trkpt lat="47.30118" lon="-1.80515">
        <ele>67.8</ele>
        <time>2013-09-22T08:39:52Z</time>
      </trkpt>
      <trkpt lat="47.30126" lon="-1.80526">
        <ele>67.8</ele>
        <time>2013-09-22T08:39:55Z</time>
      </trkpt>
      <trkpt lat="47.30134" lon="-1.80538">
        <ele>67.6</ele>
        <time>2013-09-22T08:39:58Z</time>
      </trkpt>
      <trkpt lat="47.30143" lon="-1.80551">
        <ele>66.7</ele>
        <time>2013-09-22T08:40:01Z</time>
      </trkpt>
      <trkpt lat="47.30148" lon="-1.80562">
        <ele>66.3</ele>
        <time>2013-09-22T08:40:03Z</time>
      </trkpt>
      <trkpt lat="47.30154" lon="-1.80575">
        <ele>65.4</ele>
        <time>2013-09-22T08:40:05Z</time>
      </trkpt>
      <trkpt lat="47.30161" lon="-1.80591">
        <ele>64.8</ele>
        <time>2013-09-22T08:40:07Z</time>
      </trkpt>
      <trkpt lat="47.30169" lon="-1.80606">
        <ele>64.6</ele>
        <time>2013-09-22T08:40:09Z</time>
      </trkpt>
      <trkpt lat="47.30176" lon="-1.80621">
        <ele>64.1</ele>
        <time>2013-09-22T08:40:11Z</time>
      </trkpt>
      <trkpt lat="47.30184" lon="-1.80634">
        <ele>63.6</ele>
        <time>2013-09-22T08:40:13Z</time>
      </trkpt>
      <trkpt lat="47.30191" lon="-1.80644">
        <ele>63.5</ele>
        <time>2013-09-22T08:40:15Z</time>
      </trkpt>
      <trkpt lat="47.302" lon="-1.80649">
        <ele>62.8</ele>
        <time>2013-09-22T08:40:17Z</time>
      </trkpt>
      <trkpt lat="47.30209" lon="-1.80655">
        <ele>62</ele>
        <time>2013-09-22T08:40:19Z</time>
      </trkpt>
      <trkpt lat="47.30218" lon="-1.80662">
        <ele>61.8</ele>
        <time>2013-09-22T08:40:21Z</time>
      </trkpt>
      <trkpt lat="47.30228" lon="-1.80669">
        <ele>61</ele>
        <time>2013-09-22T08:40:23Z</time>
      </trkpt>
      <trkpt lat="47.30237" lon="-1.80677">
        <ele>60.6</ele>
        <time>2013-09-22T08:40:26Z</time>
      </trkpt>
      <trkpt lat="47.30247" lon="-1.80681">
        <ele>60.1</ele>
        <time>2013-09-22T08:40:30Z</time>
      </trkpt>
      <trkpt lat="47.30257" lon="-1.80685">
        <ele>59.8</ele>
        <time>2013-09-22T08:40:34Z</time>
      </trkpt>
      <trkpt lat="47.30267" lon="-1.80691">
        <ele>58.9</ele>
        <time>2013-09-22T08:40:43Z</time>
      </trkpt>
      <trkpt lat="47.30274" lon="-1.80701">
        <ele>58.3</ele>
        <time>2013-09-22T08:40:48Z</time>
      </trkpt>
      <trkpt lat="47.30282" lon="-1.8071">
        <ele>57.8</ele>
        <time>2013-09-22T08:40:54Z</time>
      </trkpt>
      <trkpt lat="47.30289" lon="-1.80723">
        <ele>57.4</ele>
        <time>2013-09-22T08:40:58Z</time>
      </trkpt>
      <trkpt lat="47.30294" lon="-1.80734">
        <ele>56.9</ele>
        <time>2013-09-22T08:41:00Z</time>
      </trkpt>
      <trkpt lat="47.303" lon="-1.80748">
        <ele>56</ele>
        <time>2013-09-22T08:41:02Z</time>
      </trkpt>
      <trkpt lat="47.30306" lon="-1.80764">
        <ele>55.2</ele>
        <time>2013-09-22T08:41:04Z</time>
      </trkpt>
      <trkpt lat="47.30312" lon="-1.8078">
        <ele>54.2</ele>
        <time>2013-09-22T08:41:06Z</time>
      </trkpt>
      <trkpt lat="47.30317" lon="-1.80793">
        <ele>53.2</ele>
        <time>2013-09-22T08:41:08Z</time>
      </trkpt>
      <trkpt lat="47.30321" lon="-1.80807">
        <ele>52.3</ele>
        <time>2013-09-22T08:41:10Z</time>
      </trkpt>
      <trkpt lat="47.30324" lon="-1.80822">
        <ele>50.8</ele>
        <time>2013-09-22T08:41:13Z</time>
      </trkpt>
      <trkpt lat="47.30326" lon="-1.80838">
        <ele>49.4</ele>
        <time>2013-09-22T08:41:16Z</time>
      </trkpt>
      <trkpt lat="47.30328" lon="-1.80852">
        <ele>47.8</ele>
        <time>2013-09-22T08:41:19Z</time>
      </trkpt>
      <trkpt lat="47.30324" lon="-1.80864">
        <ele>46.6</ele>
        <time>2013-09-22T08:41:21Z</time>
      </trkpt>
      <trkpt lat="47.30324" lon="-1.80879">
        <ele>44.9</ele>
        <time>2013-09-22T08:41:24Z</time>
      </trkpt>
      <trkpt lat="47.30332" lon="-1.80891">
        <ele>42.9</ele>
        <time>2013-09-22T08:41:27Z</time>
      </trkpt>
      <trkpt lat="47.30337" lon="-1.80906">
        <ele>41.6</ele>
        <time>2013-09-22T08:41:30Z</time>
      </trkpt>
      <trkpt lat="47.3034" lon="-1.80919">
        <ele>40.6</ele>
        <time>2013-09-22T08:41:33Z</time>
      </trkpt>
      <trkpt lat="47.30347" lon="-1.8093">
        <ele>39.7</ele>
        <time>2013-09-22T08:41:36Z</time>
      </trkpt>
      <trkpt lat="47.30357" lon="-1.80941">
        <ele>39.1</ele>
        <time>2013-09-22T08:41:39Z</time>
      </trkpt>
      <trkpt lat="47.30367" lon="-1.80949">
        <ele>39</ele>
        <time>2013-09-22T08:41:42Z</time>
      </trkpt>
      <trkpt lat="47.30379" lon="-1.80952">
        <ele>39.3</ele>
        <time>2013-09-22T08:41:45Z</time>
      </trkpt>
      <trkpt lat="47.30389" lon="-1.80945">
        <ele>39.4</ele>
        <time>2013-09-22T08:41:48Z</time>
      </trkpt>
      <trkpt lat="47.30398" lon="-1.80937">
        <ele>39.6</ele>
        <time>2013-09-22T08:41:51Z</time>
      </trkpt>
      <trkpt lat="47.30405" lon="-1.80929">
        <ele>39.9</ele>
        <time>2013-09-22T08:41:55Z</time>
      </trkpt>
      <trkpt lat="47.30412" lon="-1.8092">
        <ele>40.5</ele>
        <time>2013-09-22T08:42:02Z</time>
      </trkpt>
      <trkpt lat="47.30421" lon="-1.80913">
        <ele>40.8</ele>
        <time>2013-09-22T08:42:07Z</time>
      </trkpt>
      <trkpt lat="47.30429" lon="-1.80903">
        <ele>41</ele>
        <time>2013-09-22T08:42:15Z</time>
      </trkpt>
      <trkpt lat="47.30436" lon="-1.80892">
        <ele>43.2</ele>
        <time>2013-09-22T08:43:06Z</time>
      </trkpt>
      <trkpt lat="47.30446" lon="-1.80885">
        <ele>43.6</ele>
        <time>2013-09-22T08:43:12Z</time>
      </trkpt>
      <trkpt lat="47.30454" lon="-1.80878">
        <ele>42.7</ele>
        <time>2013-09-22T08:43:23Z</time>
      </trkpt>
      <trkpt lat="47.30462" lon="-1.80871">
        <ele>42.5</ele>
        <time>2013-09-22T08:43:33Z</time>
      </trkpt>
      <trkpt lat="47.3047" lon="-1.80861">
        <ele>43.2</ele>
        <time>2013-09-22T08:43:40Z</time>
      </trkpt>
      <trkpt lat="47.30479" lon="-1.80865">
        <ele>42.2</ele>
        <time>2013-09-22T08:44:05Z</time>
      </trkpt>
      <trkpt lat="47.30488" lon="-1.80869">
        <ele>41.9</ele>
        <time>2013-09-22T08:44:10Z</time>
      </trkpt>
      <trkpt lat="47.30489" lon="-1.80884">
        <ele>42.6</ele>
        <time>2013-09-22T08:44:18Z</time>
      </trkpt>
      <trkpt lat="47.30482" lon="-1.80893">
        <ele>42.9</ele>
        <time>2013-09-22T08:44:21Z</time>
      </trkpt>
      <trkpt lat="47.30474" lon="-1.80902">
        <ele>43.7</ele>
        <time>2013-09-22T08:44:23Z</time>
      </trkpt>
      <trkpt lat="47.30467" lon="-1.80914">
        <ele>43.4</ele>
        <time>2013-09-22T08:44:25Z</time>
      </trkpt>
      <trkpt lat="47.30459" lon="-1.80925">
        <ele>43.2</ele>
        <time>2013-09-22T08:44:27Z</time>
      </trkpt>
      <trkpt lat="47.30451" lon="-1.80937">
        <ele>43</ele>
        <time>2013-09-22T08:44:29Z</time>
      </trkpt>
      <trkpt lat="47.30445" lon="-1.80947">
        <ele>42.8</ele>
        <time>2013-09-22T08:44:31Z</time>
      </trkpt>
      <trkpt lat="47.30439" lon="-1.80958">
        <ele>42.6</ele>
        <time>2013-09-22T08:44:33Z</time>
      </trkpt>
      <trkpt lat="47.30434" lon="-1.80969">
        <ele>42.5</ele>
        <time>2013-09-22T08:44:35Z</time>
      </trkpt>
      <trkpt lat="47.30428" lon="-1.80985">
        <ele>42.3</ele>
        <time>2013-09-22T08:44:38Z</time>
      </trkpt>
      <trkpt lat="47.3042" lon="-1.80999">
        <ele>42.2</ele>
        <time>2013-09-22T08:44:41Z</time>
      </trkpt>
      <trkpt lat="47.30414" lon="-1.8101">
        <ele>42.2</ele>
        <time>2013-09-22T08:44:44Z</time>
      </trkpt>
      <trkpt lat="47.30406" lon="-1.81018">
        <ele>42.5</ele>
        <time>2013-09-22T08:44:50Z</time>
      </trkpt>
      <trkpt lat="47.304" lon="-1.81029">
        <ele>42.7</ele>
        <time>2013-09-22T08:44:54Z</time>
      </trkpt>
      <trkpt lat="47.30397" lon="-1.81043">
        <ele>43.1</ele>
        <time>2013-09-22T08:45:00Z</time>
      </trkpt>
      <trkpt lat="47.30401" lon="-1.81055">
        <ele>44</ele>
        <time>2013-09-22T08:45:05Z</time>
      </trkpt>
      <trkpt lat="47.30403" lon="-1.81068">
        <ele>44.9</ele>
        <time>2013-09-22T08:45:10Z</time>
      </trkpt>
      <trkpt lat="47.30408" lon="-1.81079">
        <ele>46.2</ele>
        <time>2013-09-22T08:45:17Z</time>
      </trkpt>
      <trkpt lat="47.30414" lon="-1.81091">
        <ele>46.8</ele>
        <time>2013-09-22T08:45:21Z</time>
      </trkpt>
      <trkpt lat="47.3042" lon="-1.81101">
        <ele>47.3</ele>
        <time>2013-09-22T08:45:26Z</time>
      </trkpt>
      <trkpt lat="47.30414" lon="-1.81114">
        <ele>47.9</ele>
        <time>2013-09-22T08:45:35Z</time>
      </trkpt>
      <trkpt lat="47.30406" lon="-1.81121">
        <ele>48.6</ele>
        <time>2013-09-22T08:45:39Z</time>
      </trkpt>
      <trkpt lat="47.30397" lon="-1.81129">
        <ele>49.3</ele>
        <time>2013-09-22T08:45:43Z</time>
      </trkpt>
      <trkpt lat="47.30389" lon="-1.81138">
        <ele>49.8</ele>
        <time>2013-09-22T08:45:47Z</time>
      </trkpt>
      <trkpt lat="47.30381" lon="-1.81147">
        <ele>50.1</ele>
        <time>2013-09-22T08:45:51Z</time>
      </trkpt>
      <trkpt lat="47.30373" lon="-1.81157">
        <ele>50.4</ele>
        <time>2013-09-22T08:45:56Z</time>
      </trkpt>
      <trkpt lat="47.30367" lon="-1.81167">
        <ele>50.9</ele>
        <time>2013-09-22T08:46:01Z</time>
      </trkpt>
      <trkpt lat="47.30369" lon="-1.8118">
        <ele>51.4</ele>
        <time>2013-09-22T08:46:17Z</time>
      </trkpt>
      <trkpt lat="47.30376" lon="-1.81171">
        <ele>52</ele>
        <time>2013-09-22T08:46:53Z</time>
      </trkpt>
      <trkpt lat="47.30379" lon="-1.81184">
        <ele>52.1</ele>
        <time>2013-09-22T08:47:14Z</time>
      </trkpt>
      <trkpt lat="47.30381" lon="-1.81197">
        <ele>51.9</ele>
        <time>2013-09-22T08:47:22Z</time>
      </trkpt>
      <trkpt lat="47.30378" lon="-1.81184">
        <ele>51.9</ele>
        <time>2013-09-22T08:47:35Z</time>
      </trkpt>
      <trkpt lat="47.30369" lon="-1.81185">
        <ele>50.7</ele>
        <time>2013-09-22T08:49:13Z</time>
      </trkpt>
      <trkpt lat="47.30364" lon="-1.81174">
        <ele>50.8</ele>
        <time>2013-09-22T08:50:07Z</time>
      </trkpt>
      <trkpt lat="47.30369" lon="-1.81186">
        <ele>53.6</ele>
        <time>2013-09-22T08:59:20Z</time>
      </trkpt>
      <trkpt lat="47.30372" lon="-1.81199">
        <ele>54.9</ele>
        <time>2013-09-22T09:00:26Z</time>
      </trkpt>
      <trkpt lat="47.30377" lon="-1.81214">
        <ele>54.8</ele>
        <time>2013-09-22T09:00:30Z</time>
      </trkpt>
      <trkpt lat="47.30382" lon="-1.81227">
        <ele>54.8</ele>
        <time>2013-09-22T09:00:33Z</time>
      </trkpt>
      <trkpt lat="47.30388" lon="-1.8124">
        <ele>54.6</ele>
        <time>2013-09-22T09:00:37Z</time>
      </trkpt>
      <trkpt lat="47.30395" lon="-1.81253">
        <ele>54.8</ele>
        <time>2013-09-22T09:00:41Z</time>
      </trkpt>
      <trkpt lat="47.30402" lon="-1.81265">
        <ele>55</ele>
        <time>2013-09-22T09:00:44Z</time>
      </trkpt>
      <trkpt lat="47.30407" lon="-1.81277">
        <ele>55.3</ele>
        <time>2013-09-22T09:00:47Z</time>
      </trkpt>
      <trkpt lat="47.30413" lon="-1.81292">
        <ele>55.5</ele>
        <time>2013-09-22T09:00:51Z</time>
      </trkpt>
      <trkpt lat="47.30419" lon="-1.81306">
        <ele>55.6</ele>
        <time>2013-09-22T09:00:54Z</time>
      </trkpt>
      <trkpt lat="47.30424" lon="-1.81321">
        <ele>55.7</ele>
        <time>2013-09-22T09:00:57Z</time>
      </trkpt>
      <trkpt lat="47.30426" lon="-1.81339">
        <ele>55.6</ele>
        <time>2013-09-22T09:01:00Z</time>
      </trkpt>
      <trkpt lat="47.30428" lon="-1.81352">
        <ele>55.5</ele>
        <time>2013-09-22T09:01:02Z</time>
      </trkpt>
      <trkpt lat="47.30431" lon="-1.8137">
        <ele>55.7</ele>
        <time>2013-09-22T09:01:05Z</time>
      </trkpt>
      <trkpt lat="47.30436" lon="-1.81387">
        <ele>55.8</ele>
        <time>2013-09-22T09:01:08Z</time>
      </trkpt>
      <trkpt lat="47.30441" lon="-1.81405">
        <ele>55.8</ele>
        <time>2013-09-22T09:01:11Z</time>
      </trkpt>
      <trkpt lat="47.30448" lon="-1.8142">
        <ele>55.6</ele>
        <time>2013-09-22T09:01:14Z</time>
      </trkpt>
      <trkpt lat="47.30455" lon="-1.81436">
        <ele>54.9</ele>
        <time>2013-09-22T09:01:17Z</time>
      </trkpt>
      <trkpt lat="47.30458" lon="-1.81449">
        <ele>54.7</ele>
        <time>2013-09-22T09:01:19Z</time>
      </trkpt>
      <trkpt lat="47.30459" lon="-1.81463">
        <ele>54.7</ele>
        <time>2013-09-22T09:01:21Z</time>
      </trkpt>
      <trkpt lat="47.30459" lon="-1.8148">
        <ele>54.4</ele>
        <time>2013-09-22T09:01:23Z</time>
      </trkpt>
      <trkpt lat="47.30458" lon="-1.81498">
        <ele>54</ele>
        <time>2013-09-22T09:01:25Z</time>
      </trkpt>
      <trkpt lat="47.30454" lon="-1.8152">
        <ele>52.3</ele>
        <time>2013-09-22T09:01:27Z</time>
      </trkpt>
      <trkpt lat="47.30448" lon="-1.81539">
        <ele>52.2</ele>
        <time>2013-09-22T09:01:29Z</time>
      </trkpt>
      <trkpt lat="47.30442" lon="-1.81554">
        <ele>53.3</ele>
        <time>2013-09-22T09:01:31Z</time>
      </trkpt>
      <trkpt lat="47.30437" lon="-1.81567">
        <ele>54.4</ele>
        <time>2013-09-22T09:01:33Z</time>
      </trkpt>
      <trkpt lat="47.30432" lon="-1.81581">
        <ele>56.4</ele>
        <time>2013-09-22T09:01:35Z</time>
      </trkpt>
      <trkpt lat="47.30427" lon="-1.81593">
        <ele>58.2</ele>
        <time>2013-09-22T09:01:37Z</time>
      </trkpt>
      <trkpt lat="47.30423" lon="-1.81606">
        <ele>59.6</ele>
        <time>2013-09-22T09:01:39Z</time>
      </trkpt>
      <trkpt lat="47.30419" lon="-1.81618">
        <ele>60.3</ele>
        <time>2013-09-22T09:01:41Z</time>
      </trkpt>
      <trkpt lat="47.30414" lon="-1.81632">
        <ele>60.4</ele>
        <time>2013-09-22T09:01:44Z</time>
      </trkpt>
      <trkpt lat="47.30404" lon="-1.81632">
        <ele>60.2</ele>
        <time>2013-09-22T09:01:48Z</time>
      </trkpt>
      <trkpt lat="47.30395" lon="-1.81619">
        <ele>59</ele>
        <time>2013-09-22T09:01:51Z</time>
      </trkpt>
      <trkpt lat="47.30389" lon="-1.81604">
        <ele>58.8</ele>
        <time>2013-09-22T09:01:54Z</time>
      </trkpt>
      <trkpt lat="47.30381" lon="-1.81587">
        <ele>58.5</ele>
        <time>2013-09-22T09:01:57Z</time>
      </trkpt>
      <trkpt lat="47.30376" lon="-1.81575">
        <ele>57.6</ele>
        <time>2013-09-22T09:01:59Z</time>
      </trkpt>
      <trkpt lat="47.30371" lon="-1.81563">
        <ele>56.9</ele>
        <time>2013-09-22T09:02:01Z</time>
      </trkpt>
      <trkpt lat="47.30366" lon="-1.8155">
        <ele>56.7</ele>
        <time>2013-09-22T09:02:03Z</time>
      </trkpt>
      <trkpt lat="47.30361" lon="-1.81537">
        <ele>56.1</ele>
        <time>2013-09-22T09:02:05Z</time>
      </trkpt>
      <trkpt lat="47.30354" lon="-1.81522">
        <ele>56.2</ele>
        <time>2013-09-22T09:02:08Z</time>
      </trkpt>
      <trkpt lat="47.30347" lon="-1.81509">
        <ele>55.8</ele>
        <time>2013-09-22T09:02:11Z</time>
      </trkpt>
      <trkpt lat="47.3034" lon="-1.81498">
        <ele>55.6</ele>
        <time>2013-09-22T09:02:15Z</time>
      </trkpt>
      <trkpt lat="47.30333" lon="-1.81487">
        <ele>55.2</ele>
        <time>2013-09-22T09:02:18Z</time>
      </trkpt>
      <trkpt lat="47.30327" lon="-1.81475">
        <ele>54.8</ele>
        <time>2013-09-22T09:02:22Z</time>
      </trkpt>
      <trkpt lat="47.3032" lon="-1.81466">
        <ele>54.2</ele>
        <time>2013-09-22T09:02:26Z</time>
      </trkpt>
      <trkpt lat="47.30312" lon="-1.8146">
        <ele>53</ele>
        <time>2013-09-22T09:02:32Z</time>
      </trkpt>
      <trkpt lat="47.30302" lon="-1.81461">
        <ele>52</ele>
        <time>2013-09-22T09:02:41Z</time>
      </trkpt>
      <trkpt lat="47.30294" lon="-1.81467">
        <ele>51.5</ele>
        <time>2013-09-22T09:02:51Z</time>
      </trkpt>
      <trkpt lat="47.30288" lon="-1.81478">
        <ele>51.6</ele>
        <time>2013-09-22T09:03:04Z</time>
      </trkpt>
      <trkpt lat="47.30279" lon="-1.8147">
        <ele>50.8</ele>
        <time>2013-09-22T09:03:13Z</time>
      </trkpt>
      <trkpt lat="47.30269" lon="-1.81475">
        <ele>50.3</ele>
        <time>2013-09-22T09:03:19Z</time>
      </trkpt>
      <trkpt lat="47.3026" lon="-1.81477">
        <ele>50</ele>
        <time>2013-09-22T09:03:23Z</time>
      </trkpt>
      <trkpt lat="47.30253" lon="-1.81487">
        <ele>50.2</ele>
        <time>2013-09-22T09:03:28Z</time>
      </trkpt>
      <trkpt lat="47.30244" lon="-1.81496">
        <ele>50.2</ele>
        <time>2013-09-22T09:03:33Z</time>
      </trkpt>
      <trkpt lat="47.30236" lon="-1.81505">
        <ele>50.1</ele>
        <time>2013-09-22T09:03:37Z</time>
      </trkpt>
      <trkpt lat="47.30228" lon="-1.81508">
        <ele>50</ele>
        <time>2013-09-22T09:03:41Z</time>
      </trkpt>
      <trkpt lat="47.30219" lon="-1.81513">
        <ele>50.2</ele>
        <time>2013-09-22T09:03:46Z</time>
      </trkpt>
      <trkpt lat="47.3021" lon="-1.81519">
        <ele>50.6</ele>
        <time>2013-09-22T09:03:51Z</time>
      </trkpt>
      <trkpt lat="47.30201" lon="-1.81529">
        <ele>50.6</ele>
        <time>2013-09-22T09:03:56Z</time>
      </trkpt>
      <trkpt lat="47.30197" lon="-1.81543">
        <ele>50.3</ele>
        <time>2013-09-22T09:04:03Z</time>
      </trkpt>
      <trkpt lat="47.30199" lon="-1.81556">
        <ele>50.3</ele>
        <time>2013-09-22T09:04:08Z</time>
      </trkpt>
      <trkpt lat="47.30203" lon="-1.81569">
        <ele>50.1</ele>
        <time>2013-09-22T09:04:12Z</time>
      </trkpt>
      <trkpt lat="47.30198" lon="-1.81583">
        <ele>49.8</ele>
        <time>2013-09-22T09:04:16Z</time>
      </trkpt>
      <trkpt lat="47.30192" lon="-1.81573">
        <ele>49.6</ele>
        <time>2013-09-22T09:04:22Z</time>
      </trkpt>
      <trkpt lat="47.30193" lon="-1.81559">
        <ele>49.3</ele>
        <time>2013-09-22T09:04:28Z</time>
      </trkpt>
      <trkpt lat="47.30189" lon="-1.81546">
        <ele>49.3</ele>
        <time>2013-09-22T09:04:35Z</time>
      </trkpt>
      <trkpt lat="47.30184" lon="-1.81534">
        <ele>48.7</ele>
        <time>2013-09-22T09:04:46Z</time>
      </trkpt>
      <trkpt lat="47.30184" lon="-1.81549">
        <ele>48.4</ele>
        <time>2013-09-22T09:05:00Z</time>
      </trkpt>
      <trkpt lat="47.30177" lon="-1.8156">
        <ele>48.3</ele>
        <time>2013-09-22T09:05:08Z</time>
      </trkpt>
      <trkpt lat="47.30174" lon="-1.81574">
        <ele>47.6</ele>
        <time>2013-09-22T09:05:12Z</time>
      </trkpt>
      <trkpt lat="47.30176" lon="-1.81588">
        <ele>46.9</ele>
        <time>2013-09-22T09:05:16Z</time>
      </trkpt>
      <trkpt lat="47.30176" lon="-1.81602">
        <ele>46.1</ele>
        <time>2013-09-22T09:05:21Z</time>
      </trkpt>
      <trkpt lat="47.30168" lon="-1.81614">
        <ele>45.4</ele>
        <time>2013-09-22T09:05:26Z</time>
      </trkpt>
      <trkpt lat="47.30161" lon="-1.81624">
        <ele>44.9</ele>
        <time>2013-09-22T09:05:30Z</time>
      </trkpt>
      <trkpt lat="47.30148" lon="-1.81629">
        <ele>44.1</ele>
        <time>2013-09-22T09:05:33Z</time>
      </trkpt>
      <trkpt lat="47.30139" lon="-1.81623">
        <ele>43.1</ele>
        <time>2013-09-22T09:05:37Z</time>
      </trkpt>
      <trkpt lat="47.30142" lon="-1.81611">
        <ele>41.8</ele>
        <time>2013-09-22T09:05:45Z</time>
      </trkpt>
      <trkpt lat="47.30145" lon="-1.81598">
        <ele>41.6</ele>
        <time>2013-09-22T09:05:52Z</time>
      </trkpt>
      <trkpt lat="47.30149" lon="-1.81583">
        <ele>41.5</ele>
        <time>2013-09-22T09:06:00Z</time>
      </trkpt>
      <trkpt lat="47.30152" lon="-1.81568">
        <ele>40.6</ele>
        <time>2013-09-22T09:06:05Z</time>
      </trkpt>
      <trkpt lat="47.30156" lon="-1.81555">
        <ele>39.9</ele>
        <time>2013-09-22T09:06:11Z</time>
      </trkpt>
      <trkpt lat="47.3016" lon="-1.81541">
        <ele>39.6</ele>
        <time>2013-09-22T09:06:16Z</time>
      </trkpt>
      <trkpt lat="47.30167" lon="-1.8153">
        <ele>39.8</ele>
        <time>2013-09-22T09:06:21Z</time>
      </trkpt>
      <trkpt lat="47.30177" lon="-1.81524">
        <ele>41</ele>
        <time>2013-09-22T09:06:31Z</time>
      </trkpt>
      <trkpt lat="47.30184" lon="-1.81514">
        <ele>42.1</ele>
        <time>2013-09-22T09:06:39Z</time>
      </trkpt>
      <trkpt lat="47.3019" lon="-1.81502">
        <ele>42.6</ele>
        <time>2013-09-22T09:06:45Z</time>
      </trkpt>
      <trkpt lat="47.30196" lon="-1.81491">
        <ele>42.7</ele>
        <time>2013-09-22T09:06:49Z</time>
      </trkpt>
      <trkpt lat="47.30203" lon="-1.81479">
        <ele>42.9</ele>
        <time>2013-09-22T09:06:53Z</time>
      </trkpt>
      <trkpt lat="47.30208" lon="-1.81467">
        <ele>43</ele>
        <time>2013-09-22T09:06:56Z</time>
      </trkpt>
      <trkpt lat="47.30217" lon="-1.81459">
        <ele>42.5</ele>
        <time>2013-09-22T09:07:01Z</time>
      </trkpt>
      <trkpt lat="47.30227" lon="-1.81454">
        <ele>42.1</ele>
        <time>2013-09-22T09:07:06Z</time>
      </trkpt>
      <trkpt lat="47.30235" lon="-1.81449">
        <ele>41.5</ele>
        <time>2013-09-22T09:07:13Z</time>
      </trkpt>
      <trkpt lat="47.30235" lon="-1.81435">
        <ele>40.9</ele>
        <time>2013-09-22T09:07:45Z</time>
      </trkpt>
      <trkpt lat="47.30227" lon="-1.81427">
        <ele>39.8</ele>
        <time>2013-09-22T09:08:02Z</time>
      </trkpt>
      <trkpt lat="47.30225" lon="-1.81414">
        <ele>39.7</ele>
        <time>2013-09-22T09:08:08Z</time>
      </trkpt>
      <trkpt lat="47.30217" lon="-1.81405">
        <ele>39.4</ele>
        <time>2013-09-22T09:08:12Z</time>
      </trkpt>
      <trkpt lat="47.30207" lon="-1.814">
        <ele>39</ele>
        <time>2013-09-22T09:08:15Z</time>
      </trkpt>
      <trkpt lat="47.30196" lon="-1.81394">
        <ele>38.3</ele>
        <time>2013-09-22T09:08:19Z</time>
      </trkpt>
      <trkpt lat="47.30185" lon="-1.81391">
        <ele>37.7</ele>
        <time>2013-09-22T09:08:23Z</time>
      </trkpt>
      <trkpt lat="47.30173" lon="-1.81391">
        <ele>36.8</ele>
        <time>2013-09-22T09:08:26Z</time>
      </trkpt>
      <trkpt lat="47.30165" lon="-1.81383">
        <ele>33.4</ele>
        <time>2013-09-22T09:08:53Z</time>
      </trkpt>
      <trkpt lat="47.30158" lon="-1.81375">
        <ele>30.2</ele>
        <time>2013-09-22T09:09:18Z</time>
      </trkpt>
      <trkpt lat="47.30148" lon="-1.81378">
        <ele>28.2</ele>
        <time>2013-09-22T09:09:36Z</time>
      </trkpt>
      <trkpt lat="47.3014" lon="-1.81387">
        <ele>28.2</ele>
        <time>2013-09-22T09:09:42Z</time>
      </trkpt>
      <trkpt lat="47.30132" lon="-1.81395">
        <ele>28.9</ele>
        <time>2013-09-22T09:09:47Z</time>
      </trkpt>
      <trkpt lat="47.30122" lon="-1.81393">
        <ele>29.6</ele>
        <time>2013-09-22T09:09:53Z</time>
      </trkpt>
      <trkpt lat="47.30121" lon="-1.81407">
        <ele>34.2</ele>
        <time>2013-09-22T09:10:15Z</time>
      </trkpt>
      <trkpt lat="47.3012" lon="-1.81426">
        <ele>35.3</ele>
        <time>2013-09-22T09:10:21Z</time>
      </trkpt>
      <trkpt lat="47.30119" lon="-1.81441">
        <ele>35.5</ele>
        <time>2013-09-22T09:10:23Z</time>
      </trkpt>
      <trkpt lat="47.30118" lon="-1.81457">
        <ele>35.6</ele>
        <time>2013-09-22T09:10:25Z</time>
      </trkpt>
      <trkpt lat="47.30115" lon="-1.81472">
        <ele>35.8</ele>
        <time>2013-09-22T09:10:27Z</time>
      </trkpt>
      <trkpt lat="47.3011" lon="-1.81484">
        <ele>36.2</ele>
        <time>2013-09-22T09:10:29Z</time>
      </trkpt>
      <trkpt lat="47.30106" lon="-1.81496">
        <ele>36.4</ele>
        <time>2013-09-22T09:10:31Z</time>
      </trkpt>
      <trkpt lat="47.301" lon="-1.81509">
        <ele>36.6</ele>
        <time>2013-09-22T09:10:35Z</time>
      </trkpt>
      <trkpt lat="47.30097" lon="-1.81526">
        <ele>36.9</ele>
        <time>2013-09-22T09:10:38Z</time>
      </trkpt>
      <trkpt lat="47.30094" lon="-1.8154">
        <ele>37.1</ele>
        <time>2013-09-22T09:10:40Z</time>
      </trkpt>
      <trkpt lat="47.3009" lon="-1.81554">
        <ele>37.4</ele>
        <time>2013-09-22T09:10:42Z</time>
      </trkpt>
      <trkpt lat="47.30082" lon="-1.8157">
        <ele>37.4</ele>
        <time>2013-09-22T09:10:44Z</time>
      </trkpt>
      <trkpt lat="47.30075" lon="-1.8158">
        <ele>36.7</ele>
        <time>2013-09-22T09:10:47Z</time>
      </trkpt>
      <trkpt lat="47.30068" lon="-1.8159">
        <ele>35.6</ele>
        <time>2013-09-22T09:10:52Z</time>
      </trkpt>
      <trkpt lat="47.30063" lon="-1.81602">
        <ele>34.7</ele>
        <time>2013-09-22T09:10:56Z</time>
      </trkpt>
      <trkpt lat="47.30062" lon="-1.81616">
        <ele>33.1</ele>
        <time>2013-09-22T09:11:02Z</time>
      </trkpt>
      <trkpt lat="47.30064" lon="-1.8163">
        <ele>32.1</ele>
        <time>2013-09-22T09:11:06Z</time>
      </trkpt>
      <trkpt lat="47.30066" lon="-1.81646">
        <ele>31.3</ele>
        <time>2013-09-22T09:11:09Z</time>
      </trkpt>
      <trkpt lat="47.30064" lon="-1.81661">
        <ele>30.7</ele>
        <time>2013-09-22T09:11:12Z</time>
      </trkpt>
      <trkpt lat="47.30061" lon="-1.81677">
        <ele>30.1</ele>
        <time>2013-09-22T09:11:15Z</time>
      </trkpt>
      <trkpt lat="47.30055" lon="-1.81692">
        <ele>29.5</ele>
        <time>2013-09-22T09:11:19Z</time>
      </trkpt>
      <trkpt lat="47.30051" lon="-1.81705">
        <ele>28.2</ele>
        <time>2013-09-22T09:11:28Z</time>
      </trkpt>
      <trkpt lat="47.30049" lon="-1.81721">
        <ele>27.7</ele>
        <time>2013-09-22T09:11:37Z</time>
      </trkpt>
      <trkpt lat="47.30052" lon="-1.81734">
        <ele>27</ele>
        <time>2013-09-22T09:11:47Z</time>
      </trkpt>
      <trkpt lat="47.30061" lon="-1.81741">
        <ele>27.1</ele>
        <time>2013-09-22T09:11:53Z</time>
      </trkpt>
      <trkpt lat="47.30069" lon="-1.81748">
        <ele>27.3</ele>
        <time>2013-09-22T09:12:00Z</time>
      </trkpt>
      <trkpt lat="47.30075" lon="-1.81759">
        <ele>27.5</ele>
        <time>2013-09-22T09:12:08Z</time>
      </trkpt>
      <trkpt lat="47.30081" lon="-1.81771">
        <ele>27.6</ele>
        <time>2013-09-22T09:12:14Z</time>
      </trkpt>
      <trkpt lat="47.30083" lon="-1.81785">
        <ele>28.7</ele>
        <time>2013-09-22T09:12:25Z</time>
      </trkpt>
      <trkpt lat="47.30088" lon="-1.81798">
        <ele>30</ele>
        <time>2013-09-22T09:12:33Z</time>
      </trkpt>
      <trkpt lat="47.30091" lon="-1.81811">
        <ele>30.4</ele>
        <time>2013-09-22T09:12:39Z</time>
      </trkpt>
      <trkpt lat="47.30096" lon="-1.81823">
        <ele>30.8</ele>
        <time>2013-09-22T09:12:48Z</time>
      </trkpt>
      <trkpt lat="47.301" lon="-1.81836">
        <ele>31.9</ele>
        <time>2013-09-22T09:12:55Z</time>
      </trkpt>
      <trkpt lat="47.30105" lon="-1.81849">
        <ele>32.8</ele>
        <time>2013-09-22T09:13:02Z</time>
      </trkpt>
      <trkpt lat="47.30112" lon="-1.8186">
        <ele>33</ele>
        <time>2013-09-22T09:13:07Z</time>
      </trkpt>
      <trkpt lat="47.3012" lon="-1.81871">
        <ele>33.7</ele>
        <time>2013-09-22T09:13:13Z</time>
      </trkpt>
      <trkpt lat="47.30128" lon="-1.81879">
        <ele>34.1</ele>
        <time>2013-09-22T09:13:17Z</time>
      </trkpt>
      <trkpt lat="47.30136" lon="-1.81887">
        <ele>34.4</ele>
        <time>2013-09-22T09:13:22Z</time>
      </trkpt>
      <trkpt lat="47.30144" lon="-1.81896">
        <ele>34.7</ele>
        <time>2013-09-22T09:13:26Z</time>
      </trkpt>
      <trkpt lat="47.30152" lon="-1.81904">
        <ele>35.1</ele>
        <time>2013-09-22T09:13:30Z</time>
      </trkpt>
      <trkpt lat="47.30154" lon="-1.81917">
        <ele>36.2</ele>
        <time>2013-09-22T09:13:36Z</time>
      </trkpt>
      <trkpt lat="47.30145" lon="-1.81911">
        <ele>37.4</ele>
        <time>2013-09-22T09:13:44Z</time>
      </trkpt>
      <trkpt lat="47.30138" lon="-1.81899">
        <ele>38</ele>
        <time>2013-09-22T09:13:48Z</time>
      </trkpt>
      <trkpt lat="47.30132" lon="-1.81888">
        <ele>38.4</ele>
        <time>2013-09-22T09:13:51Z</time>
      </trkpt>
      <trkpt lat="47.30124" lon="-1.8188">
        <ele>38.6</ele>
        <time>2013-09-22T09:13:54Z</time>
      </trkpt>
      <trkpt lat="47.30113" lon="-1.81878">
        <ele>39</ele>
        <time>2013-09-22T09:13:58Z</time>
      </trkpt>
      <trkpt lat="47.30106" lon="-1.8187">
        <ele>39.4</ele>
        <time>2013-09-22T09:14:01Z</time>
      </trkpt>
      <trkpt lat="47.30099" lon="-1.81861">
        <ele>39.5</ele>
        <time>2013-09-22T09:14:04Z</time>
      </trkpt>
      <trkpt lat="47.30095" lon="-1.81846">
        <ele>39.7</ele>
        <time>2013-09-22T09:14:07Z</time>
      </trkpt>
      <trkpt lat="47.30092" lon="-1.81833">
        <ele>39.5</ele>
        <time>2013-09-22T09:14:10Z</time>
      </trkpt>
      <trkpt lat="47.30085" lon="-1.81819">
        <ele>39.2</ele>
        <time>2013-09-22T09:14:14Z</time>
      </trkpt>
      <trkpt lat="47.30079" lon="-1.81806">
        <ele>39</ele>
        <time>2013-09-22T09:14:17Z</time>
      </trkpt>
      <trkpt lat="47.30073" lon="-1.81794">
        <ele>38.8</ele>
        <time>2013-09-22T09:14:19Z</time>
      </trkpt>
      <trkpt lat="47.30066" lon="-1.81782">
        <ele>38.3</ele>
        <time>2013-09-22T09:14:23Z</time>
      </trkpt>
      <trkpt lat="47.30059" lon="-1.81772">
        <ele>37.5</ele>
        <time>2013-09-22T09:14:27Z</time>
      </trkpt>
      <trkpt lat="47.30053" lon="-1.81762">
        <ele>35.7</ele>
        <time>2013-09-22T09:14:34Z</time>
      </trkpt>
      <trkpt lat="47.30061" lon="-1.8177">
        <ele>32.4</ele>
        <time>2013-09-22T09:14:50Z</time>
      </trkpt>
      <trkpt lat="47.30066" lon="-1.81785">
        <ele>31.7</ele>
        <time>2013-09-22T09:14:57Z</time>
      </trkpt>
      <trkpt lat="47.30072" lon="-1.81798">
        <ele>31.2</ele>
        <time>2013-09-22T09:15:04Z</time>
      </trkpt>
      <trkpt lat="47.30075" lon="-1.81814">
        <ele>31</ele>
        <time>2013-09-22T09:15:09Z</time>
      </trkpt>
      <trkpt lat="47.30083" lon="-1.81824">
        <ele>31.2</ele>
        <time>2013-09-22T09:15:13Z</time>
      </trkpt>
      <trkpt lat="47.30089" lon="-1.81836">
        <ele>31.3</ele>
        <time>2013-09-22T09:15:18Z</time>
      </trkpt>
      <trkpt lat="47.30094" lon="-1.81848">
        <ele>31.1</ele>
        <time>2013-09-22T09:15:22Z</time>
      </trkpt>
      <trkpt lat="47.30096" lon="-1.81862">
        <ele>30.8</ele>
        <time>2013-09-22T09:15:27Z</time>
      </trkpt>
      <trkpt lat="47.30101" lon="-1.81876">
        <ele>31.1</ele>
        <time>2013-09-22T09:15:32Z</time>
      </trkpt>
      <trkpt lat="47.30108" lon="-1.81886">
        <ele>31.8</ele>
        <time>2013-09-22T09:15:37Z</time>
      </trkpt>
      <trkpt lat="47.30113" lon="-1.81901">
        <ele>32.6</ele>
        <time>2013-09-22T09:15:41Z</time>
      </trkpt>
      <trkpt lat="47.30112" lon="-1.81917">
        <ele>33.4</ele>
        <time>2013-09-22T09:15:44Z</time>
      </trkpt>
      <trkpt lat="47.30114" lon="-1.8193">
        <ele>34</ele>
        <time>2013-09-22T09:15:48Z</time>
      </trkpt>
      <trkpt lat="47.30121" lon="-1.81941">
        <ele>34.9</ele>
        <time>2013-09-22T09:15:53Z</time>
      </trkpt>
      <trkpt lat="47.30122" lon="-1.81955">
        <ele>35.8</ele>
        <time>2013-09-22T09:15:58Z</time>
      </trkpt>
      <trkpt lat="47.30114" lon="-1.81964">
        <ele>36</ele>
        <time>2013-09-22T09:16:04Z</time>
      </trkpt>
      <trkpt lat="47.30103" lon="-1.81959">
        <ele>35.2</ele>
        <time>2013-09-22T09:16:10Z</time>
      </trkpt>
      <trkpt lat="47.30094" lon="-1.81952">
        <ele>34.4</ele>
        <time>2013-09-22T09:16:14Z</time>
      </trkpt>
      <trkpt lat="47.30086" lon="-1.81943">
        <ele>33.1</ele>
        <time>2013-09-22T09:16:18Z</time>
      </trkpt>
      <trkpt lat="47.3008" lon="-1.8193">
        <ele>31.9</ele>
        <time>2013-09-22T09:16:22Z</time>
      </trkpt>
      <trkpt lat="47.30077" lon="-1.81918">
        <ele>30.8</ele>
        <time>2013-09-22T09:16:27Z</time>
      </trkpt>
      <trkpt lat="47.30073" lon="-1.81906">
        <ele>30</ele>
        <time>2013-09-22T09:16:32Z</time>
      </trkpt>
      <trkpt lat="47.30064" lon="-1.81899">
        <ele>28</ele>
        <time>2013-09-22T09:16:39Z</time>
      </trkpt>
      <trkpt lat="47.30054" lon="-1.81893">
        <ele>22.8</ele>
        <time>2013-09-22T09:16:49Z</time>
      </trkpt>
      <trkpt lat="47.30048" lon="-1.81882">
        <ele>19.8</ele>
        <time>2013-09-22T09:16:55Z</time>
      </trkpt>
      <trkpt lat="47.30048" lon="-1.81868">
        <ele>17.8</ele>
        <time>2013-09-22T09:17:01Z</time>
      </trkpt>
      <trkpt lat="47.3005" lon="-1.81855">
        <ele>17.2</ele>
        <time>2013-09-22T09:17:08Z</time>
      </trkpt>
      <trkpt lat="47.30049" lon="-1.8184">
        <ele>16.1</ele>
        <time>2013-09-22T09:17:18Z</time>
      </trkpt>
      <trkpt lat="47.30045" lon="-1.81827">
        <ele>16.7</ele>
        <time>2013-09-22T09:17:27Z</time>
      </trkpt>
      <trkpt lat="47.30039" lon="-1.81813">
        <ele>16.8</ele>
        <time>2013-09-22T09:17:32Z</time>
      </trkpt>
      <trkpt lat="47.30038" lon="-1.818">
        <ele>17.3</ele>
        <time>2013-09-22T09:17:39Z</time>
      </trkpt>
      <trkpt lat="47.30037" lon="-1.81784">
        <ele>17.7</ele>
        <time>2013-09-22T09:17:42Z</time>
      </trkpt>
      <trkpt lat="47.30035" lon="-1.81767">
        <ele>18</ele>
        <time>2013-09-22T09:17:46Z</time>
      </trkpt>
      <trkpt lat="47.30036" lon="-1.81753">
        <ele>18.5</ele>
        <time>2013-09-22T09:17:51Z</time>
      </trkpt>
      <trkpt lat="47.30043" lon="-1.81742">
        <ele>19.8</ele>
        <time>2013-09-22T09:18:00Z</time>
      </trkpt>
      <trkpt lat="47.30039" lon="-1.8173">
        <ele>20.5</ele>
        <time>2013-09-22T09:18:05Z</time>
      </trkpt>
      <trkpt lat="47.30038" lon="-1.81712">
        <ele>20.9</ele>
        <time>2013-09-22T09:18:10Z</time>
      </trkpt>
      <trkpt lat="47.3004" lon="-1.81699">
        <ele>20.9</ele>
        <time>2013-09-22T09:18:15Z</time>
      </trkpt>
      <trkpt lat="47.3003" lon="-1.81698">
        <ele>21</ele>
        <time>2013-09-22T09:18:26Z</time>
      </trkpt>
      <trkpt lat="47.30023" lon="-1.81707">
        <ele>21</ele>
        <time>2013-09-22T09:18:31Z</time>
      </trkpt>
      <trkpt lat="47.30016" lon="-1.81719">
        <ele>20.9</ele>
        <time>2013-09-22T09:18:37Z</time>
      </trkpt>
      <trkpt lat="47.30013" lon="-1.81732">
        <ele>20.6</ele>
        <time>2013-09-22T09:18:42Z</time>
      </trkpt>
      <trkpt lat="47.30012" lon="-1.81719">
        <ele>20</ele>
        <time>2013-09-22T09:19:10Z</time>
      </trkpt>
      <trkpt lat="47.30007" lon="-1.8173">
        <ele>19.5</ele>
        <time>2013-09-22T09:19:29Z</time>
      </trkpt>
      <trkpt lat="47.30012" lon="-1.81717">
        <ele>20.4</ele>
        <time>2013-09-22T09:19:39Z</time>
      </trkpt>
      <trkpt lat="47.3002" lon="-1.81708">
        <ele>20.5</ele>
        <time>2013-09-22T09:19:45Z</time>
      </trkpt>
      <trkpt lat="47.30029" lon="-1.81702">
        <ele>20.6</ele>
        <time>2013-09-22T09:19:50Z</time>
      </trkpt>
      <trkpt lat="47.30037" lon="-1.81694">
        <ele>20.7</ele>
        <time>2013-09-22T09:19:54Z</time>
      </trkpt>
      <trkpt lat="47.30027" lon="-1.81697">
        <ele>25.9</ele>
        <time>2013-09-22T09:23:31Z</time>
      </trkpt>
      <trkpt lat="47.30019" lon="-1.81704">
        <ele>26.1</ele>
        <time>2013-09-22T09:23:34Z</time>
      </trkpt>
      <trkpt lat="47.30014" lon="-1.81715">
        <ele>26.2</ele>
        <time>2013-09-22T09:23:37Z</time>
      </trkpt>
      <trkpt lat="47.30011" lon="-1.81728">
        <ele>26.2</ele>
        <time>2013-09-22T09:23:42Z</time>
      </trkpt>
      <trkpt lat="47.3001" lon="-1.81743">
        <ele>26.2</ele>
        <time>2013-09-22T09:23:49Z</time>
      </trkpt>
      <trkpt lat="47.30009" lon="-1.81757">
        <ele>31.1</ele>
        <time>2013-09-22T09:24:42Z</time>
      </trkpt>
      <trkpt lat="47.30005" lon="-1.81769">
        <ele>31</ele>
        <time>2013-09-22T09:25:11Z</time>
      </trkpt>
      <trkpt lat="47.30007" lon="-1.81782">
        <ele>32.5</ele>
        <time>2013-09-22T09:25:34Z</time>
      </trkpt>
      <trkpt lat="47.30008" lon="-1.81797">
        <ele>32.4</ele>
        <time>2013-09-22T09:25:40Z</time>
      </trkpt>
      <trkpt lat="47.3001" lon="-1.81811">
        <ele>32.3</ele>
        <time>2013-09-22T09:25:44Z</time>
      </trkpt>
      <trkpt lat="47.30012" lon="-1.81826">
        <ele>32</ele>
        <time>2013-09-22T09:25:49Z</time>
      </trkpt>
      <trkpt lat="47.30015" lon="-1.81842">
        <ele>31.9</ele>
        <time>2013-09-22T09:25:53Z</time>
      </trkpt>
      <trkpt lat="47.30017" lon="-1.81858">
        <ele>31.7</ele>
        <time>2013-09-22T09:25:56Z</time>
      </trkpt>
      <trkpt lat="47.30019" lon="-1.81873">
        <ele>31</ele>
        <time>2013-09-22T09:25:59Z</time>
      </trkpt>
      <trkpt lat="47.30023" lon="-1.8189">
        <ele>30.5</ele>
        <time>2013-09-22T09:26:02Z</time>
      </trkpt>
      <trkpt lat="47.30029" lon="-1.81901">
        <ele>30.3</ele>
        <time>2013-09-22T09:26:05Z</time>
      </trkpt>
      <trkpt lat="47.30038" lon="-1.81907">
        <ele>30.2</ele>
        <time>2013-09-22T09:26:09Z</time>
      </trkpt>
      <trkpt lat="47.30048" lon="-1.81915">
        <ele>30.6</ele>
        <time>2013-09-22T09:26:17Z</time>
      </trkpt>
      <trkpt lat="47.30055" lon="-1.81924">
        <ele>30.6</ele>
        <time>2013-09-22T09:26:21Z</time>
      </trkpt>
      <trkpt lat="47.30062" lon="-1.81933">
        <ele>30.4</ele>
        <time>2013-09-22T09:26:25Z</time>
      </trkpt>
      <trkpt lat="47.30069" lon="-1.81941">
        <ele>29.9</ele>
        <time>2013-09-22T09:26:29Z</time>
      </trkpt>
      <trkpt lat="47.30077" lon="-1.8195">
        <ele>29.2</ele>
        <time>2013-09-22T09:26:33Z</time>
      </trkpt>
      <trkpt lat="47.30084" lon="-1.81959">
        <ele>28</ele>
        <time>2013-09-22T09:26:39Z</time>
      </trkpt>
      <trkpt lat="47.3009" lon="-1.81971">
        <ele>28.3</ele>
        <time>2013-09-22T09:26:47Z</time>
      </trkpt>
      <trkpt lat="47.30098" lon="-1.8198">
        <ele>29</ele>
        <time>2013-09-22T09:26:53Z</time>
      </trkpt>
      <trkpt lat="47.30107" lon="-1.81982">
        <ele>30.1</ele>
        <time>2013-09-22T09:27:00Z</time>
      </trkpt>
      <trkpt lat="47.30117" lon="-1.81981">
        <ele>31</ele>
        <time>2013-09-22T09:27:10Z</time>
      </trkpt>
      <trkpt lat="47.30125" lon="-1.81974">
        <ele>32.7</ele>
        <time>2013-09-22T09:27:18Z</time>
      </trkpt>
      <trkpt lat="47.30132" lon="-1.81964">
        <ele>36.4</ele>
        <time>2013-09-22T09:27:30Z</time>
      </trkpt>
      <trkpt lat="47.30143" lon="-1.81959">
        <ele>37.3</ele>
        <time>2013-09-22T09:27:36Z</time>
      </trkpt>
      <trkpt lat="47.30152" lon="-1.81959">
        <ele>37.7</ele>
        <time>2013-09-22T09:27:41Z</time>
      </trkpt>
      <trkpt lat="47.30162" lon="-1.81955">
        <ele>38.6</ele>
        <time>2013-09-22T09:29:02Z</time>
      </trkpt>
      <trkpt lat="47.30171" lon="-1.8195">
        <ele>38.8</ele>
        <time>2013-09-22T09:29:06Z</time>
      </trkpt>
      <trkpt lat="47.3018" lon="-1.81944">
        <ele>38.9</ele>
        <time>2013-09-22T09:29:09Z</time>
      </trkpt>
      <trkpt lat="47.30188" lon="-1.81936">
        <ele>39.2</ele>
        <time>2013-09-22T09:29:12Z</time>
      </trkpt>
      <trkpt lat="47.30198" lon="-1.81927">
        <ele>39.3</ele>
        <time>2013-09-22T09:29:15Z</time>
      </trkpt>
      <trkpt lat="47.30208" lon="-1.81919">
        <ele>39.4</ele>
        <time>2013-09-22T09:29:18Z</time>
      </trkpt>
      <trkpt lat="47.30216" lon="-1.81909">
        <ele>39.7</ele>
        <time>2013-09-22T09:29:23Z</time>
      </trkpt>
      <trkpt lat="47.30225" lon="-1.81904">
        <ele>39.9</ele>
        <time>2013-09-22T09:29:28Z</time>
      </trkpt>
      <trkpt lat="47.30234" lon="-1.81901">
        <ele>39.9</ele>
        <time>2013-09-22T09:29:34Z</time>
      </trkpt>
      <trkpt lat="47.30241" lon="-1.81894">
        <ele>40</ele>
        <time>2013-09-22T09:29:39Z</time>
      </trkpt>
      <trkpt lat="47.30249" lon="-1.81886">
        <ele>40.6</ele>
        <time>2013-09-22T09:29:44Z</time>
      </trkpt>
      <trkpt lat="47.30257" lon="-1.81877">
        <ele>40.9</ele>
        <time>2013-09-22T09:29:48Z</time>
      </trkpt>
      <trkpt lat="47.30265" lon="-1.81869">
        <ele>41.5</ele>
        <time>2013-09-22T09:29:53Z</time>
      </trkpt>
      <trkpt lat="47.30275" lon="-1.81861">
        <ele>41.9</ele>
        <time>2013-09-22T09:29:58Z</time>
      </trkpt>
      <trkpt lat="47.30284" lon="-1.81855">
        <ele>42.1</ele>
        <time>2013-09-22T09:30:03Z</time>
      </trkpt>
      <trkpt lat="47.30293" lon="-1.8185">
        <ele>42.5</ele>
        <time>2013-09-22T09:30:09Z</time>
      </trkpt>
      <trkpt lat="47.30302" lon="-1.81842">
        <ele>43</ele>
        <time>2013-09-22T09:30:14Z</time>
      </trkpt>
      <trkpt lat="47.3031" lon="-1.81833">
        <ele>43.3</ele>
        <time>2013-09-22T09:30:18Z</time>
      </trkpt>
      <trkpt lat="47.30318" lon="-1.81823">
        <ele>43.3</ele>
        <time>2013-09-22T09:30:22Z</time>
      </trkpt>
      <trkpt lat="47.30325" lon="-1.81811">
        <ele>43.5</ele>
        <time>2013-09-22T09:30:28Z</time>
      </trkpt>
      <trkpt lat="47.30334" lon="-1.81811">
        <ele>44.1</ele>
        <time>2013-09-22T09:30:37Z</time>
      </trkpt>
      <trkpt lat="47.30343" lon="-1.81817">
        <ele>45.2</ele>
        <time>2013-09-22T09:30:44Z</time>
      </trkpt>
      <trkpt lat="47.30351" lon="-1.81812">
        <ele>45.8</ele>
        <time>2013-09-22T09:30:48Z</time>
      </trkpt>
      <trkpt lat="47.30359" lon="-1.81804">
        <ele>46.1</ele>
        <time>2013-09-22T09:30:52Z</time>
      </trkpt>
      <trkpt lat="47.30368" lon="-1.81797">
        <ele>46.8</ele>
        <time>2013-09-22T09:30:57Z</time>
      </trkpt>
      <trkpt lat="47.30377" lon="-1.81791">
        <ele>47.6</ele>
        <time>2013-09-22T09:31:02Z</time>
      </trkpt>
      <trkpt lat="47.30385" lon="-1.81799">
        <ele>48.7</ele>
        <time>2013-09-22T09:31:08Z</time>
      </trkpt>
      <trkpt lat="47.30392" lon="-1.81811">
        <ele>49.4</ele>
        <time>2013-09-22T09:31:12Z</time>
      </trkpt>
      <trkpt lat="47.30398" lon="-1.81821">
        <ele>49.9</ele>
        <time>2013-09-22T09:31:15Z</time>
      </trkpt>
      <trkpt lat="47.30404" lon="-1.81831">
        <ele>50.4</ele>
        <time>2013-09-22T09:31:18Z</time>
      </trkpt>
      <trkpt lat="47.30411" lon="-1.81845">
        <ele>50.9</ele>
        <time>2013-09-22T09:31:22Z</time>
      </trkpt>
      <trkpt lat="47.30417" lon="-1.81856">
        <ele>51.5</ele>
        <time>2013-09-22T09:31:26Z</time>
      </trkpt>
      <trkpt lat="47.30427" lon="-1.81857">
        <ele>52.3</ele>
        <time>2013-09-22T09:31:32Z</time>
      </trkpt>
      <trkpt lat="47.30431" lon="-1.81845">
        <ele>54</ele>
        <time>2013-09-22T09:32:00Z</time>
      </trkpt>
      <trkpt lat="47.30438" lon="-1.81834">
        <ele>57.5</ele>
        <time>2013-09-22T09:42:44Z</time>
      </trkpt>
      <trkpt lat="47.30446" lon="-1.81824">
        <ele>57.4</ele>
        <time>2013-09-22T09:42:47Z</time>
      </trkpt>
      <trkpt lat="47.30453" lon="-1.81814">
        <ele>57.5</ele>
        <time>2013-09-22T09:42:50Z</time>
      </trkpt>
      <trkpt lat="47.30462" lon="-1.81801">
        <ele>57.6</ele>
        <time>2013-09-22T09:42:53Z</time>
      </trkpt>
      <trkpt lat="47.30469" lon="-1.81791">
        <ele>58.3</ele>
        <time>2013-09-22T09:42:55Z</time>
      </trkpt>
      <trkpt lat="47.30478" lon="-1.81776">
        <ele>58.8</ele>
        <time>2013-09-22T09:42:58Z</time>
      </trkpt>
      <trkpt lat="47.30485" lon="-1.81765">
        <ele>58.9</ele>
        <time>2013-09-22T09:43:00Z</time>
      </trkpt>
      <trkpt lat="47.30492" lon="-1.81751">
        <ele>58.8</ele>
        <time>2013-09-22T09:43:02Z</time>
      </trkpt>
      <trkpt lat="47.305" lon="-1.81737">
        <ele>58.7</ele>
        <time>2013-09-22T09:43:04Z</time>
      </trkpt>
      <trkpt lat="47.30507" lon="-1.81724">
        <ele>58.7</ele>
        <time>2013-09-22T09:43:06Z</time>
      </trkpt>
      <trkpt lat="47.30513" lon="-1.81711">
        <ele>59.2</ele>
        <time>2013-09-22T09:43:08Z</time>
      </trkpt>
      <trkpt lat="47.30519" lon="-1.81699">
        <ele>60</ele>
        <time>2013-09-22T09:43:10Z</time>
      </trkpt>
      <trkpt lat="47.30525" lon="-1.81687">
        <ele>60.2</ele>
        <time>2013-09-22T09:43:12Z</time>
      </trkpt>
      <trkpt lat="47.3053" lon="-1.81675">
        <ele>60.2</ele>
        <time>2013-09-22T09:43:14Z</time>
      </trkpt>
      <trkpt lat="47.30537" lon="-1.81664">
        <ele>59.7</ele>
        <time>2013-09-22T09:43:16Z</time>
      </trkpt>
      <trkpt lat="47.30543" lon="-1.81652">
        <ele>59.5</ele>
        <time>2013-09-22T09:43:18Z</time>
      </trkpt>
      <trkpt lat="47.30549" lon="-1.8164">
        <ele>59.9</ele>
        <time>2013-09-22T09:43:20Z</time>
      </trkpt>
      <trkpt lat="47.30555" lon="-1.81627">
        <ele>59.7</ele>
        <time>2013-09-22T09:43:22Z</time>
      </trkpt>
      <trkpt lat="47.30564" lon="-1.81613">
        <ele>60.2</ele>
        <time>2013-09-22T09:43:25Z</time>
      </trkpt>
      <trkpt lat="47.30572" lon="-1.81598">
        <ele>60.2</ele>
        <time>2013-09-22T09:43:28Z</time>
      </trkpt>
      <trkpt lat="47.30578" lon="-1.81587">
        <ele>60.4</ele>
        <time>2013-09-22T09:43:30Z</time>
      </trkpt>
      <trkpt lat="47.30585" lon="-1.81575">
        <ele>60.1</ele>
        <time>2013-09-22T09:43:32Z</time>
      </trkpt>
      <trkpt lat="47.30592" lon="-1.81564">
        <ele>60.6</ele>
        <time>2013-09-22T09:43:34Z</time>
      </trkpt>
      <trkpt lat="47.306" lon="-1.81552">
        <ele>60.8</ele>
        <time>2013-09-22T09:43:36Z</time>
      </trkpt>
      <trkpt lat="47.30608" lon="-1.8154">
        <ele>60.4</ele>
        <time>2013-09-22T09:43:38Z</time>
      </trkpt>
      <trkpt lat="47.30616" lon="-1.81527">
        <ele>60.3</ele>
        <time>2013-09-22T09:43:40Z</time>
      </trkpt>
      <trkpt lat="47.30623" lon="-1.81515">
        <ele>59.8</ele>
        <time>2013-09-22T09:43:42Z</time>
      </trkpt>
      <trkpt lat="47.30631" lon="-1.81502">
        <ele>59.7</ele>
        <time>2013-09-22T09:43:44Z</time>
      </trkpt>
      <trkpt lat="47.30639" lon="-1.81489">
        <ele>59.3</ele>
        <time>2013-09-22T09:43:46Z</time>
      </trkpt>
      <trkpt lat="47.30646" lon="-1.81476">
        <ele>60.2</ele>
        <time>2013-09-22T09:43:48Z</time>
      </trkpt>
      <trkpt lat="47.30654" lon="-1.81463">
        <ele>61.6</ele>
        <time>2013-09-22T09:43:50Z</time>
      </trkpt>
      <trkpt lat="47.30662" lon="-1.8145">
        <ele>62.1</ele>
        <time>2013-09-22T09:43:52Z</time>
      </trkpt>
      <trkpt lat="47.3067" lon="-1.81438">
        <ele>63</ele>
        <time>2013-09-22T09:43:54Z</time>
      </trkpt>
      <trkpt lat="47.30678" lon="-1.81424">
        <ele>63.3</ele>
        <time>2013-09-22T09:43:56Z</time>
      </trkpt>
      <trkpt lat="47.30685" lon="-1.81411">
        <ele>63.6</ele>
        <time>2013-09-22T09:43:58Z</time>
      </trkpt>
      <trkpt lat="47.30693" lon="-1.81397">
        <ele>64.1</ele>
        <time>2013-09-22T09:44:00Z</time>
      </trkpt>
      <trkpt lat="47.307" lon="-1.81384">
        <ele>64.4</ele>
        <time>2013-09-22T09:44:02Z</time>
      </trkpt>
      <trkpt lat="47.30708" lon="-1.8137">
        <ele>64.3</ele>
        <time>2013-09-22T09:44:04Z</time>
      </trkpt>
      <trkpt lat="47.30715" lon="-1.81356">
        <ele>64.5</ele>
        <time>2013-09-22T09:44:06Z</time>
      </trkpt>
      <trkpt lat="47.30723" lon="-1.81343">
        <ele>64.3</ele>
        <time>2013-09-22T09:44:08Z</time>
      </trkpt>
      <trkpt lat="47.3073" lon="-1.81329">
        <ele>64.3</ele>
        <time>2013-09-22T09:44:10Z</time>
      </trkpt>
      <trkpt lat="47.30738" lon="-1.81316">
        <ele>64.3</ele>
        <time>2013-09-22T09:44:12Z</time>
      </trkpt>
      <trkpt lat="47.30743" lon="-1.81305">
        <ele>64.2</ele>
        <time>2013-09-22T09:44:14Z</time>
      </trkpt>
      <trkpt lat="47.30747" lon="-1.81293">
        <ele>64.1</ele>
        <time>2013-09-22T09:44:16Z</time>
      </trkpt>
      <trkpt lat="47.30742" lon="-1.81277">
        <ele>63.7</ele>
        <time>2013-09-22T09:44:19Z</time>
      </trkpt>
      <trkpt lat="47.30732" lon="-1.81271">
        <ele>63.8</ele>
        <time>2013-09-22T09:44:21Z</time>
      </trkpt>
      <trkpt lat="47.30718" lon="-1.8127">
        <ele>63.7</ele>
        <time>2013-09-22T09:44:23Z</time>
      </trkpt>
      <trkpt lat="47.30703" lon="-1.8127">
        <ele>62.9</ele>
        <time>2013-09-22T09:44:25Z</time>
      </trkpt>
      <trkpt lat="47.30687" lon="-1.81268">
        <ele>62</ele>
        <time>2013-09-22T09:44:27Z</time>
      </trkpt>
      <trkpt lat="47.30672" lon="-1.8126">
        <ele>61.1</ele>
        <time>2013-09-22T09:44:29Z</time>
      </trkpt>
      <trkpt lat="47.3066" lon="-1.81249">
        <ele>60.8</ele>
        <time>2013-09-22T09:44:31Z</time>
      </trkpt>
      <trkpt lat="47.30648" lon="-1.81236">
        <ele>60.8</ele>
        <time>2013-09-22T09:44:33Z</time>
      </trkpt>
      <trkpt lat="47.30639" lon="-1.81223">
        <ele>60.3</ele>
        <time>2013-09-22T09:44:35Z</time>
      </trkpt>
      <trkpt lat="47.3063" lon="-1.81208">
        <ele>59.7</ele>
        <time>2013-09-22T09:44:37Z</time>
      </trkpt>
      <trkpt lat="47.3062" lon="-1.81189">
        <ele>59.7</ele>
        <time>2013-09-22T09:44:39Z</time>
      </trkpt>
      <trkpt lat="47.30612" lon="-1.81171">
        <ele>59.5</ele>
        <time>2013-09-22T09:44:41Z</time>
      </trkpt>
      <trkpt lat="47.30605" lon="-1.81154">
        <ele>58.8</ele>
        <time>2013-09-22T09:44:43Z</time>
      </trkpt>
      <trkpt lat="47.30599" lon="-1.81138">
        <ele>58.6</ele>
        <time>2013-09-22T09:44:45Z</time>
      </trkpt>
      <trkpt lat="47.30594" lon="-1.81124">
        <ele>58.4</ele>
        <time>2013-09-22T09:44:47Z</time>
      </trkpt>
      <trkpt lat="47.30591" lon="-1.81111">
        <ele>59</ele>
        <time>2013-09-22T09:44:49Z</time>
      </trkpt>
      <trkpt lat="47.30587" lon="-1.81098">
        <ele>59.8</ele>
        <time>2013-09-22T09:44:51Z</time>
      </trkpt>
      <trkpt lat="47.30582" lon="-1.81084">
        <ele>61.1</ele>
        <time>2013-09-22T09:44:53Z</time>
      </trkpt>
      <trkpt lat="47.30577" lon="-1.81065">
        <ele>62.9</ele>
        <time>2013-09-22T09:44:56Z</time>
      </trkpt>
      <trkpt lat="47.30573" lon="-1.81052">
        <ele>63.3</ele>
        <time>2013-09-22T09:44:58Z</time>
      </trkpt>
      <trkpt lat="47.30568" lon="-1.81039">
        <ele>63.3</ele>
        <time>2013-09-22T09:45:00Z</time>
      </trkpt>
      <trkpt lat="47.30563" lon="-1.81024">
        <ele>62</ele>
        <time>2013-09-22T09:45:02Z</time>
      </trkpt>
      <trkpt lat="47.3056" lon="-1.81008">
        <ele>61</ele>
        <time>2013-09-22T09:45:04Z</time>
      </trkpt>
      <trkpt lat="47.30559" lon="-1.80991">
        <ele>60.9</ele>
        <time>2013-09-22T09:45:06Z</time>
      </trkpt>
      <trkpt lat="47.30565" lon="-1.80973">
        <ele>58.4</ele>
        <time>2013-09-22T09:45:08Z</time>
      </trkpt>
      <trkpt lat="47.30572" lon="-1.80958">
        <ele>57</ele>
        <time>2013-09-22T09:45:10Z</time>
      </trkpt>
      <trkpt lat="47.30577" lon="-1.80946">
        <ele>56.2</ele>
        <time>2013-09-22T09:45:12Z</time>
      </trkpt>
      <trkpt lat="47.30579" lon="-1.80932">
        <ele>55.5</ele>
        <time>2013-09-22T09:45:14Z</time>
      </trkpt>
      <trkpt lat="47.30582" lon="-1.80919">
        <ele>55</ele>
        <time>2013-09-22T09:45:16Z</time>
      </trkpt>
      <trkpt lat="47.30585" lon="-1.80901">
        <ele>55</ele>
        <time>2013-09-22T09:45:19Z</time>
      </trkpt>
      <trkpt lat="47.30588" lon="-1.80886">
        <ele>53.8</ele>
        <time>2013-09-22T09:45:22Z</time>
      </trkpt>
      <trkpt lat="47.30592" lon="-1.80869">
        <ele>53.3</ele>
        <time>2013-09-22T09:45:27Z</time>
      </trkpt>
      <trkpt lat="47.3059" lon="-1.80855">
        <ele>52.9</ele>
        <time>2013-09-22T09:45:31Z</time>
      </trkpt>
      <trkpt lat="47.30584" lon="-1.80845">
        <ele>52.1</ele>
        <time>2013-09-22T09:45:34Z</time>
      </trkpt>
      <trkpt lat="47.30575" lon="-1.80838">
        <ele>50.1</ele>
        <time>2013-09-22T09:45:39Z</time>
      </trkpt>
      <trkpt lat="47.30567" lon="-1.80829">
        <ele>47.8</ele>
        <time>2013-09-22T09:45:44Z</time>
      </trkpt>
      <trkpt lat="47.30566" lon="-1.80815">
        <ele>44.4</ele>
        <time>2013-09-22T09:45:52Z</time>
      </trkpt>
      <trkpt lat="47.3057" lon="-1.80801">
        <ele>43.7</ele>
        <time>2013-09-22T09:45:56Z</time>
      </trkpt>
      <trkpt lat="47.30575" lon="-1.80787">
        <ele>43.3</ele>
        <time>2013-09-22T09:46:01Z</time>
      </trkpt>
      <trkpt lat="47.30579" lon="-1.80772">
        <ele>42.9</ele>
        <time>2013-09-22T09:46:04Z</time>
      </trkpt>
      <trkpt lat="47.30585" lon="-1.80754">
        <ele>42.3</ele>
        <time>2013-09-22T09:46:07Z</time>
      </trkpt>
      <trkpt lat="47.30593" lon="-1.8074">
        <ele>41.8</ele>
        <time>2013-09-22T09:46:10Z</time>
      </trkpt>
      <trkpt lat="47.30604" lon="-1.80729">
        <ele>41.4</ele>
        <time>2013-09-22T09:46:13Z</time>
      </trkpt>
      <trkpt lat="47.30615" lon="-1.8072">
        <ele>41</ele>
        <time>2013-09-22T09:46:16Z</time>
      </trkpt>
      <trkpt lat="47.30626" lon="-1.8071">
        <ele>40.9</ele>
        <time>2013-09-22T09:46:19Z</time>
      </trkpt>
      <trkpt lat="47.30636" lon="-1.80701">
        <ele>40.8</ele>
        <time>2013-09-22T09:46:22Z</time>
      </trkpt>
      <trkpt lat="47.30645" lon="-1.80698">
        <ele>40.7</ele>
        <time>2013-09-22T09:46:26Z</time>
      </trkpt>
      <trkpt lat="47.30656" lon="-1.80695">
        <ele>40.6</ele>
        <time>2013-09-22T09:46:32Z</time>
      </trkpt>
      <trkpt lat="47.30664" lon="-1.80689">
        <ele>40.9</ele>
        <time>2013-09-22T09:46:35Z</time>
      </trkpt>
      <trkpt lat="47.30672" lon="-1.80678">
        <ele>41.7</ele>
        <time>2013-09-22T09:46:39Z</time>
      </trkpt>
      <trkpt lat="47.30674" lon="-1.80663">
        <ele>42.1</ele>
        <time>2013-09-22T09:46:42Z</time>
      </trkpt>
      <trkpt lat="47.30671" lon="-1.80649">
        <ele>42.4</ele>
        <time>2013-09-22T09:46:45Z</time>
      </trkpt>
      <trkpt lat="47.30673" lon="-1.80633">
        <ele>42.4</ele>
        <time>2013-09-22T09:46:50Z</time>
      </trkpt>
      <trkpt lat="47.30678" lon="-1.80619">
        <ele>42.5</ele>
        <time>2013-09-22T09:46:55Z</time>
      </trkpt>
      <trkpt lat="47.30685" lon="-1.80602">
        <ele>43.5</ele>
        <time>2013-09-22T09:47:08Z</time>
      </trkpt>
      <trkpt lat="47.3069" lon="-1.80591">
        <ele>44.7</ele>
        <time>2013-09-22T09:47:15Z</time>
      </trkpt>
      <trkpt lat="47.30694" lon="-1.80579">
        <ele>44.9</ele>
        <time>2013-09-22T09:47:23Z</time>
      </trkpt>
      <trkpt lat="47.307" lon="-1.80567">
        <ele>43.7</ele>
        <time>2013-09-22T09:47:32Z</time>
      </trkpt>
      <trkpt lat="47.307" lon="-1.80551">
        <ele>43.5</ele>
        <time>2013-09-22T09:47:49Z</time>
      </trkpt>
      <trkpt lat="47.30701" lon="-1.80533">
        <ele>45.8</ele>
        <time>2013-09-22T09:47:59Z</time>
      </trkpt>
      <trkpt lat="47.3071" lon="-1.80528">
        <ele>47.3</ele>
        <time>2013-09-22T09:48:05Z</time>
      </trkpt>
      <trkpt lat="47.30721" lon="-1.80533">
        <ele>48.2</ele>
        <time>2013-09-22T09:48:14Z</time>
      </trkpt>
      <trkpt lat="47.30734" lon="-1.80539">
        <ele>52.2</ele>
        <time>2013-09-22T09:48:34Z</time>
      </trkpt>
      <trkpt lat="47.30745" lon="-1.8054">
        <ele>53.1</ele>
        <time>2013-09-22T09:48:42Z</time>
      </trkpt>
      <trkpt lat="47.30754" lon="-1.8054">
        <ele>54.9</ele>
        <time>2013-09-22T09:48:51Z</time>
      </trkpt>
      <trkpt lat="47.30764" lon="-1.80541">
        <ele>55.9</ele>
        <time>2013-09-22T09:48:56Z</time>
      </trkpt>
      <trkpt lat="47.30773" lon="-1.80538">
        <ele>56.7</ele>
        <time>2013-09-22T09:49:00Z</time>
      </trkpt>
      <trkpt lat="47.30784" lon="-1.80534">
        <ele>57.5</ele>
        <time>2013-09-22T09:49:05Z</time>
      </trkpt>
      <trkpt lat="47.30795" lon="-1.80531">
        <ele>58.2</ele>
        <time>2013-09-22T09:49:09Z</time>
      </trkpt>
      <trkpt lat="47.30802" lon="-1.80522">
        <ele>58.6</ele>
        <time>2013-09-22T09:49:12Z</time>
      </trkpt>
      <trkpt lat="47.30809" lon="-1.80511">
        <ele>59.1</ele>
        <time>2013-09-22T09:49:16Z</time>
      </trkpt>
      <trkpt lat="47.30818" lon="-1.80502">
        <ele>59.7</ele>
        <time>2013-09-22T09:49:21Z</time>
      </trkpt>
      <trkpt lat="47.30825" lon="-1.80493">
        <ele>60</ele>
        <time>2013-09-22T09:49:26Z</time>
      </trkpt>
      <trkpt lat="47.30835" lon="-1.80487">
        <ele>60.1</ele>
        <time>2013-09-22T09:49:30Z</time>
      </trkpt>
      <trkpt lat="47.30844" lon="-1.80479">
        <ele>60</ele>
        <time>2013-09-22T09:49:35Z</time>
      </trkpt>
      <trkpt lat="47.30853" lon="-1.80475">
        <ele>59.6</ele>
        <time>2013-09-22T09:49:38Z</time>
      </trkpt>
      <trkpt lat="47.30861" lon="-1.80463">
        <ele>59.5</ele>
        <time>2013-09-22T09:49:42Z</time>
      </trkpt>
      <trkpt lat="47.30864" lon="-1.80449">
        <ele>59.5</ele>
        <time>2013-09-22T09:49:46Z</time>
      </trkpt>
      <trkpt lat="47.30868" lon="-1.80434">
        <ele>59.7</ele>
        <time>2013-09-22T09:49:50Z</time>
      </trkpt>
      <trkpt lat="47.30871" lon="-1.80422">
        <ele>60</ele>
        <time>2013-09-22T09:49:54Z</time>
      </trkpt>
      <trkpt lat="47.30874" lon="-1.80405">
        <ele>60.2</ele>
        <time>2013-09-22T09:49:58Z</time>
      </trkpt>
      <trkpt lat="47.30877" lon="-1.8039">
        <ele>60.6</ele>
        <time>2013-09-22T09:50:01Z</time>
      </trkpt>
      <trkpt lat="47.3088" lon="-1.80377">
        <ele>60.9</ele>
        <time>2013-09-22T09:50:04Z</time>
      </trkpt>
      <trkpt lat="47.30882" lon="-1.80364">
        <ele>61.2</ele>
        <time>2013-09-22T09:50:08Z</time>
      </trkpt>
      <trkpt lat="47.30887" lon="-1.80351">
        <ele>61.2</ele>
        <time>2013-09-22T09:50:12Z</time>
      </trkpt>
      <trkpt lat="47.30891" lon="-1.80336">
        <ele>61.3</ele>
        <time>2013-09-22T09:50:16Z</time>
      </trkpt>
      <trkpt lat="47.30894" lon="-1.80323">
        <ele>61.3</ele>
        <time>2013-09-22T09:50:20Z</time>
      </trkpt>
      <trkpt lat="47.30898" lon="-1.8031">
        <ele>61.1</ele>
        <time>2013-09-22T09:50:25Z</time>
      </trkpt>
      <trkpt lat="47.30904" lon="-1.80299">
        <ele>60.8</ele>
        <time>2013-09-22T09:50:29Z</time>
      </trkpt>
      <trkpt lat="47.30911" lon="-1.80289">
        <ele>60.5</ele>
        <time>2013-09-22T09:50:32Z</time>
      </trkpt>
      <trkpt lat="47.30919" lon="-1.80279">
        <ele>60.3</ele>
        <time>2013-09-22T09:50:36Z</time>
      </trkpt>
      <trkpt lat="47.30928" lon="-1.8027">
        <ele>60</ele>
        <time>2013-09-22T09:50:40Z</time>
      </trkpt>
      <trkpt lat="47.30938" lon="-1.80264">
        <ele>59.8</ele>
        <time>2013-09-22T09:50:43Z</time>
      </trkpt>
      <trkpt lat="47.30947" lon="-1.80262">
        <ele>59.6</ele>
        <time>2013-09-22T09:50:46Z</time>
      </trkpt>
      <trkpt lat="47.30957" lon="-1.80258">
        <ele>59.5</ele>
        <time>2013-09-22T09:50:49Z</time>
      </trkpt>
      <trkpt lat="47.30968" lon="-1.80254">
        <ele>59.5</ele>
        <time>2013-09-22T09:50:52Z</time>
      </trkpt>
      <trkpt lat="47.30979" lon="-1.80251">
        <ele>59.3</ele>
        <time>2013-09-22T09:50:56Z</time>
      </trkpt>
      <trkpt lat="47.3099" lon="-1.80251">
        <ele>59.2</ele>
        <time>2013-09-22T09:51:01Z</time>
      </trkpt>
      <trkpt lat="47.31" lon="-1.80258">
        <ele>58.9</ele>
        <time>2013-09-22T09:51:05Z</time>
      </trkpt>
      <trkpt lat="47.31004" lon="-1.8027">
        <ele>58.8</ele>
        <time>2013-09-22T09:51:08Z</time>
      </trkpt>
      <trkpt lat="47.31005" lon="-1.80288">
        <ele>58.9</ele>
        <time>2013-09-22T09:51:10Z</time>
      </trkpt>
      <trkpt lat="47.31" lon="-1.80307">
        <ele>59.2</ele>
        <time>2013-09-22T09:51:12Z</time>
      </trkpt>
      <trkpt lat="47.30993" lon="-1.80319">
        <ele>59.2</ele>
        <time>2013-09-22T09:51:14Z</time>
      </trkpt>
      <trkpt lat="47.30987" lon="-1.80334">
        <ele>59.4</ele>
        <time>2013-09-22T09:51:17Z</time>
      </trkpt>
      <trkpt lat="47.3099" lon="-1.80347">
        <ele>59.8</ele>
        <time>2013-09-22T09:51:20Z</time>
      </trkpt>
      <trkpt lat="47.30998" lon="-1.80359">
        <ele>60.2</ele>
        <time>2013-09-22T09:51:23Z</time>
      </trkpt>
      <trkpt lat="47.31006" lon="-1.80369">
        <ele>60.7</ele>
        <time>2013-09-22T09:51:26Z</time>
      </trkpt>
      <trkpt lat="47.31015" lon="-1.80382">
        <ele>61.2</ele>
        <time>2013-09-22T09:51:29Z</time>
      </trkpt>
      <trkpt lat="47.31021" lon="-1.80392">
        <ele>63</ele>
        <time>2013-09-22T09:51:31Z</time>
      </trkpt>
      <trkpt lat="47.31029" lon="-1.80404">
        <ele>65</ele>
        <time>2013-09-22T09:51:34Z</time>
      </trkpt>
      <trkpt lat="47.31035" lon="-1.80415">
        <ele>65.2</ele>
        <time>2013-09-22T09:51:37Z</time>
      </trkpt>
      <trkpt lat="47.31043" lon="-1.80422">
        <ele>65.6</ele>
        <time>2013-09-22T09:51:42Z</time>
      </trkpt>
      <trkpt lat="47.3105" lon="-1.80413">
        <ele>65.8</ele>
        <time>2013-09-22T09:51:47Z</time>
      </trkpt>
      <trkpt lat="47.31057" lon="-1.80402">
        <ele>65.6</ele>
        <time>2013-09-22T09:51:52Z</time>
      </trkpt>
      <trkpt lat="47.31063" lon="-1.80391">
        <ele>67.6</ele>
        <time>2013-09-22T10:05:46Z</time>
      </trkpt>
      <trkpt lat="47.3107" lon="-1.80378">
        <ele>67.2</ele>
        <time>2013-09-22T10:06:29Z</time>
      </trkpt>
      <trkpt lat="47.31077" lon="-1.80368">
        <ele>67.3</ele>
        <time>2013-09-22T10:06:32Z</time>
      </trkpt>
      <trkpt lat="47.31085" lon="-1.80359">
        <ele>67.5</ele>
        <time>2013-09-22T10:06:35Z</time>
      </trkpt>
      <trkpt lat="47.31092" lon="-1.8035">
        <ele>67.8</ele>
        <time>2013-09-22T10:06:38Z</time>
      </trkpt>
      <trkpt lat="47.31099" lon="-1.8034">
        <ele>68</ele>
        <time>2013-09-22T10:06:41Z</time>
      </trkpt>
      <trkpt lat="47.31105" lon="-1.80329">
        <ele>68.1</ele>
        <time>2013-09-22T10:06:44Z</time>
      </trkpt>
      <trkpt lat="47.31112" lon="-1.80315">
        <ele>68.3</ele>
        <time>2013-09-22T10:06:48Z</time>
      </trkpt>
      <trkpt lat="47.31119" lon="-1.80301">
        <ele>68.2</ele>
        <time>2013-09-22T10:06:52Z</time>
      </trkpt>
      <trkpt lat="47.31124" lon="-1.80289">
        <ele>68.3</ele>
        <time>2013-09-22T10:06:55Z</time>
      </trkpt>
      <trkpt lat="47.3113" lon="-1.80274">
        <ele>68.4</ele>
        <time>2013-09-22T10:06:59Z</time>
      </trkpt>
      <trkpt lat="47.31134" lon="-1.80261">
        <ele>68.5</ele>
        <time>2013-09-22T10:07:02Z</time>
      </trkpt>
      <trkpt lat="47.31141" lon="-1.80248">
        <ele>68.7</ele>
        <time>2013-09-22T10:07:05Z</time>
      </trkpt>
      <trkpt lat="47.3115" lon="-1.80238">
        <ele>68.8</ele>
        <time>2013-09-22T10:07:08Z</time>
      </trkpt>
      <trkpt lat="47.3116" lon="-1.80231">
        <ele>69.1</ele>
        <time>2013-09-22T10:07:11Z</time>
      </trkpt>
      <trkpt lat="47.31169" lon="-1.80227">
        <ele>69.5</ele>
        <time>2013-09-22T10:07:14Z</time>
      </trkpt>
      <trkpt lat="47.3118" lon="-1.80226">
        <ele>69.9</ele>
        <time>2013-09-22T10:07:17Z</time>
      </trkpt>
      <trkpt lat="47.31192" lon="-1.80225">
        <ele>70.4</ele>
        <time>2013-09-22T10:07:20Z</time>
      </trkpt>
      <trkpt lat="47.31204" lon="-1.80224">
        <ele>70.9</ele>
        <time>2013-09-22T10:07:23Z</time>
      </trkpt>
      <trkpt lat="47.31214" lon="-1.80222">
        <ele>71.3</ele>
        <time>2013-09-22T10:07:26Z</time>
      </trkpt>
      <trkpt lat="47.31224" lon="-1.80219">
        <ele>71.8</ele>
        <time>2013-09-22T10:07:30Z</time>
      </trkpt>
      <trkpt lat="47.31233" lon="-1.80219">
        <ele>72.4</ele>
        <time>2013-09-22T10:07:35Z</time>
      </trkpt>
      <trkpt lat="47.3124" lon="-1.80228">
        <ele>72.8</ele>
        <time>2013-09-22T10:07:40Z</time>
      </trkpt>
      <trkpt lat="47.31243" lon="-1.80244">
        <ele>73.1</ele>
        <time>2013-09-22T10:07:44Z</time>
      </trkpt>
      <trkpt lat="47.31245" lon="-1.80257">
        <ele>73.2</ele>
        <time>2013-09-22T10:07:47Z</time>
      </trkpt>
      <trkpt lat="47.31249" lon="-1.80272">
        <ele>73.2</ele>
        <time>2013-09-22T10:07:50Z</time>
      </trkpt>
      <trkpt lat="47.31252" lon="-1.80286">
        <ele>73.3</ele>
        <time>2013-09-22T10:07:53Z</time>
      </trkpt>
      <trkpt lat="47.31256" lon="-1.80301">
        <ele>73.3</ele>
        <time>2013-09-22T10:07:56Z</time>
      </trkpt>
      <trkpt lat="47.31259" lon="-1.80318">
        <ele>73.3</ele>
        <time>2013-09-22T10:07:59Z</time>
      </trkpt>
      <trkpt lat="47.31263" lon="-1.80334">
        <ele>73.3</ele>
        <time>2013-09-22T10:08:02Z</time>
      </trkpt>
      <trkpt lat="47.31265" lon="-1.8035">
        <ele>73.2</ele>
        <time>2013-09-22T10:08:05Z</time>
      </trkpt>
      <trkpt lat="47.31268" lon="-1.80365">
        <ele>73.4</ele>
        <time>2013-09-22T10:08:08Z</time>
      </trkpt>
      <trkpt lat="47.31272" lon="-1.80382">
        <ele>74</ele>
        <time>2013-09-22T10:08:11Z</time>
      </trkpt>
      <trkpt lat="47.31277" lon="-1.80401">
        <ele>74.9</ele>
        <time>2013-09-22T10:08:14Z</time>
      </trkpt>
      <trkpt lat="47.3128" lon="-1.80415">
        <ele>76.8</ele>
        <time>2013-09-22T10:08:16Z</time>
      </trkpt>
      <trkpt lat="47.31283" lon="-1.80428">
        <ele>77.7</ele>
        <time>2013-09-22T10:08:18Z</time>
      </trkpt>
      <trkpt lat="47.31287" lon="-1.80441">
        <ele>77.8</ele>
        <time>2013-09-22T10:08:20Z</time>
      </trkpt>
      <trkpt lat="47.31293" lon="-1.80455">
        <ele>77.8</ele>
        <time>2013-09-22T10:08:22Z</time>
      </trkpt>
      <trkpt lat="47.31297" lon="-1.80468">
        <ele>77.3</ele>
        <time>2013-09-22T10:08:24Z</time>
      </trkpt>
      <trkpt lat="47.31302" lon="-1.80482">
        <ele>76.8</ele>
        <time>2013-09-22T10:08:26Z</time>
      </trkpt>
      <trkpt lat="47.31307" lon="-1.80498">
        <ele>76.8</ele>
        <time>2013-09-22T10:08:28Z</time>
      </trkpt>
      <trkpt lat="47.3131" lon="-1.80512">
        <ele>76.4</ele>
        <time>2013-09-22T10:08:30Z</time>
      </trkpt>
      <trkpt lat="47.31313" lon="-1.80525">
        <ele>76.4</ele>
        <time>2013-09-22T10:08:32Z</time>
      </trkpt>
      <trkpt lat="47.31316" lon="-1.80538">
        <ele>74.9</ele>
        <time>2013-09-22T10:08:34Z</time>
      </trkpt>
      <trkpt lat="47.31319" lon="-1.80551">
        <ele>73.8</ele>
        <time>2013-09-22T10:08:36Z</time>
      </trkpt>
      <trkpt lat="47.31323" lon="-1.80564">
        <ele>73.6</ele>
        <time>2013-09-22T10:08:38Z</time>
      </trkpt>
      <trkpt lat="47.31327" lon="-1.80577">
        <ele>74.5</ele>
        <time>2013-09-22T10:08:40Z</time>
      </trkpt>
      <trkpt lat="47.31332" lon="-1.80592">
        <ele>77.5</ele>
        <time>2013-09-22T10:08:43Z</time>
      </trkpt>
      <trkpt lat="47.31337" lon="-1.80606">
        <ele>78.5</ele>
        <time>2013-09-22T10:08:46Z</time>
      </trkpt>
      <trkpt lat="47.31344" lon="-1.80621">
        <ele>79.1</ele>
        <time>2013-09-22T10:08:49Z</time>
      </trkpt>
      <trkpt lat="47.31351" lon="-1.80636">
        <ele>79.3</ele>
        <time>2013-09-22T10:08:52Z</time>
      </trkpt>
      <trkpt lat="47.31357" lon="-1.80647">
        <ele>79.1</ele>
        <time>2013-09-22T10:08:55Z</time>
      </trkpt>
      <trkpt lat="47.31363" lon="-1.8066">
        <ele>78.9</ele>
        <time>2013-09-22T10:08:58Z</time>
      </trkpt>
      <trkpt lat="47.31368" lon="-1.80672">
        <ele>78.9</ele>
        <time>2013-09-22T10:09:01Z</time>
      </trkpt>
      <trkpt lat="47.31374" lon="-1.80688">
        <ele>78.9</ele>
        <time>2013-09-22T10:09:04Z</time>
      </trkpt>
      <trkpt lat="47.31381" lon="-1.80703">
        <ele>79</ele>
        <time>2013-09-22T10:09:07Z</time>
      </trkpt>
      <trkpt lat="47.31387" lon="-1.80719">
        <ele>79</ele>
        <time>2013-09-22T10:09:10Z</time>
      </trkpt>
      <trkpt lat="47.31389" lon="-1.80733">
        <ele>79</ele>
        <time>2013-09-22T10:09:13Z</time>
      </trkpt>
      <trkpt lat="47.3139" lon="-1.80748">
        <ele>79</ele>
        <time>2013-09-22T10:09:15Z</time>
      </trkpt>
      <trkpt lat="47.31389" lon="-1.80762">
        <ele>79</ele>
        <time>2013-09-22T10:09:17Z</time>
      </trkpt>
      <trkpt lat="47.31387" lon="-1.80775">
        <ele>79.1</ele>
        <time>2013-09-22T10:09:19Z</time>
      </trkpt>
      <trkpt lat="47.31384" lon="-1.80789">
        <ele>79.6</ele>
        <time>2013-09-22T10:09:21Z</time>
      </trkpt>
      <trkpt lat="47.31382" lon="-1.80804">
        <ele>79.8</ele>
        <time>2013-09-22T10:09:23Z</time>
      </trkpt>
      <trkpt lat="47.31379" lon="-1.8082">
        <ele>79.4</ele>
        <time>2013-09-22T10:09:25Z</time>
      </trkpt>
      <trkpt lat="47.31378" lon="-1.80837">
        <ele>79.3</ele>
        <time>2013-09-22T10:09:27Z</time>
      </trkpt>
      <trkpt lat="47.31377" lon="-1.80855">
        <ele>79</ele>
        <time>2013-09-22T10:09:29Z</time>
      </trkpt>
      <trkpt lat="47.31379" lon="-1.80874">
        <ele>77.8</ele>
        <time>2013-09-22T10:09:31Z</time>
      </trkpt>
      <trkpt lat="47.31382" lon="-1.80892">
        <ele>76.2</ele>
        <time>2013-09-22T10:09:33Z</time>
      </trkpt>
      <trkpt lat="47.31387" lon="-1.80908">
        <ele>75</ele>
        <time>2013-09-22T10:09:35Z</time>
      </trkpt>
      <trkpt lat="47.31392" lon="-1.80921">
        <ele>75.2</ele>
        <time>2013-09-22T10:09:37Z</time>
      </trkpt>
      <trkpt lat="47.31397" lon="-1.80935">
        <ele>75.7</ele>
        <time>2013-09-22T10:09:40Z</time>
      </trkpt>
      <trkpt lat="47.31392" lon="-1.80924">
        <ele>75.9</ele>
        <time>2013-09-22T10:10:41Z</time>
      </trkpt>
      <trkpt lat="47.31389" lon="-1.80911">
        <ele>75.9</ele>
        <time>2013-09-22T10:10:45Z</time>
      </trkpt>
      <trkpt lat="47.31384" lon="-1.80893">
        <ele>76</ele>
        <time>2013-09-22T10:10:48Z</time>
      </trkpt>
      <trkpt lat="47.31381" lon="-1.80876">
        <ele>76.8</ele>
        <time>2013-09-22T10:10:51Z</time>
      </trkpt>
      <trkpt lat="47.31378" lon="-1.80859">
        <ele>77.4</ele>
        <time>2013-09-22T10:10:53Z</time>
      </trkpt>
      <trkpt lat="47.31377" lon="-1.80842">
        <ele>77.5</ele>
        <time>2013-09-22T10:10:55Z</time>
      </trkpt>
      <trkpt lat="47.31377" lon="-1.80827">
        <ele>77.4</ele>
        <time>2013-09-22T10:10:57Z</time>
      </trkpt>
      <trkpt lat="47.31377" lon="-1.80813">
        <ele>77.4</ele>
        <time>2013-09-22T10:10:59Z</time>
      </trkpt>
      <trkpt lat="47.31378" lon="-1.808">
        <ele>76.3</ele>
        <time>2013-09-22T10:11:01Z</time>
      </trkpt>
      <trkpt lat="47.31379" lon="-1.80786">
        <ele>76.1</ele>
        <time>2013-09-22T10:11:03Z</time>
      </trkpt>
      <trkpt lat="47.31381" lon="-1.80773">
        <ele>76.1</ele>
        <time>2013-09-22T10:11:05Z</time>
      </trkpt>
      <trkpt lat="47.31383" lon="-1.80754">
        <ele>75.6</ele>
        <time>2013-09-22T10:11:08Z</time>
      </trkpt>
      <trkpt lat="47.31384" lon="-1.80736">
        <ele>76.2</ele>
        <time>2013-09-22T10:11:11Z</time>
      </trkpt>
      <trkpt lat="47.31382" lon="-1.80717">
        <ele>77.3</ele>
        <time>2013-09-22T10:11:14Z</time>
      </trkpt>
      <trkpt lat="47.31379" lon="-1.80704">
        <ele>78</ele>
        <time>2013-09-22T10:11:16Z</time>
      </trkpt>
      <trkpt lat="47.31373" lon="-1.80687">
        <ele>79.2</ele>
        <time>2013-09-22T10:11:19Z</time>
      </trkpt>
      <trkpt lat="47.31366" lon="-1.8067">
        <ele>80.4</ele>
        <time>2013-09-22T10:11:22Z</time>
      </trkpt>
      <trkpt lat="47.31359" lon="-1.80656">
        <ele>80.5</ele>
        <time>2013-09-22T10:11:25Z</time>
      </trkpt>
      <trkpt lat="47.31355" lon="-1.80643">
        <ele>80.4</ele>
        <time>2013-09-22T10:11:44Z</time>
      </trkpt>
      <trkpt lat="47.31349" lon="-1.80633">
        <ele>80.1</ele>
        <time>2013-09-22T10:11:50Z</time>
      </trkpt>
      <trkpt lat="47.31344" lon="-1.8062">
        <ele>79.9</ele>
        <time>2013-09-22T10:11:54Z</time>
      </trkpt>
      <trkpt lat="47.31338" lon="-1.80608">
        <ele>79.7</ele>
        <time>2013-09-22T10:11:57Z</time>
      </trkpt>
      <trkpt lat="47.31333" lon="-1.80593">
        <ele>79.4</ele>
        <time>2013-09-22T10:12:00Z</time>
      </trkpt>
      <trkpt lat="47.31327" lon="-1.80579">
        <ele>79.1</ele>
        <time>2013-09-22T10:12:03Z</time>
      </trkpt>
      <trkpt lat="47.31323" lon="-1.80566">
        <ele>78.9</ele>
        <time>2013-09-22T10:12:08Z</time>
      </trkpt>
      <trkpt lat="47.31318" lon="-1.8055">
        <ele>79.2</ele>
        <time>2013-09-22T10:12:13Z</time>
      </trkpt>
      <trkpt lat="47.31314" lon="-1.80536">
        <ele>78</ele>
        <time>2013-09-22T10:12:15Z</time>
      </trkpt>
      <trkpt lat="47.3131" lon="-1.80519">
        <ele>76</ele>
        <time>2013-09-22T10:12:17Z</time>
      </trkpt>
      <trkpt lat="47.31305" lon="-1.80503">
        <ele>73.2</ele>
        <time>2013-09-22T10:12:19Z</time>
      </trkpt>
      <trkpt lat="47.31301" lon="-1.80487">
        <ele>71.3</ele>
        <time>2013-09-22T10:12:21Z</time>
      </trkpt>
      <trkpt lat="47.31297" lon="-1.80473">
        <ele>70.1</ele>
        <time>2013-09-22T10:12:23Z</time>
      </trkpt>
      <trkpt lat="47.31292" lon="-1.80456">
        <ele>71.3</ele>
        <time>2013-09-22T10:12:26Z</time>
      </trkpt>
      <trkpt lat="47.31287" lon="-1.80443">
        <ele>71.5</ele>
        <time>2013-09-22T10:12:29Z</time>
      </trkpt>
      <trkpt lat="47.31282" lon="-1.80429">
        <ele>71.9</ele>
        <time>2013-09-22T10:12:32Z</time>
      </trkpt>
      <trkpt lat="47.31276" lon="-1.80414">
        <ele>72.1</ele>
        <time>2013-09-22T10:12:35Z</time>
      </trkpt>
      <trkpt lat="47.31272" lon="-1.80397">
        <ele>72.2</ele>
        <time>2013-09-22T10:12:38Z</time>
      </trkpt>
      <trkpt lat="47.31268" lon="-1.8038">
        <ele>72.1</ele>
        <time>2013-09-22T10:12:41Z</time>
      </trkpt>
      <trkpt lat="47.31263" lon="-1.80363">
        <ele>71.8</ele>
        <time>2013-09-22T10:12:44Z</time>
      </trkpt>
      <trkpt lat="47.3126" lon="-1.8035">
        <ele>71.5</ele>
        <time>2013-09-22T10:12:47Z</time>
      </trkpt>
      <trkpt lat="47.31257" lon="-1.80334">
        <ele>71.6</ele>
        <time>2013-09-22T10:12:51Z</time>
      </trkpt>
      <trkpt lat="47.31254" lon="-1.80317">
        <ele>71.9</ele>
        <time>2013-09-22T10:12:55Z</time>
      </trkpt>
      <trkpt lat="47.31255" lon="-1.80303">
        <ele>71.1</ele>
        <time>2013-09-22T10:14:02Z</time>
      </trkpt>
      <trkpt lat="47.31252" lon="-1.80289">
        <ele>71</ele>
        <time>2013-09-22T10:14:06Z</time>
      </trkpt>
      <trkpt lat="47.31247" lon="-1.80272">
        <ele>70.9</ele>
        <time>2013-09-22T10:14:09Z</time>
      </trkpt>
      <trkpt lat="47.31243" lon="-1.80255">
        <ele>70.9</ele>
        <time>2013-09-22T10:14:12Z</time>
      </trkpt>
      <trkpt lat="47.31239" lon="-1.80238">
        <ele>71</ele>
        <time>2013-09-22T10:14:15Z</time>
      </trkpt>
      <trkpt lat="47.31236" lon="-1.80223">
        <ele>71</ele>
        <time>2013-09-22T10:14:18Z</time>
      </trkpt>
      <trkpt lat="47.31243" lon="-1.8021">
        <ele>71.4</ele>
        <time>2013-09-22T10:15:36Z</time>
      </trkpt>
      <trkpt lat="47.31253" lon="-1.80201">
        <ele>71.5</ele>
        <time>2013-09-22T10:15:39Z</time>
      </trkpt>
      <trkpt lat="47.31263" lon="-1.80193">
        <ele>71.7</ele>
        <time>2013-09-22T10:15:42Z</time>
      </trkpt>
      <trkpt lat="47.31272" lon="-1.80185">
        <ele>71.8</ele>
        <time>2013-09-22T10:15:45Z</time>
      </trkpt>
      <trkpt lat="47.31285" lon="-1.8019">
        <ele>72.9</ele>
        <time>2013-09-22T10:15:49Z</time>
      </trkpt>
      <trkpt lat="47.3129" lon="-1.80201">
        <ele>74.3</ele>
        <time>2013-09-22T10:15:51Z</time>
      </trkpt>
      <trkpt lat="47.31295" lon="-1.80214">
        <ele>74.5</ele>
        <time>2013-09-22T10:15:53Z</time>
      </trkpt>
      <trkpt lat="47.313" lon="-1.80228">
        <ele>76</ele>
        <time>2013-09-22T10:15:55Z</time>
      </trkpt>
      <trkpt lat="47.31307" lon="-1.8024">
        <ele>77.5</ele>
        <time>2013-09-22T10:15:57Z</time>
      </trkpt>
      <trkpt lat="47.31312" lon="-1.80251">
        <ele>78.6</ele>
        <time>2013-09-22T10:15:59Z</time>
      </trkpt>
      <trkpt lat="47.3132" lon="-1.80267">
        <ele>79</ele>
        <time>2013-09-22T10:16:02Z</time>
      </trkpt>
      <trkpt lat="47.31327" lon="-1.80282">
        <ele>78.2</ele>
        <time>2013-09-22T10:16:05Z</time>
      </trkpt>
      <trkpt lat="47.31336" lon="-1.80296">
        <ele>78.7</ele>
        <time>2013-09-22T10:16:08Z</time>
      </trkpt>
      <trkpt lat="47.31346" lon="-1.80307">
        <ele>79</ele>
        <time>2013-09-22T10:16:11Z</time>
      </trkpt>
      <trkpt lat="47.31356" lon="-1.80317">
        <ele>78.7</ele>
        <time>2013-09-22T10:16:14Z</time>
      </trkpt>
      <trkpt lat="47.31367" lon="-1.80326">
        <ele>79</ele>
        <time>2013-09-22T10:16:17Z</time>
      </trkpt>
      <trkpt lat="47.31376" lon="-1.80334">
        <ele>78.9</ele>
        <time>2013-09-22T10:16:20Z</time>
      </trkpt>
      <trkpt lat="47.31386" lon="-1.80342">
        <ele>79</ele>
        <time>2013-09-22T10:16:23Z</time>
      </trkpt>
      <trkpt lat="47.31392" lon="-1.80352">
        <ele>79.5</ele>
        <time>2013-09-22T10:16:57Z</time>
      </trkpt>
      <trkpt lat="47.31399" lon="-1.80362">
        <ele>79.5</ele>
        <time>2013-09-22T10:17:00Z</time>
      </trkpt>
      <trkpt lat="47.31406" lon="-1.80374">
        <ele>79.4</ele>
        <time>2013-09-22T10:17:03Z</time>
      </trkpt>
      <trkpt lat="47.31414" lon="-1.80388">
        <ele>79.4</ele>
        <time>2013-09-22T10:17:06Z</time>
      </trkpt>
      <trkpt lat="47.31422" lon="-1.80402">
        <ele>80.1</ele>
        <time>2013-09-22T10:17:09Z</time>
      </trkpt>
      <trkpt lat="47.3143" lon="-1.80417">
        <ele>79.8</ele>
        <time>2013-09-22T10:17:12Z</time>
      </trkpt>
      <trkpt lat="47.31438" lon="-1.80431">
        <ele>79.7</ele>
        <time>2013-09-22T10:17:15Z</time>
      </trkpt>
      <trkpt lat="47.31445" lon="-1.80446">
        <ele>79.1</ele>
        <time>2013-09-22T10:17:18Z</time>
      </trkpt>
      <trkpt lat="47.31451" lon="-1.80457">
        <ele>79</ele>
        <time>2013-09-22T10:17:20Z</time>
      </trkpt>
      <trkpt lat="47.31459" lon="-1.80472">
        <ele>78.1</ele>
        <time>2013-09-22T10:17:23Z</time>
      </trkpt>
      <trkpt lat="47.31467" lon="-1.80485">
        <ele>78.8</ele>
        <time>2013-09-22T10:17:26Z</time>
      </trkpt>
      <trkpt lat="47.31475" lon="-1.805">
        <ele>79.3</ele>
        <time>2013-09-22T10:17:29Z</time>
      </trkpt>
      <trkpt lat="47.31483" lon="-1.80515">
        <ele>79.6</ele>
        <time>2013-09-22T10:17:32Z</time>
      </trkpt>
      <trkpt lat="47.31491" lon="-1.80529">
        <ele>79.8</ele>
        <time>2013-09-22T10:17:35Z</time>
      </trkpt>
      <trkpt lat="47.31499" lon="-1.80543">
        <ele>81.7</ele>
        <time>2013-09-22T10:17:38Z</time>
      </trkpt>
      <trkpt lat="47.31506" lon="-1.80553">
        <ele>82.5</ele>
        <time>2013-09-22T10:17:40Z</time>
      </trkpt>
      <trkpt lat="47.31515" lon="-1.80566">
        <ele>83.8</ele>
        <time>2013-09-22T10:17:43Z</time>
      </trkpt>
      <trkpt lat="47.31524" lon="-1.80578">
        <ele>83.7</ele>
        <time>2013-09-22T10:17:46Z</time>
      </trkpt>
      <trkpt lat="47.31535" lon="-1.80589">
        <ele>84.9</ele>
        <time>2013-09-22T10:17:49Z</time>
      </trkpt>
      <trkpt lat="47.31546" lon="-1.806">
        <ele>85.8</ele>
        <time>2013-09-22T10:17:52Z</time>
      </trkpt>
      <trkpt lat="47.31556" lon="-1.80611">
        <ele>85.9</ele>
        <time>2013-09-22T10:17:55Z</time>
      </trkpt>
      <trkpt lat="47.31563" lon="-1.8062">
        <ele>85.8</ele>
        <time>2013-09-22T10:17:57Z</time>
      </trkpt>
      <trkpt lat="47.31574" lon="-1.80632">
        <ele>86.3</ele>
        <time>2013-09-22T10:18:00Z</time>
      </trkpt>
      <trkpt lat="47.3158" lon="-1.8064">
        <ele>85.6</ele>
        <time>2013-09-22T10:18:02Z</time>
      </trkpt>
      <trkpt lat="47.3159" lon="-1.80654">
        <ele>84.6</ele>
        <time>2013-09-22T10:18:05Z</time>
      </trkpt>
      <trkpt lat="47.31596" lon="-1.80663">
        <ele>84.4</ele>
        <time>2013-09-22T10:18:07Z</time>
      </trkpt>
      <trkpt lat="47.31603" lon="-1.80673">
        <ele>84.7</ele>
        <time>2013-09-22T10:18:09Z</time>
      </trkpt>
      <trkpt lat="47.31613" lon="-1.80686">
        <ele>85.3</ele>
        <time>2013-09-22T10:18:12Z</time>
      </trkpt>
      <trkpt lat="47.31623" lon="-1.80699">
        <ele>85.8</ele>
        <time>2013-09-22T10:18:15Z</time>
      </trkpt>
      <trkpt lat="47.3163" lon="-1.80709">
        <ele>86</ele>
        <time>2013-09-22T10:18:17Z</time>
      </trkpt>
      <trkpt lat="47.31636" lon="-1.80718">
        <ele>86.4</ele>
        <time>2013-09-22T10:18:19Z</time>
      </trkpt>
      <trkpt lat="47.31643" lon="-1.80727">
        <ele>86.5</ele>
        <time>2013-09-22T10:18:21Z</time>
      </trkpt>
      <trkpt lat="47.31649" lon="-1.80737">
        <ele>86.4</ele>
        <time>2013-09-22T10:18:23Z</time>
      </trkpt>
      <trkpt lat="47.31655" lon="-1.80747">
        <ele>86.5</ele>
        <time>2013-09-22T10:18:25Z</time>
      </trkpt>
      <trkpt lat="47.31662" lon="-1.80758">
        <ele>86.7</ele>
        <time>2013-09-22T10:18:27Z</time>
      </trkpt>
      <trkpt lat="47.31669" lon="-1.80768">
        <ele>87.1</ele>
        <time>2013-09-22T10:18:29Z</time>
      </trkpt>
      <trkpt lat="47.31675" lon="-1.80778">
        <ele>87.4</ele>
        <time>2013-09-22T10:18:31Z</time>
      </trkpt>
      <trkpt lat="47.31682" lon="-1.80788">
        <ele>87.8</ele>
        <time>2013-09-22T10:18:33Z</time>
      </trkpt>
      <trkpt lat="47.31689" lon="-1.80798">
        <ele>87.8</ele>
        <time>2013-09-22T10:18:35Z</time>
      </trkpt>
      <trkpt lat="47.31699" lon="-1.80812">
        <ele>86.8</ele>
        <time>2013-09-22T10:18:38Z</time>
      </trkpt>
      <trkpt lat="47.31708" lon="-1.80825">
        <ele>86.4</ele>
        <time>2013-09-22T10:18:41Z</time>
      </trkpt>
      <trkpt lat="47.31716" lon="-1.80835">
        <ele>87.3</ele>
        <time>2013-09-22T10:18:43Z</time>
      </trkpt>
      <trkpt lat="47.31724" lon="-1.80843">
        <ele>88</ele>
        <time>2013-09-22T10:18:45Z</time>
      </trkpt>
      <trkpt lat="47.31732" lon="-1.80854">
        <ele>88.5</ele>
        <time>2013-09-22T10:18:47Z</time>
      </trkpt>
      <trkpt lat="47.3174" lon="-1.80864">
        <ele>88.2</ele>
        <time>2013-09-22T10:18:49Z</time>
      </trkpt>
      <trkpt lat="47.31747" lon="-1.80874">
        <ele>87.2</ele>
        <time>2013-09-22T10:18:51Z</time>
      </trkpt>
      <trkpt lat="47.31755" lon="-1.80884">
        <ele>86.3</ele>
        <time>2013-09-22T10:18:53Z</time>
      </trkpt>
      <trkpt lat="47.31764" lon="-1.80896">
        <ele>85.7</ele>
        <time>2013-09-22T10:18:55Z</time>
      </trkpt>
      <trkpt lat="47.31772" lon="-1.80907">
        <ele>86.1</ele>
        <time>2013-09-22T10:18:57Z</time>
      </trkpt>
      <trkpt lat="47.3178" lon="-1.80918">
        <ele>86.4</ele>
        <time>2013-09-22T10:18:59Z</time>
      </trkpt>
      <trkpt lat="47.31789" lon="-1.80928">
        <ele>86.7</ele>
        <time>2013-09-22T10:19:01Z</time>
      </trkpt>
      <trkpt lat="47.31796" lon="-1.80939">
        <ele>86.3</ele>
        <time>2013-09-22T10:19:03Z</time>
      </trkpt>
      <trkpt lat="47.31803" lon="-1.80948">
        <ele>86</ele>
        <time>2013-09-22T10:19:05Z</time>
      </trkpt>
      <trkpt lat="47.3181" lon="-1.80957">
        <ele>85.9</ele>
        <time>2013-09-22T10:19:07Z</time>
      </trkpt>
      <trkpt lat="47.31818" lon="-1.80966">
        <ele>86</ele>
        <time>2013-09-22T10:19:11Z</time>
      </trkpt>
      <trkpt lat="47.31817" lon="-1.80982">
        <ele>86.1</ele>
        <time>2013-09-22T10:19:15Z</time>
      </trkpt>
      <trkpt lat="47.31811" lon="-1.80994">
        <ele>86.5</ele>
        <time>2013-09-22T10:19:17Z</time>
      </trkpt>
      <trkpt lat="47.31804" lon="-1.81007">
        <ele>86.3</ele>
        <time>2013-09-22T10:19:19Z</time>
      </trkpt>
      <trkpt lat="47.31797" lon="-1.8102">
        <ele>85.7</ele>
        <time>2013-09-22T10:19:21Z</time>
      </trkpt>
      <trkpt lat="47.3179" lon="-1.81035">
        <ele>85.6</ele>
        <time>2013-09-22T10:19:23Z</time>
      </trkpt>
      <trkpt lat="47.31782" lon="-1.81051">
        <ele>84.4</ele>
        <time>2013-09-22T10:19:25Z</time>
      </trkpt>
      <trkpt lat="47.31774" lon="-1.81067">
        <ele>83.2</ele>
        <time>2013-09-22T10:19:27Z</time>
      </trkpt>
      <trkpt lat="47.31766" lon="-1.81084">
        <ele>81.8</ele>
        <time>2013-09-22T10:19:29Z</time>
      </trkpt>
      <trkpt lat="47.31758" lon="-1.81101">
        <ele>80.7</ele>
        <time>2013-09-22T10:19:31Z</time>
      </trkpt>
      <trkpt lat="47.3175" lon="-1.81118">
        <ele>79.8</ele>
        <time>2013-09-22T10:19:33Z</time>
      </trkpt>
      <trkpt lat="47.3174" lon="-1.81137">
        <ele>78.4</ele>
        <time>2013-09-22T10:19:35Z</time>
      </trkpt>
      <trkpt lat="47.3173" lon="-1.81157">
        <ele>76.5</ele>
        <time>2013-09-22T10:19:37Z</time>
      </trkpt>
      <trkpt lat="47.31721" lon="-1.81174">
        <ele>74.7</ele>
        <time>2013-09-22T10:19:39Z</time>
      </trkpt>
      <trkpt lat="47.31713" lon="-1.81191">
        <ele>74</ele>
        <time>2013-09-22T10:19:41Z</time>
      </trkpt>
      <trkpt lat="47.31705" lon="-1.81207">
        <ele>73.6</ele>
        <time>2013-09-22T10:19:43Z</time>
      </trkpt>
      <trkpt lat="47.31697" lon="-1.81224">
        <ele>73.5</ele>
        <time>2013-09-22T10:19:45Z</time>
      </trkpt>
      <trkpt lat="47.3169" lon="-1.81239">
        <ele>74.3</ele>
        <time>2013-09-22T10:19:47Z</time>
      </trkpt>
      <trkpt lat="47.31683" lon="-1.81253">
        <ele>74.5</ele>
        <time>2013-09-22T10:19:49Z</time>
      </trkpt>
      <trkpt lat="47.31677" lon="-1.81267">
        <ele>74.6</ele>
        <time>2013-09-22T10:19:51Z</time>
      </trkpt>
      <trkpt lat="47.31669" lon="-1.81283">
        <ele>74.1</ele>
        <time>2013-09-22T10:19:53Z</time>
      </trkpt>
      <trkpt lat="47.31662" lon="-1.81297">
        <ele>74</ele>
        <time>2013-09-22T10:19:55Z</time>
      </trkpt>
      <trkpt lat="47.31655" lon="-1.81311">
        <ele>73.3</ele>
        <time>2013-09-22T10:19:57Z</time>
      </trkpt>
      <trkpt lat="47.31648" lon="-1.81324">
        <ele>73.1</ele>
        <time>2013-09-22T10:19:59Z</time>
      </trkpt>
      <trkpt lat="47.31641" lon="-1.81337">
        <ele>73.2</ele>
        <time>2013-09-22T10:20:01Z</time>
      </trkpt>
      <trkpt lat="47.31633" lon="-1.81352">
        <ele>73.3</ele>
        <time>2013-09-22T10:20:03Z</time>
      </trkpt>
      <trkpt lat="47.31624" lon="-1.81365">
        <ele>73</ele>
        <time>2013-09-22T10:20:05Z</time>
      </trkpt>
      <trkpt lat="47.31615" lon="-1.81379">
        <ele>72.6</ele>
        <time>2013-09-22T10:20:07Z</time>
      </trkpt>
      <trkpt lat="47.31605" lon="-1.81391">
        <ele>71.8</ele>
        <time>2013-09-22T10:20:09Z</time>
      </trkpt>
      <trkpt lat="47.31594" lon="-1.81404">
        <ele>71.5</ele>
        <time>2013-09-22T10:20:11Z</time>
      </trkpt>
      <trkpt lat="47.31582" lon="-1.81419">
        <ele>71.6</ele>
        <time>2013-09-22T10:20:13Z</time>
      </trkpt>
      <trkpt lat="47.31572" lon="-1.81431">
        <ele>72.3</ele>
        <time>2013-09-22T10:20:15Z</time>
      </trkpt>
      <trkpt lat="47.31561" lon="-1.81445">
        <ele>72</ele>
        <time>2013-09-22T10:20:17Z</time>
      </trkpt>
      <trkpt lat="47.3155" lon="-1.81459">
        <ele>71.2</ele>
        <time>2013-09-22T10:20:19Z</time>
      </trkpt>
      <trkpt lat="47.3154" lon="-1.81472">
        <ele>70.3</ele>
        <time>2013-09-22T10:20:21Z</time>
      </trkpt>
      <trkpt lat="47.31528" lon="-1.81487">
        <ele>69.2</ele>
        <time>2013-09-22T10:20:23Z</time>
      </trkpt>
      <trkpt lat="47.31516" lon="-1.81504">
        <ele>68.7</ele>
        <time>2013-09-22T10:20:25Z</time>
      </trkpt>
      <trkpt lat="47.31505" lon="-1.81521">
        <ele>68.7</ele>
        <time>2013-09-22T10:20:27Z</time>
      </trkpt>
      <trkpt lat="47.31496" lon="-1.81541">
        <ele>69.4</ele>
        <time>2013-09-22T10:20:29Z</time>
      </trkpt>
      <trkpt lat="47.3149" lon="-1.81565">
        <ele>69.7</ele>
        <time>2013-09-22T10:20:31Z</time>
      </trkpt>
      <trkpt lat="47.31484" lon="-1.81587">
        <ele>69.4</ele>
        <time>2013-09-22T10:20:33Z</time>
      </trkpt>
      <trkpt lat="47.31479" lon="-1.81608">
        <ele>69.8</ele>
        <time>2013-09-22T10:20:35Z</time>
      </trkpt>
      <trkpt lat="47.31474" lon="-1.8163">
        <ele>71</ele>
        <time>2013-09-22T10:20:37Z</time>
      </trkpt>
      <trkpt lat="47.31469" lon="-1.81651">
        <ele>71.7</ele>
        <time>2013-09-22T10:20:39Z</time>
      </trkpt>
      <trkpt lat="47.31465" lon="-1.81668">
        <ele>72.3</ele>
        <time>2013-09-22T10:20:41Z</time>
      </trkpt>
      <trkpt lat="47.31459" lon="-1.81686">
        <ele>72.4</ele>
        <time>2013-09-22T10:20:43Z</time>
      </trkpt>
      <trkpt lat="47.31455" lon="-1.81703">
        <ele>73.2</ele>
        <time>2013-09-22T10:20:45Z</time>
      </trkpt>
      <trkpt lat="47.31449" lon="-1.81721">
        <ele>73.8</ele>
        <time>2013-09-22T10:20:47Z</time>
      </trkpt>
      <trkpt lat="47.31445" lon="-1.81739">
        <ele>74.2</ele>
        <time>2013-09-22T10:20:49Z</time>
      </trkpt>
      <trkpt lat="47.3144" lon="-1.81757">
        <ele>74.1</ele>
        <time>2013-09-22T10:20:51Z</time>
      </trkpt>
      <trkpt lat="47.31436" lon="-1.81774">
        <ele>74</ele>
        <time>2013-09-22T10:20:53Z</time>
      </trkpt>
      <trkpt lat="47.31432" lon="-1.81792">
        <ele>73.8</ele>
        <time>2013-09-22T10:20:55Z</time>
      </trkpt>
      <trkpt lat="47.31428" lon="-1.8181">
        <ele>73.6</ele>
        <time>2013-09-22T10:20:57Z</time>
      </trkpt>
      <trkpt lat="47.31424" lon="-1.81828">
        <ele>73.5</ele>
        <time>2013-09-22T10:20:59Z</time>
      </trkpt>
      <trkpt lat="47.31419" lon="-1.81846">
        <ele>73.5</ele>
        <time>2013-09-22T10:21:01Z</time>
      </trkpt>
      <trkpt lat="47.31414" lon="-1.81863">
        <ele>73.5</ele>
        <time>2013-09-22T10:21:03Z</time>
      </trkpt>
      <trkpt lat="47.3141" lon="-1.81881">
        <ele>73.1</ele>
        <time>2013-09-22T10:21:05Z</time>
      </trkpt>
      <trkpt lat="47.31405" lon="-1.81899">
        <ele>73</ele>
        <time>2013-09-22T10:21:07Z</time>
      </trkpt>
      <trkpt lat="47.314" lon="-1.81917">
        <ele>72.7</ele>
        <time>2013-09-22T10:21:09Z</time>
      </trkpt>
      <trkpt lat="47.31396" lon="-1.81936">
        <ele>72.5</ele>
        <time>2013-09-22T10:21:11Z</time>
      </trkpt>
      <trkpt lat="47.31391" lon="-1.81954">
        <ele>72.1</ele>
        <time>2013-09-22T10:21:13Z</time>
      </trkpt>
      <trkpt lat="47.31386" lon="-1.81973">
        <ele>71.9</ele>
        <time>2013-09-22T10:21:15Z</time>
      </trkpt>
      <trkpt lat="47.31381" lon="-1.81993">
        <ele>71.4</ele>
        <time>2013-09-22T10:21:17Z</time>
      </trkpt>
      <trkpt lat="47.31376" lon="-1.82013">
        <ele>71</ele>
        <time>2013-09-22T10:21:19Z</time>
      </trkpt>
      <trkpt lat="47.3137" lon="-1.82034">
        <ele>70.4</ele>
        <time>2013-09-22T10:21:21Z</time>
      </trkpt>
      <trkpt lat="47.31364" lon="-1.82055">
        <ele>69.5</ele>
        <time>2013-09-22T10:21:23Z</time>
      </trkpt>
      <trkpt lat="47.31358" lon="-1.82075">
        <ele>69.2</ele>
        <time>2013-09-22T10:21:25Z</time>
      </trkpt>
      <trkpt lat="47.31353" lon="-1.82096">
        <ele>69</ele>
        <time>2013-09-22T10:21:27Z</time>
      </trkpt>
      <trkpt lat="47.31347" lon="-1.82117">
        <ele>68.7</ele>
        <time>2013-09-22T10:21:29Z</time>
      </trkpt>
      <trkpt lat="47.31342" lon="-1.82138">
        <ele>68.8</ele>
        <time>2013-09-22T10:21:31Z</time>
      </trkpt>
      <trkpt lat="47.31336" lon="-1.82161">
        <ele>68.6</ele>
        <time>2013-09-22T10:21:33Z</time>
      </trkpt>
      <trkpt lat="47.3133" lon="-1.82183">
        <ele>67.9</ele>
        <time>2013-09-22T10:21:35Z</time>
      </trkpt>
      <trkpt lat="47.31324" lon="-1.82204">
        <ele>67.2</ele>
        <time>2013-09-22T10:21:37Z</time>
      </trkpt>
      <trkpt lat="47.31319" lon="-1.82225">
        <ele>67.3</ele>
        <time>2013-09-22T10:21:39Z</time>
      </trkpt>
      <trkpt lat="47.31314" lon="-1.82245">
        <ele>67.2</ele>
        <time>2013-09-22T10:21:41Z</time>
      </trkpt>
      <trkpt lat="47.31309" lon="-1.82265">
        <ele>66.9</ele>
        <time>2013-09-22T10:21:43Z</time>
      </trkpt>
      <trkpt lat="47.31303" lon="-1.82285">
        <ele>66.3</ele>
        <time>2013-09-22T10:21:45Z</time>
      </trkpt>
      <trkpt lat="47.31298" lon="-1.82304">
        <ele>65.4</ele>
        <time>2013-09-22T10:21:47Z</time>
      </trkpt>
      <trkpt lat="47.31293" lon="-1.82323">
        <ele>65.3</ele>
        <time>2013-09-22T10:21:49Z</time>
      </trkpt>
      <trkpt lat="47.31289" lon="-1.82341">
        <ele>65.7</ele>
        <time>2013-09-22T10:21:51Z</time>
      </trkpt>
      <trkpt lat="47.31283" lon="-1.82359">
        <ele>65.9</ele>
        <time>2013-09-22T10:21:53Z</time>
      </trkpt>
      <trkpt lat="47.31278" lon="-1.82377">
        <ele>65.8</ele>
        <time>2013-09-22T10:21:55Z</time>
      </trkpt>
      <trkpt lat="47.31274" lon="-1.82395">
        <ele>65.8</ele>
        <time>2013-09-22T10:21:57Z</time>
      </trkpt>
      <trkpt lat="47.31269" lon="-1.82412">
        <ele>66.2</ele>
        <time>2013-09-22T10:21:59Z</time>
      </trkpt>
      <trkpt lat="47.31265" lon="-1.8243">
        <ele>67.2</ele>
        <time>2013-09-22T10:22:01Z</time>
      </trkpt>
      <trkpt lat="47.3126" lon="-1.82448">
        <ele>67.7</ele>
        <time>2013-09-22T10:22:03Z</time>
      </trkpt>
      <trkpt lat="47.31255" lon="-1.82466">
        <ele>68.3</ele>
        <time>2013-09-22T10:22:05Z</time>
      </trkpt>
      <trkpt lat="47.3125" lon="-1.82485">
        <ele>68</ele>
        <time>2013-09-22T10:22:07Z</time>
      </trkpt>
      <trkpt lat="47.31245" lon="-1.82502">
        <ele>68</ele>
        <time>2013-09-22T10:22:09Z</time>
      </trkpt>
      <trkpt lat="47.31241" lon="-1.8252">
        <ele>67.9</ele>
        <time>2013-09-22T10:22:11Z</time>
      </trkpt>
      <trkpt lat="47.31237" lon="-1.82537">
        <ele>68.3</ele>
        <time>2013-09-22T10:22:13Z</time>
      </trkpt>
      <trkpt lat="47.31233" lon="-1.82554">
        <ele>69.1</ele>
        <time>2013-09-22T10:22:15Z</time>
      </trkpt>
      <trkpt lat="47.31229" lon="-1.8257">
        <ele>69.9</ele>
        <time>2013-09-22T10:22:17Z</time>
      </trkpt>
      <trkpt lat="47.31224" lon="-1.82585">
        <ele>70.1</ele>
        <time>2013-09-22T10:22:19Z</time>
      </trkpt>
      <trkpt lat="47.31218" lon="-1.82599">
        <ele>69.8</ele>
        <time>2013-09-22T10:22:21Z</time>
      </trkpt>
      <trkpt lat="47.31209" lon="-1.82612">
        <ele>68.9</ele>
        <time>2013-09-22T10:22:23Z</time>
      </trkpt>
      <trkpt lat="47.31198" lon="-1.82623">
        <ele>67.8</ele>
        <time>2013-09-22T10:22:25Z</time>
      </trkpt>
      <trkpt lat="47.31188" lon="-1.82635">
        <ele>66</ele>
        <time>2013-09-22T10:22:27Z</time>
      </trkpt>
      <trkpt lat="47.31178" lon="-1.82644">
        <ele>65.4</ele>
        <time>2013-09-22T10:22:29Z</time>
      </trkpt>
      <trkpt lat="47.31167" lon="-1.82653">
        <ele>64.7</ele>
        <time>2013-09-22T10:22:31Z</time>
      </trkpt>
      <trkpt lat="47.31156" lon="-1.82662">
        <ele>63</ele>
        <time>2013-09-22T10:22:33Z</time>
      </trkpt>
      <trkpt lat="47.31144" lon="-1.82673">
        <ele>62.2</ele>
        <time>2013-09-22T10:22:35Z</time>
      </trkpt>
      <trkpt lat="47.31132" lon="-1.82682">
        <ele>62.2</ele>
        <time>2013-09-22T10:22:37Z</time>
      </trkpt>
      <trkpt lat="47.3112" lon="-1.82692">
        <ele>62.5</ele>
        <time>2013-09-22T10:22:39Z</time>
      </trkpt>
      <trkpt lat="47.31106" lon="-1.82704">
        <ele>63.9</ele>
        <time>2013-09-22T10:22:41Z</time>
      </trkpt>
      <trkpt lat="47.31092" lon="-1.82716">
        <ele>64.9</ele>
        <time>2013-09-22T10:22:43Z</time>
      </trkpt>
      <trkpt lat="47.31078" lon="-1.8273">
        <ele>65.8</ele>
        <time>2013-09-22T10:22:45Z</time>
      </trkpt>
      <trkpt lat="47.31063" lon="-1.82744">
        <ele>66.6</ele>
        <time>2013-09-22T10:22:47Z</time>
      </trkpt>
      <trkpt lat="47.31048" lon="-1.82757">
        <ele>66</ele>
        <time>2013-09-22T10:22:49Z</time>
      </trkpt>
      <trkpt lat="47.31032" lon="-1.8277">
        <ele>64.5</ele>
        <time>2013-09-22T10:22:51Z</time>
      </trkpt>
      <trkpt lat="47.31017" lon="-1.82783">
        <ele>63.3</ele>
        <time>2013-09-22T10:22:53Z</time>
      </trkpt>
      <trkpt lat="47.31009" lon="-1.8279">
        <ele>63.1</ele>
        <time>2013-09-22T10:22:54Z</time>
      </trkpt>
      <trkpt lat="47.31001" lon="-1.82797">
        <ele>63.1</ele>
        <time>2013-09-22T10:22:55Z</time>
      </trkpt>
      <trkpt lat="47.30987" lon="-1.82811">
        <ele>63.3</ele>
        <time>2013-09-22T10:22:57Z</time>
      </trkpt>
      <trkpt lat="47.30972" lon="-1.82825">
        <ele>64.3</ele>
        <time>2013-09-22T10:22:59Z</time>
      </trkpt>
      <trkpt lat="47.30964" lon="-1.82833">
        <ele>64.8</ele>
        <time>2013-09-22T10:23:00Z</time>
      </trkpt>
      <trkpt lat="47.3095" lon="-1.82846">
        <ele>64.9</ele>
        <time>2013-09-22T10:23:02Z</time>
      </trkpt>
      <trkpt lat="47.30934" lon="-1.82859">
        <ele>63.9</ele>
        <time>2013-09-22T10:23:04Z</time>
      </trkpt>
      <trkpt lat="47.3092" lon="-1.82872">
        <ele>62.7</ele>
        <time>2013-09-22T10:23:06Z</time>
      </trkpt>
      <trkpt lat="47.30906" lon="-1.82883">
        <ele>61.8</ele>
        <time>2013-09-22T10:23:08Z</time>
      </trkpt>
      <trkpt lat="47.30892" lon="-1.82894">
        <ele>61.2</ele>
        <time>2013-09-22T10:23:10Z</time>
      </trkpt>
      <trkpt lat="47.30878" lon="-1.82908">
        <ele>61.8</ele>
        <time>2013-09-22T10:23:12Z</time>
      </trkpt>
      <trkpt lat="47.30863" lon="-1.82921">
        <ele>61.1</ele>
        <time>2013-09-22T10:23:14Z</time>
      </trkpt>
      <trkpt lat="47.30848" lon="-1.82934">
        <ele>61.3</ele>
        <time>2013-09-22T10:23:16Z</time>
      </trkpt>
      <trkpt lat="47.30835" lon="-1.82947">
        <ele>61.1</ele>
        <time>2013-09-22T10:23:18Z</time>
      </trkpt>
      <trkpt lat="47.30822" lon="-1.82959">
        <ele>59.9</ele>
        <time>2013-09-22T10:23:20Z</time>
      </trkpt>
      <trkpt lat="47.30807" lon="-1.82971">
        <ele>59.6</ele>
        <time>2013-09-22T10:23:22Z</time>
      </trkpt>
      <trkpt lat="47.30793" lon="-1.82984">
        <ele>59.7</ele>
        <time>2013-09-22T10:23:24Z</time>
      </trkpt>
      <trkpt lat="47.30779" lon="-1.82995">
        <ele>58.8</ele>
        <time>2013-09-22T10:23:26Z</time>
      </trkpt>
      <trkpt lat="47.30766" lon="-1.83006">
        <ele>57.9</ele>
        <time>2013-09-22T10:23:28Z</time>
      </trkpt>
      <trkpt lat="47.30753" lon="-1.83014">
        <ele>57.5</ele>
        <time>2013-09-22T10:23:30Z</time>
      </trkpt>
      <trkpt lat="47.3074" lon="-1.8302">
        <ele>56.7</ele>
        <time>2013-09-22T10:23:32Z</time>
      </trkpt>
      <trkpt lat="47.30725" lon="-1.83024">
        <ele>55.2</ele>
        <time>2013-09-22T10:23:34Z</time>
      </trkpt>
      <trkpt lat="47.30709" lon="-1.83023">
        <ele>53.5</ele>
        <time>2013-09-22T10:23:36Z</time>
      </trkpt>
      <trkpt lat="47.30693" lon="-1.8302">
        <ele>52</ele>
        <time>2013-09-22T10:23:38Z</time>
      </trkpt>
      <trkpt lat="47.30677" lon="-1.83015">
        <ele>50.9</ele>
        <time>2013-09-22T10:23:40Z</time>
      </trkpt>
      <trkpt lat="47.30662" lon="-1.83011">
        <ele>50.2</ele>
        <time>2013-09-22T10:23:42Z</time>
      </trkpt>
      <trkpt lat="47.30646" lon="-1.83007">
        <ele>49.7</ele>
        <time>2013-09-22T10:23:44Z</time>
      </trkpt>
      <trkpt lat="47.30629" lon="-1.83011">
        <ele>49.4</ele>
        <time>2013-09-22T10:23:46Z</time>
      </trkpt>
      <trkpt lat="47.30615" lon="-1.83021">
        <ele>50</ele>
        <time>2013-09-22T10:23:48Z</time>
      </trkpt>
      <trkpt lat="47.30607" lon="-1.8303">
        <ele>50.3</ele>
        <time>2013-09-22T10:23:49Z</time>
      </trkpt>
      <trkpt lat="47.30602" lon="-1.83042">
        <ele>50.6</ele>
        <time>2013-09-22T10:23:50Z</time>
      </trkpt>
      <trkpt lat="47.30596" lon="-1.83056">
        <ele>50.7</ele>
        <time>2013-09-22T10:23:51Z</time>
      </trkpt>
      <trkpt lat="47.30594" lon="-1.83071">
        <ele>51</ele>
        <time>2013-09-22T10:23:52Z</time>
      </trkpt>
      <trkpt lat="47.30592" lon="-1.83086">
        <ele>51.2</ele>
        <time>2013-09-22T10:23:53Z</time>
      </trkpt>
      <trkpt lat="47.30591" lon="-1.83101">
        <ele>51.1</ele>
        <time>2013-09-22T10:23:54Z</time>
      </trkpt>
      <trkpt lat="47.30591" lon="-1.83116">
        <ele>51.3</ele>
        <time>2013-09-22T10:23:55Z</time>
      </trkpt>
      <trkpt lat="47.30591" lon="-1.83132">
        <ele>51.1</ele>
        <time>2013-09-22T10:23:56Z</time>
      </trkpt>
      <trkpt lat="47.30591" lon="-1.83145">
        <ele>50.8</ele>
        <time>2013-09-22T10:23:57Z</time>
      </trkpt>
      <trkpt lat="47.30592" lon="-1.83161">
        <ele>50.4</ele>
        <time>2013-09-22T10:23:58Z</time>
      </trkpt>
      <trkpt lat="47.30593" lon="-1.83175">
        <ele>50.1</ele>
        <time>2013-09-22T10:23:59Z</time>
      </trkpt>
      <trkpt lat="47.30595" lon="-1.83192">
        <ele>50</ele>
        <time>2013-09-22T10:24:00Z</time>
      </trkpt>
      <trkpt lat="47.30596" lon="-1.83209">
        <ele>49.8</ele>
        <time>2013-09-22T10:24:01Z</time>
      </trkpt>
      <trkpt lat="47.30596" lon="-1.83223">
        <ele>49.8</ele>
        <time>2013-09-22T10:24:02Z</time>
      </trkpt>
      <trkpt lat="47.30597" lon="-1.83238">
        <ele>49.6</ele>
        <time>2013-09-22T10:24:03Z</time>
      </trkpt>
      <trkpt lat="47.30598" lon="-1.83254">
        <ele>49.3</ele>
        <time>2013-09-22T10:24:04Z</time>
      </trkpt>
      <trkpt lat="47.30598" lon="-1.8327">
        <ele>48.8</ele>
        <time>2013-09-22T10:24:05Z</time>
      </trkpt>
      <trkpt lat="47.30599" lon="-1.83286">
        <ele>48.4</ele>
        <time>2013-09-22T10:24:06Z</time>
      </trkpt>
      <trkpt lat="47.306" lon="-1.83302">
        <ele>48</ele>
        <time>2013-09-22T10:24:07Z</time>
      </trkpt>
      <trkpt lat="47.30601" lon="-1.83318">
        <ele>47.4</ele>
        <time>2013-09-22T10:24:08Z</time>
      </trkpt>
      <trkpt lat="47.30602" lon="-1.83334">
        <ele>46.7</ele>
        <time>2013-09-22T10:24:09Z</time>
      </trkpt>
      <trkpt lat="47.30603" lon="-1.8335">
        <ele>46.1</ele>
        <time>2013-09-22T10:24:10Z</time>
      </trkpt>
      <trkpt lat="47.30603" lon="-1.83367">
        <ele>45.2</ele>
        <time>2013-09-22T10:24:11Z</time>
      </trkpt>
      <trkpt lat="47.30604" lon="-1.83383">
        <ele>44.6</ele>
        <time>2013-09-22T10:24:12Z</time>
      </trkpt>
      <trkpt lat="47.30604" lon="-1.834">
        <ele>44.1</ele>
        <time>2013-09-22T10:24:13Z</time>
      </trkpt>
      <trkpt lat="47.30605" lon="-1.83417">
        <ele>43.6</ele>
        <time>2013-09-22T10:24:14Z</time>
      </trkpt>
      <trkpt lat="47.30605" lon="-1.83434">
        <ele>43.2</ele>
        <time>2013-09-22T10:24:15Z</time>
      </trkpt>
      <trkpt lat="47.30605" lon="-1.83451">
        <ele>42.8</ele>
        <time>2013-09-22T10:24:16Z</time>
      </trkpt>
      <trkpt lat="47.30606" lon="-1.83469">
        <ele>42.3</ele>
        <time>2013-09-22T10:24:17Z</time>
      </trkpt>
      <trkpt lat="47.30607" lon="-1.83487">
        <ele>41.8</ele>
        <time>2013-09-22T10:24:18Z</time>
      </trkpt>
      <trkpt lat="47.30607" lon="-1.83505">
        <ele>41.2</ele>
        <time>2013-09-22T10:24:19Z</time>
      </trkpt>
      <trkpt lat="47.30608" lon="-1.83524">
        <ele>40.5</ele>
        <time>2013-09-22T10:24:20Z</time>
      </trkpt>
      <trkpt lat="47.30608" lon="-1.83541">
        <ele>39.6</ele>
        <time>2013-09-22T10:24:21Z</time>
      </trkpt>
      <trkpt lat="47.30609" lon="-1.83559">
        <ele>38.7</ele>
        <time>2013-09-22T10:24:22Z</time>
      </trkpt>
      <trkpt lat="47.30609" lon="-1.83577">
        <ele>37.6</ele>
        <time>2013-09-22T10:24:23Z</time>
      </trkpt>
      <trkpt lat="47.3061" lon="-1.83594">
        <ele>37.5</ele>
        <time>2013-09-22T10:24:24Z</time>
      </trkpt>
      <trkpt lat="47.30611" lon="-1.83612">
        <ele>37.3</ele>
        <time>2013-09-22T10:24:25Z</time>
      </trkpt>
      <trkpt lat="47.30612" lon="-1.8363">
        <ele>37.2</ele>
        <time>2013-09-22T10:24:26Z</time>
      </trkpt>
      <trkpt lat="47.30613" lon="-1.83648">
        <ele>36.9</ele>
        <time>2013-09-22T10:24:27Z</time>
      </trkpt>
      <trkpt lat="47.30613" lon="-1.83665">
        <ele>36.5</ele>
        <time>2013-09-22T10:24:28Z</time>
      </trkpt>
      <trkpt lat="47.30614" lon="-1.83685">
        <ele>36.2</ele>
        <time>2013-09-22T10:24:29Z</time>
      </trkpt>
      <trkpt lat="47.30614" lon="-1.83703">
        <ele>35.5</ele>
        <time>2013-09-22T10:24:30Z</time>
      </trkpt>
      <trkpt lat="47.30615" lon="-1.8372">
        <ele>34.7</ele>
        <time>2013-09-22T10:24:31Z</time>
      </trkpt>
      <trkpt lat="47.30615" lon="-1.83737">
        <ele>33.8</ele>
        <time>2013-09-22T10:24:32Z</time>
      </trkpt>
      <trkpt lat="47.30615" lon="-1.83754">
        <ele>32.7</ele>
        <time>2013-09-22T10:24:33Z</time>
      </trkpt>
      <trkpt lat="47.30615" lon="-1.83769">
        <ele>31.7</ele>
        <time>2013-09-22T10:24:34Z</time>
      </trkpt>
      <trkpt lat="47.30616" lon="-1.83786">
        <ele>30.9</ele>
        <time>2013-09-22T10:24:35Z</time>
      </trkpt>
      <trkpt lat="47.30615" lon="-1.83803">
        <ele>30.2</ele>
        <time>2013-09-22T10:24:36Z</time>
      </trkpt>
      <trkpt lat="47.30615" lon="-1.83819">
        <ele>29.7</ele>
        <time>2013-09-22T10:24:37Z</time>
      </trkpt>
      <trkpt lat="47.30615" lon="-1.83834">
        <ele>28.6</ele>
        <time>2013-09-22T10:24:38Z</time>
      </trkpt>
      <trkpt lat="47.30615" lon="-1.83849">
        <ele>27.4</ele>
        <time>2013-09-22T10:24:39Z</time>
      </trkpt>
      <trkpt lat="47.30615" lon="-1.83874">
        <ele>25.2</ele>
        <time>2013-09-22T10:24:41Z</time>
      </trkpt>
      <trkpt lat="47.30616" lon="-1.83888">
        <ele>24.3</ele>
        <time>2013-09-22T10:24:42Z</time>
      </trkpt>
      <trkpt lat="47.30616" lon="-1.83914">
        <ele>22.8</ele>
        <time>2013-09-22T10:24:44Z</time>
      </trkpt>
      <trkpt lat="47.30617" lon="-1.83927">
        <ele>22.2</ele>
        <time>2013-09-22T10:24:45Z</time>
      </trkpt>
      <trkpt lat="47.30618" lon="-1.8395">
        <ele>21.1</ele>
        <time>2013-09-22T10:24:47Z</time>
      </trkpt>
      <trkpt lat="47.30618" lon="-1.83974">
        <ele>20.2</ele>
        <time>2013-09-22T10:24:49Z</time>
      </trkpt>
      <trkpt lat="47.30619" lon="-1.83997">
        <ele>19.7</ele>
        <time>2013-09-22T10:24:51Z</time>
      </trkpt>
      <trkpt lat="47.30618" lon="-1.84022">
        <ele>19.3</ele>
        <time>2013-09-22T10:24:53Z</time>
      </trkpt>
      <trkpt lat="47.30616" lon="-1.84035">
        <ele>19</ele>
        <time>2013-09-22T10:24:54Z</time>
      </trkpt>
      <trkpt lat="47.30612" lon="-1.84062">
        <ele>17.8</ele>
        <time>2013-09-22T10:24:56Z</time>
      </trkpt>
      <trkpt lat="47.30606" lon="-1.84073">
        <ele>17.6</ele>
        <time>2013-09-22T10:24:57Z</time>
      </trkpt>
      <trkpt lat="47.30601" lon="-1.84085">
        <ele>17.6</ele>
        <time>2013-09-22T10:24:58Z</time>
      </trkpt>
      <trkpt lat="47.30595" lon="-1.84098">
        <ele>17.8</ele>
        <time>2013-09-22T10:24:59Z</time>
      </trkpt>
      <trkpt lat="47.30589" lon="-1.8411">
        <ele>18.1</ele>
        <time>2013-09-22T10:25:00Z</time>
      </trkpt>
      <trkpt lat="47.30582" lon="-1.84122">
        <ele>18.4</ele>
        <time>2013-09-22T10:25:01Z</time>
      </trkpt>
      <trkpt lat="47.30575" lon="-1.84132">
        <ele>18.4</ele>
        <time>2013-09-22T10:25:02Z</time>
      </trkpt>
      <trkpt lat="47.30568" lon="-1.84144">
        <ele>18.5</ele>
        <time>2013-09-22T10:25:03Z</time>
      </trkpt>
      <trkpt lat="47.3056" lon="-1.84154">
        <ele>18.6</ele>
        <time>2013-09-22T10:25:04Z</time>
      </trkpt>
      <trkpt lat="47.30552" lon="-1.84164">
        <ele>18.5</ele>
        <time>2013-09-22T10:25:05Z</time>
      </trkpt>
      <trkpt lat="47.30545" lon="-1.84173">
        <ele>18.1</ele>
        <time>2013-09-22T10:25:06Z</time>
      </trkpt>
      <trkpt lat="47.30537" lon="-1.84182">
        <ele>17.7</ele>
        <time>2013-09-22T10:25:07Z</time>
      </trkpt>
      <trkpt lat="47.30529" lon="-1.8419">
        <ele>17.4</ele>
        <time>2013-09-22T10:25:08Z</time>
      </trkpt>
      <trkpt lat="47.30521" lon="-1.84198">
        <ele>16.7</ele>
        <time>2013-09-22T10:25:09Z</time>
      </trkpt>
      <trkpt lat="47.30513" lon="-1.84206">
        <ele>16</ele>
        <time>2013-09-22T10:25:10Z</time>
      </trkpt>
      <trkpt lat="47.30504" lon="-1.84214">
        <ele>15.3</ele>
        <time>2013-09-22T10:25:11Z</time>
      </trkpt>
      <trkpt lat="47.30497" lon="-1.84222">
        <ele>14.3</ele>
        <time>2013-09-22T10:25:12Z</time>
      </trkpt>
      <trkpt lat="47.3049" lon="-1.84229">
        <ele>13.3</ele>
        <time>2013-09-22T10:25:13Z</time>
      </trkpt>
      <trkpt lat="47.30482" lon="-1.84237">
        <ele>12.5</ele>
        <time>2013-09-22T10:25:14Z</time>
      </trkpt>
      <trkpt lat="47.30467" lon="-1.84252">
        <ele>10.8</ele>
        <time>2013-09-22T10:25:16Z</time>
      </trkpt>
      <trkpt lat="47.30459" lon="-1.8426">
        <ele>10.3</ele>
        <time>2013-09-22T10:25:17Z</time>
      </trkpt>
      <trkpt lat="47.30451" lon="-1.84269">
        <ele>10</ele>
        <time>2013-09-22T10:25:18Z</time>
      </trkpt>
      <trkpt lat="47.30437" lon="-1.84284">
        <ele>9.5</ele>
        <time>2013-09-22T10:25:20Z</time>
      </trkpt>
      <trkpt lat="47.30424" lon="-1.84299">
        <ele>8.9</ele>
        <time>2013-09-22T10:25:22Z</time>
      </trkpt>
      <trkpt lat="47.30414" lon="-1.84314">
        <ele>8.1</ele>
        <time>2013-09-22T10:25:24Z</time>
      </trkpt>
      <trkpt lat="47.30406" lon="-1.84332">
        <ele>7.6</ele>
        <time>2013-09-22T10:25:26Z</time>
      </trkpt>
      <trkpt lat="47.30395" lon="-1.84348">
        <ele>6.4</ele>
        <time>2013-09-22T10:25:28Z</time>
      </trkpt>
      <trkpt lat="47.30382" lon="-1.84359">
        <ele>5.5</ele>
        <time>2013-09-22T10:25:30Z</time>
      </trkpt>
      <trkpt lat="47.30369" lon="-1.84368">
        <ele>4.8</ele>
        <time>2013-09-22T10:25:32Z</time>
      </trkpt>
      <trkpt lat="47.30354" lon="-1.84381">
        <ele>4.8</ele>
        <time>2013-09-22T10:25:34Z</time>
      </trkpt>
      <trkpt lat="47.3034" lon="-1.84394">
        <ele>5</ele>
        <time>2013-09-22T10:25:36Z</time>
      </trkpt>
      <trkpt lat="47.30328" lon="-1.84407">
        <ele>5.2</ele>
        <time>2013-09-22T10:25:38Z</time>
      </trkpt>
      <trkpt lat="47.30317" lon="-1.84422">
        <ele>5.4</ele>
        <time>2013-09-22T10:25:40Z</time>
      </trkpt>
      <trkpt lat="47.30305" lon="-1.84436">
        <ele>5.3</ele>
        <time>2013-09-22T10:25:42Z</time>
      </trkpt>
      <trkpt lat="47.30292" lon="-1.84451">
        <ele>5.5</ele>
        <time>2013-09-22T10:25:44Z</time>
      </trkpt>
      <trkpt lat="47.3028" lon="-1.84465">
        <ele>5.5</ele>
        <time>2013-09-22T10:25:46Z</time>
      </trkpt>
      <trkpt lat="47.30268" lon="-1.84479">
        <ele>6.5</ele>
        <time>2013-09-22T10:25:48Z</time>
      </trkpt>
      <trkpt lat="47.30255" lon="-1.84494">
        <ele>6.7</ele>
        <time>2013-09-22T10:25:50Z</time>
      </trkpt>
      <trkpt lat="47.30242" lon="-1.8451">
        <ele>6.8</ele>
        <time>2013-09-22T10:25:52Z</time>
      </trkpt>
      <trkpt lat="47.30231" lon="-1.84522">
        <ele>6.4</ele>
        <time>2013-09-22T10:25:54Z</time>
      </trkpt>
      <trkpt lat="47.3022" lon="-1.84535">
        <ele>5.3</ele>
        <time>2013-09-22T10:25:55Z</time>
      </trkpt>
      <trkpt lat="47.3021" lon="-1.84548">
        <ele>5</ele>
        <time>2013-09-22T10:25:57Z</time>
      </trkpt>
      <trkpt lat="47.30201" lon="-1.84559">
        <ele>5.6</ele>
        <time>2013-09-22T10:25:59Z</time>
      </trkpt>
      <trkpt lat="47.30193" lon="-1.84568">
        <ele>6</ele>
        <time>2013-09-22T10:26:01Z</time>
      </trkpt>
      <trkpt lat="47.30185" lon="-1.84577">
        <ele>5.6</ele>
        <time>2013-09-22T10:26:03Z</time>
      </trkpt>
      <trkpt lat="47.30176" lon="-1.84587">
        <ele>5.5</ele>
        <time>2013-09-22T10:26:05Z</time>
      </trkpt>
      <trkpt lat="47.30168" lon="-1.84596">
        <ele>6.4</ele>
        <time>2013-09-22T10:26:07Z</time>
      </trkpt>
      <trkpt lat="47.3016" lon="-1.84608">
        <ele>7.8</ele>
        <time>2013-09-22T10:26:10Z</time>
      </trkpt>
      <trkpt lat="47.30155" lon="-1.84621">
        <ele>7.8</ele>
        <time>2013-09-22T10:26:13Z</time>
      </trkpt>
      <trkpt lat="47.30148" lon="-1.84628">
        <ele>8.4</ele>
        <time>2013-09-22T10:27:35Z</time>
      </trkpt>
      <trkpt lat="47.30138" lon="-1.84635">
        <ele>8.4</ele>
        <time>2013-09-22T10:27:38Z</time>
      </trkpt>
      <trkpt lat="47.30128" lon="-1.84646">
        <ele>8.3</ele>
        <time>2013-09-22T10:27:41Z</time>
      </trkpt>
      <trkpt lat="47.30122" lon="-1.84655">
        <ele>8.3</ele>
        <time>2013-09-22T10:27:43Z</time>
      </trkpt>
      <trkpt lat="47.30112" lon="-1.84668">
        <ele>7.4</ele>
        <time>2013-09-22T10:27:46Z</time>
      </trkpt>
      <trkpt lat="47.30101" lon="-1.84679">
        <ele>7.3</ele>
        <time>2013-09-22T10:27:49Z</time>
      </trkpt>
      <trkpt lat="47.30093" lon="-1.84687">
        <ele>6.7</ele>
        <time>2013-09-22T10:27:51Z</time>
      </trkpt>
      <trkpt lat="47.30084" lon="-1.84697">
        <ele>6.9</ele>
        <time>2013-09-22T10:27:54Z</time>
      </trkpt>
      <trkpt lat="47.30077" lon="-1.84707">
        <ele>8</ele>
        <time>2013-09-22T10:27:56Z</time>
      </trkpt>
      <trkpt lat="47.30071" lon="-1.84716">
        <ele>8.6</ele>
        <time>2013-09-22T10:27:58Z</time>
      </trkpt>
      <trkpt lat="47.30064" lon="-1.84725">
        <ele>9.4</ele>
        <time>2013-09-22T10:28:00Z</time>
      </trkpt>
      <trkpt lat="47.30056" lon="-1.84735">
        <ele>9.9</ele>
        <time>2013-09-22T10:28:02Z</time>
      </trkpt>
      <trkpt lat="47.30049" lon="-1.84747">
        <ele>9.7</ele>
        <time>2013-09-22T10:28:04Z</time>
      </trkpt>
      <trkpt lat="47.30042" lon="-1.84762">
        <ele>9.2</ele>
        <time>2013-09-22T10:28:07Z</time>
      </trkpt>
      <trkpt lat="47.30034" lon="-1.84778">
        <ele>9.3</ele>
        <time>2013-09-22T10:28:10Z</time>
      </trkpt>
      <trkpt lat="47.30028" lon="-1.84789">
        <ele>10.1</ele>
        <time>2013-09-22T10:28:12Z</time>
      </trkpt>
      <trkpt lat="47.30022" lon="-1.848">
        <ele>10.4</ele>
        <time>2013-09-22T10:28:14Z</time>
      </trkpt>
      <trkpt lat="47.30016" lon="-1.84812">
        <ele>10.7</ele>
        <time>2013-09-22T10:28:16Z</time>
      </trkpt>
      <trkpt lat="47.30011" lon="-1.84823">
        <ele>11.3</ele>
        <time>2013-09-22T10:28:18Z</time>
      </trkpt>
      <trkpt lat="47.30005" lon="-1.84835">
        <ele>11</ele>
        <time>2013-09-22T10:28:20Z</time>
      </trkpt>
      <trkpt lat="47.3" lon="-1.84846">
        <ele>11</ele>
        <time>2013-09-22T10:28:22Z</time>
      </trkpt>
      <trkpt lat="47.29992" lon="-1.84863">
        <ele>10.8</ele>
        <time>2013-09-22T10:28:25Z</time>
      </trkpt>
      <trkpt lat="47.29987" lon="-1.84876">
        <ele>11.2</ele>
        <time>2013-09-22T10:28:27Z</time>
      </trkpt>
      <trkpt lat="47.29981" lon="-1.84891">
        <ele>11.7</ele>
        <time>2013-09-22T10:28:29Z</time>
      </trkpt>
      <trkpt lat="47.29974" lon="-1.84908">
        <ele>11.2</ele>
        <time>2013-09-22T10:28:32Z</time>
      </trkpt>
      <trkpt lat="47.2997" lon="-1.8492">
        <ele>11.1</ele>
        <time>2013-09-22T10:28:34Z</time>
      </trkpt>
      <trkpt lat="47.29966" lon="-1.84932">
        <ele>10.6</ele>
        <time>2013-09-22T10:28:36Z</time>
      </trkpt>
      <trkpt lat="47.29962" lon="-1.84945">
        <ele>10.7</ele>
        <time>2013-09-22T10:28:38Z</time>
      </trkpt>
      <trkpt lat="47.29957" lon="-1.84959">
        <ele>10.2</ele>
        <time>2013-09-22T10:28:40Z</time>
      </trkpt>
      <trkpt lat="47.29951" lon="-1.84977">
        <ele>9.3</ele>
        <time>2013-09-22T10:28:43Z</time>
      </trkpt>
      <trkpt lat="47.29947" lon="-1.84989">
        <ele>9</ele>
        <time>2013-09-22T10:28:45Z</time>
      </trkpt>
      <trkpt lat="47.29941" lon="-1.85006">
        <ele>10</ele>
        <time>2013-09-22T10:28:48Z</time>
      </trkpt>
      <trkpt lat="47.29937" lon="-1.85018">
        <ele>11.2</ele>
        <time>2013-09-22T10:28:50Z</time>
      </trkpt>
      <trkpt lat="47.29934" lon="-1.8503">
        <ele>12.1</ele>
        <time>2013-09-22T10:28:52Z</time>
      </trkpt>
      <trkpt lat="47.2993" lon="-1.85042">
        <ele>12.4</ele>
        <time>2013-09-22T10:28:54Z</time>
      </trkpt>
      <trkpt lat="47.29924" lon="-1.85059">
        <ele>12.4</ele>
        <time>2013-09-22T10:28:57Z</time>
      </trkpt>
      <trkpt lat="47.2992" lon="-1.85071">
        <ele>12.2</ele>
        <time>2013-09-22T10:28:59Z</time>
      </trkpt>
      <trkpt lat="47.29916" lon="-1.85084">
        <ele>11.9</ele>
        <time>2013-09-22T10:29:01Z</time>
      </trkpt>
      <trkpt lat="47.29911" lon="-1.85101">
        <ele>12.4</ele>
        <time>2013-09-22T10:29:04Z</time>
      </trkpt>
      <trkpt lat="47.29905" lon="-1.8512">
        <ele>12.8</ele>
        <time>2013-09-22T10:29:07Z</time>
      </trkpt>
      <trkpt lat="47.29902" lon="-1.85133">
        <ele>13.2</ele>
        <time>2013-09-22T10:29:09Z</time>
      </trkpt>
      <trkpt lat="47.29896" lon="-1.85151">
        <ele>13.3</ele>
        <time>2013-09-22T10:29:12Z</time>
      </trkpt>
      <trkpt lat="47.29891" lon="-1.85167">
        <ele>13.4</ele>
        <time>2013-09-22T10:29:15Z</time>
      </trkpt>
      <trkpt lat="47.29886" lon="-1.85184">
        <ele>13.9</ele>
        <time>2013-09-22T10:29:18Z</time>
      </trkpt>
      <trkpt lat="47.29881" lon="-1.85198">
        <ele>13.6</ele>
        <time>2013-09-22T10:29:21Z</time>
      </trkpt>
      <trkpt lat="47.29875" lon="-1.85214">
        <ele>12.9</ele>
        <time>2013-09-22T10:29:24Z</time>
      </trkpt>
      <trkpt lat="47.29868" lon="-1.85231">
        <ele>12.2</ele>
        <time>2013-09-22T10:29:27Z</time>
      </trkpt>
      <trkpt lat="47.29862" lon="-1.85242">
        <ele>11.8</ele>
        <time>2013-09-22T10:29:29Z</time>
      </trkpt>
      <trkpt lat="47.29857" lon="-1.85254">
        <ele>11.6</ele>
        <time>2013-09-22T10:29:31Z</time>
      </trkpt>
      <trkpt lat="47.29852" lon="-1.85265">
        <ele>11.7</ele>
        <time>2013-09-22T10:29:33Z</time>
      </trkpt>
      <trkpt lat="47.29848" lon="-1.85277">
        <ele>12</ele>
        <time>2013-09-22T10:29:35Z</time>
      </trkpt>
      <trkpt lat="47.29842" lon="-1.85288">
        <ele>11.9</ele>
        <time>2013-09-22T10:29:37Z</time>
      </trkpt>
      <trkpt lat="47.29837" lon="-1.853">
        <ele>11.6</ele>
        <time>2013-09-22T10:29:39Z</time>
      </trkpt>
      <trkpt lat="47.29831" lon="-1.85313">
        <ele>11.3</ele>
        <time>2013-09-22T10:29:41Z</time>
      </trkpt>
      <trkpt lat="47.29826" lon="-1.85326">
        <ele>11.2</ele>
        <time>2013-09-22T10:29:43Z</time>
      </trkpt>
      <trkpt lat="47.2982" lon="-1.8534">
        <ele>11.3</ele>
        <time>2013-09-22T10:29:45Z</time>
      </trkpt>
      <trkpt lat="47.29814" lon="-1.85353">
        <ele>12.2</ele>
        <time>2013-09-22T10:29:47Z</time>
      </trkpt>
      <trkpt lat="47.29808" lon="-1.85367">
        <ele>12.9</ele>
        <time>2013-09-22T10:29:49Z</time>
      </trkpt>
      <trkpt lat="47.29803" lon="-1.8538">
        <ele>12.9</ele>
        <time>2013-09-22T10:29:51Z</time>
      </trkpt>
      <trkpt lat="47.29798" lon="-1.85392">
        <ele>12.4</ele>
        <time>2013-09-22T10:29:53Z</time>
      </trkpt>
      <trkpt lat="47.29792" lon="-1.85405">
        <ele>11.6</ele>
        <time>2013-09-22T10:29:55Z</time>
      </trkpt>
      <trkpt lat="47.29786" lon="-1.8542">
        <ele>11.7</ele>
        <time>2013-09-22T10:29:57Z</time>
      </trkpt>
      <trkpt lat="47.2978" lon="-1.85433">
        <ele>12.1</ele>
        <time>2013-09-22T10:29:59Z</time>
      </trkpt>
      <trkpt lat="47.29773" lon="-1.85449">
        <ele>12.6</ele>
        <time>2013-09-22T10:30:01Z</time>
      </trkpt>
      <trkpt lat="47.29768" lon="-1.85462">
        <ele>12.4</ele>
        <time>2013-09-22T10:30:03Z</time>
      </trkpt>
      <trkpt lat="47.29762" lon="-1.85476">
        <ele>12</ele>
        <time>2013-09-22T10:30:05Z</time>
      </trkpt>
      <trkpt lat="47.29756" lon="-1.85491">
        <ele>11.9</ele>
        <time>2013-09-22T10:30:07Z</time>
      </trkpt>
      <trkpt lat="47.2975" lon="-1.85506">
        <ele>11.8</ele>
        <time>2013-09-22T10:30:09Z</time>
      </trkpt>
      <trkpt lat="47.29744" lon="-1.85521">
        <ele>11.4</ele>
        <time>2013-09-22T10:30:11Z</time>
      </trkpt>
      <trkpt lat="47.29737" lon="-1.85536">
        <ele>10.8</ele>
        <time>2013-09-22T10:30:13Z</time>
      </trkpt>
      <trkpt lat="47.29731" lon="-1.85551">
        <ele>10.7</ele>
        <time>2013-09-22T10:30:15Z</time>
      </trkpt>
      <trkpt lat="47.29725" lon="-1.85566">
        <ele>10.1</ele>
        <time>2013-09-22T10:30:17Z</time>
      </trkpt>
      <trkpt lat="47.29719" lon="-1.85581">
        <ele>9.8</ele>
        <time>2013-09-22T10:30:19Z</time>
      </trkpt>
      <trkpt lat="47.29713" lon="-1.85597">
        <ele>9.7</ele>
        <time>2013-09-22T10:30:21Z</time>
      </trkpt>
      <trkpt lat="47.29707" lon="-1.85613">
        <ele>10.2</ele>
        <time>2013-09-22T10:30:23Z</time>
      </trkpt>
      <trkpt lat="47.29701" lon="-1.85629">
        <ele>11.2</ele>
        <time>2013-09-22T10:30:25Z</time>
      </trkpt>
      <trkpt lat="47.29696" lon="-1.85644">
        <ele>11.7</ele>
        <time>2013-09-22T10:30:27Z</time>
      </trkpt>
      <trkpt lat="47.29691" lon="-1.8566">
        <ele>12.1</ele>
        <time>2013-09-22T10:30:29Z</time>
      </trkpt>
      <trkpt lat="47.29685" lon="-1.85676">
        <ele>12.2</ele>
        <time>2013-09-22T10:30:31Z</time>
      </trkpt>
      <trkpt lat="47.29679" lon="-1.85692">
        <ele>12.2</ele>
        <time>2013-09-22T10:30:33Z</time>
      </trkpt>
      <trkpt lat="47.29673" lon="-1.85709">
        <ele>12.2</ele>
        <time>2013-09-22T10:30:35Z</time>
      </trkpt>
      <trkpt lat="47.29666" lon="-1.85726">
        <ele>11.6</ele>
        <time>2013-09-22T10:30:37Z</time>
      </trkpt>
      <trkpt lat="47.29659" lon="-1.85743">
        <ele>11.1</ele>
        <time>2013-09-22T10:30:39Z</time>
      </trkpt>
      <trkpt lat="47.29652" lon="-1.8576">
        <ele>10.5</ele>
        <time>2013-09-22T10:30:41Z</time>
      </trkpt>
      <trkpt lat="47.29646" lon="-1.85777">
        <ele>9.8</ele>
        <time>2013-09-22T10:30:43Z</time>
      </trkpt>
      <trkpt lat="47.29639" lon="-1.85795">
        <ele>9.2</ele>
        <time>2013-09-22T10:30:45Z</time>
      </trkpt>
      <trkpt lat="47.29633" lon="-1.85812">
        <ele>8.6</ele>
        <time>2013-09-22T10:30:47Z</time>
      </trkpt>
      <trkpt lat="47.29626" lon="-1.8583">
        <ele>8.6</ele>
        <time>2013-09-22T10:30:49Z</time>
      </trkpt>
      <trkpt lat="47.2962" lon="-1.85847">
        <ele>9.3</ele>
        <time>2013-09-22T10:30:51Z</time>
      </trkpt>
      <trkpt lat="47.29613" lon="-1.85864">
        <ele>9</ele>
        <time>2013-09-22T10:30:53Z</time>
      </trkpt>
      <trkpt lat="47.29606" lon="-1.85882">
        <ele>8.6</ele>
        <time>2013-09-22T10:30:55Z</time>
      </trkpt>
      <trkpt lat="47.296" lon="-1.859">
        <ele>8</ele>
        <time>2013-09-22T10:30:57Z</time>
      </trkpt>
      <trkpt lat="47.29593" lon="-1.85917">
        <ele>7.2</ele>
        <time>2013-09-22T10:30:59Z</time>
      </trkpt>
      <trkpt lat="47.29586" lon="-1.85935">
        <ele>6.7</ele>
        <time>2013-09-22T10:31:01Z</time>
      </trkpt>
      <trkpt lat="47.29579" lon="-1.85953">
        <ele>6.1</ele>
        <time>2013-09-22T10:31:03Z</time>
      </trkpt>
      <trkpt lat="47.29572" lon="-1.85971">
        <ele>5.9</ele>
        <time>2013-09-22T10:31:05Z</time>
      </trkpt>
      <trkpt lat="47.29565" lon="-1.85989">
        <ele>6</ele>
        <time>2013-09-22T10:31:07Z</time>
      </trkpt>
      <trkpt lat="47.29559" lon="-1.86007">
        <ele>6.3</ele>
        <time>2013-09-22T10:31:09Z</time>
      </trkpt>
      <trkpt lat="47.29552" lon="-1.86026">
        <ele>6.2</ele>
        <time>2013-09-22T10:31:11Z</time>
      </trkpt>
      <trkpt lat="47.29545" lon="-1.86044">
        <ele>6.1</ele>
        <time>2013-09-22T10:31:13Z</time>
      </trkpt>
      <trkpt lat="47.29539" lon="-1.86062">
        <ele>6.1</ele>
        <time>2013-09-22T10:31:15Z</time>
      </trkpt>
      <trkpt lat="47.29532" lon="-1.86079">
        <ele>6.1</ele>
        <time>2013-09-22T10:31:17Z</time>
      </trkpt>
      <trkpt lat="47.29526" lon="-1.86097">
        <ele>6.2</ele>
        <time>2013-09-22T10:31:19Z</time>
      </trkpt>
      <trkpt lat="47.2952" lon="-1.86114">
        <ele>6</ele>
        <time>2013-09-22T10:31:21Z</time>
      </trkpt>
      <trkpt lat="47.29513" lon="-1.86131">
        <ele>6.1</ele>
        <time>2013-09-22T10:31:23Z</time>
      </trkpt>
      <trkpt lat="47.29507" lon="-1.86148">
        <ele>6.1</ele>
        <time>2013-09-22T10:31:25Z</time>
      </trkpt>
      <trkpt lat="47.29501" lon="-1.86165">
        <ele>5.9</ele>
        <time>2013-09-22T10:31:27Z</time>
      </trkpt>
      <trkpt lat="47.29494" lon="-1.86182">
        <ele>5.6</ele>
        <time>2013-09-22T10:31:29Z</time>
      </trkpt>
      <trkpt lat="47.29487" lon="-1.86198">
        <ele>5.5</ele>
        <time>2013-09-22T10:31:31Z</time>
      </trkpt>
      <trkpt lat="47.29481" lon="-1.86214">
        <ele>5.5</ele>
        <time>2013-09-22T10:31:33Z</time>
      </trkpt>
      <trkpt lat="47.29475" lon="-1.8623">
        <ele>5.7</ele>
        <time>2013-09-22T10:31:35Z</time>
      </trkpt>
      <trkpt lat="47.29468" lon="-1.86245">
        <ele>5.5</ele>
        <time>2013-09-22T10:31:37Z</time>
      </trkpt>
      <trkpt lat="47.2946" lon="-1.86261">
        <ele>5.3</ele>
        <time>2013-09-22T10:31:39Z</time>
      </trkpt>
      <trkpt lat="47.29453" lon="-1.86276">
        <ele>5.2</ele>
        <time>2013-09-22T10:31:41Z</time>
      </trkpt>
      <trkpt lat="47.29446" lon="-1.86292">
        <ele>4.9</ele>
        <time>2013-09-22T10:31:43Z</time>
      </trkpt>
      <trkpt lat="47.29439" lon="-1.86306">
        <ele>4.8</ele>
        <time>2013-09-22T10:31:45Z</time>
      </trkpt>
      <trkpt lat="47.29432" lon="-1.86322">
        <ele>4.8</ele>
        <time>2013-09-22T10:31:47Z</time>
      </trkpt>
      <trkpt lat="47.29426" lon="-1.86337">
        <ele>5</ele>
        <time>2013-09-22T10:31:49Z</time>
      </trkpt>
      <trkpt lat="47.29419" lon="-1.86352">
        <ele>5</ele>
        <time>2013-09-22T10:31:51Z</time>
      </trkpt>
      <trkpt lat="47.29413" lon="-1.86367">
        <ele>5.1</ele>
        <time>2013-09-22T10:31:53Z</time>
      </trkpt>
      <trkpt lat="47.29406" lon="-1.86382">
        <ele>4.9</ele>
        <time>2013-09-22T10:31:55Z</time>
      </trkpt>
      <trkpt lat="47.294" lon="-1.86398">
        <ele>5.2</ele>
        <time>2013-09-22T10:31:57Z</time>
      </trkpt>
      <trkpt lat="47.29394" lon="-1.86412">
        <ele>5.9</ele>
        <time>2013-09-22T10:31:59Z</time>
      </trkpt>
      <trkpt lat="47.29388" lon="-1.86426">
        <ele>6.3</ele>
        <time>2013-09-22T10:32:01Z</time>
      </trkpt>
      <trkpt lat="47.29381" lon="-1.8644">
        <ele>6.5</ele>
        <time>2013-09-22T10:32:03Z</time>
      </trkpt>
      <trkpt lat="47.29374" lon="-1.86454">
        <ele>7.3</ele>
        <time>2013-09-22T10:32:05Z</time>
      </trkpt>
      <trkpt lat="47.29368" lon="-1.86468">
        <ele>8.3</ele>
        <time>2013-09-22T10:32:07Z</time>
      </trkpt>
      <trkpt lat="47.29362" lon="-1.86482">
        <ele>9</ele>
        <time>2013-09-22T10:32:09Z</time>
      </trkpt>
      <trkpt lat="47.29355" lon="-1.86496">
        <ele>8.9</ele>
        <time>2013-09-22T10:32:11Z</time>
      </trkpt>
      <trkpt lat="47.29348" lon="-1.8651">
        <ele>8.6</ele>
        <time>2013-09-22T10:32:13Z</time>
      </trkpt>
      <trkpt lat="47.29342" lon="-1.86525">
        <ele>8.5</ele>
        <time>2013-09-22T10:32:15Z</time>
      </trkpt>
      <trkpt lat="47.29336" lon="-1.8654">
        <ele>9.3</ele>
        <time>2013-09-22T10:32:17Z</time>
      </trkpt>
      <trkpt lat="47.2933" lon="-1.86554">
        <ele>9.8</ele>
        <time>2013-09-22T10:32:19Z</time>
      </trkpt>
      <trkpt lat="47.29325" lon="-1.86569">
        <ele>10.7</ele>
        <time>2013-09-22T10:32:21Z</time>
      </trkpt>
      <trkpt lat="47.29319" lon="-1.86582">
        <ele>11.2</ele>
        <time>2013-09-22T10:32:23Z</time>
      </trkpt>
      <trkpt lat="47.29313" lon="-1.86595">
        <ele>11.5</ele>
        <time>2013-09-22T10:32:25Z</time>
      </trkpt>
      <trkpt lat="47.29307" lon="-1.86608">
        <ele>11.6</ele>
        <time>2013-09-22T10:32:27Z</time>
      </trkpt>
      <trkpt lat="47.29302" lon="-1.86622">
        <ele>12.1</ele>
        <time>2013-09-22T10:32:29Z</time>
      </trkpt>
      <trkpt lat="47.29297" lon="-1.86634">
        <ele>11.1</ele>
        <time>2013-09-22T10:32:31Z</time>
      </trkpt>
      <trkpt lat="47.29292" lon="-1.86646">
        <ele>9.2</ele>
        <time>2013-09-22T10:32:33Z</time>
      </trkpt>
      <trkpt lat="47.29288" lon="-1.86659">
        <ele>8.1</ele>
        <time>2013-09-22T10:32:35Z</time>
      </trkpt>
      <trkpt lat="47.29284" lon="-1.86673">
        <ele>7</ele>
        <time>2013-09-22T10:32:37Z</time>
      </trkpt>
      <trkpt lat="47.29282" lon="-1.86687">
        <ele>6.3</ele>
        <time>2013-09-22T10:32:39Z</time>
      </trkpt>
      <trkpt lat="47.29283" lon="-1.86701">
        <ele>5.9</ele>
        <time>2013-09-22T10:32:41Z</time>
      </trkpt>
      <trkpt lat="47.29277" lon="-1.86715">
        <ele>4.7</ele>
        <time>2013-09-22T10:32:44Z</time>
      </trkpt>
      <trkpt lat="47.29265" lon="-1.86725">
        <ele>4.3</ele>
        <time>2013-09-22T10:32:47Z</time>
      </trkpt>
      <trkpt lat="47.29257" lon="-1.86732">
        <ele>4.6</ele>
        <time>2013-09-22T10:32:49Z</time>
      </trkpt>
      <trkpt lat="47.29249" lon="-1.86741">
        <ele>5.2</ele>
        <time>2013-09-22T10:32:51Z</time>
      </trkpt>
      <trkpt lat="47.29243" lon="-1.86751">
        <ele>5.9</ele>
        <time>2013-09-22T10:32:53Z</time>
      </trkpt>
      <trkpt lat="47.29236" lon="-1.86762">
        <ele>6.6</ele>
        <time>2013-09-22T10:32:55Z</time>
      </trkpt>
      <trkpt lat="47.2923" lon="-1.86775">
        <ele>7.5</ele>
        <time>2013-09-22T10:32:57Z</time>
      </trkpt>
      <trkpt lat="47.29226" lon="-1.86788">
        <ele>8.2</ele>
        <time>2013-09-22T10:32:59Z</time>
      </trkpt>
      <trkpt lat="47.29221" lon="-1.868">
        <ele>8</ele>
        <time>2013-09-22T10:33:01Z</time>
      </trkpt>
      <trkpt lat="47.29216" lon="-1.86812">
        <ele>8.1</ele>
        <time>2013-09-22T10:33:03Z</time>
      </trkpt>
      <trkpt lat="47.29211" lon="-1.86825">
        <ele>8.5</ele>
        <time>2013-09-22T10:33:05Z</time>
      </trkpt>
      <trkpt lat="47.29205" lon="-1.86837">
        <ele>9</ele>
        <time>2013-09-22T10:33:07Z</time>
      </trkpt>
      <trkpt lat="47.292" lon="-1.86849">
        <ele>9.7</ele>
        <time>2013-09-22T10:33:09Z</time>
      </trkpt>
      <trkpt lat="47.29195" lon="-1.8686">
        <ele>10</ele>
        <time>2013-09-22T10:33:11Z</time>
      </trkpt>
      <trkpt lat="47.29188" lon="-1.86877">
        <ele>9.2</ele>
        <time>2013-09-22T10:33:14Z</time>
      </trkpt>
      <trkpt lat="47.29183" lon="-1.86889">
        <ele>8.8</ele>
        <time>2013-09-22T10:33:16Z</time>
      </trkpt>
      <trkpt lat="47.29175" lon="-1.86905">
        <ele>8.3</ele>
        <time>2013-09-22T10:33:19Z</time>
      </trkpt>
      <trkpt lat="47.29168" lon="-1.86921">
        <ele>8.4</ele>
        <time>2013-09-22T10:33:22Z</time>
      </trkpt>
      <trkpt lat="47.29161" lon="-1.86937">
        <ele>8.9</ele>
        <time>2013-09-22T10:33:25Z</time>
      </trkpt>
      <trkpt lat="47.29154" lon="-1.86954">
        <ele>9.4</ele>
        <time>2013-09-22T10:33:28Z</time>
      </trkpt>
      <trkpt lat="47.29149" lon="-1.86965">
        <ele>9.4</ele>
        <time>2013-09-22T10:33:30Z</time>
      </trkpt>
      <trkpt lat="47.29141" lon="-1.86981">
        <ele>9.4</ele>
        <time>2013-09-22T10:33:33Z</time>
      </trkpt>
      <trkpt lat="47.29134" lon="-1.86997">
        <ele>9.1</ele>
        <time>2013-09-22T10:33:36Z</time>
      </trkpt>
      <trkpt lat="47.29128" lon="-1.87012">
        <ele>9.7</ele>
        <time>2013-09-22T10:33:39Z</time>
      </trkpt>
      <trkpt lat="47.29121" lon="-1.87028">
        <ele>11.1</ele>
        <time>2013-09-22T10:33:42Z</time>
      </trkpt>
      <trkpt lat="47.29115" lon="-1.87044">
        <ele>12.5</ele>
        <time>2013-09-22T10:33:45Z</time>
      </trkpt>
      <trkpt lat="47.29107" lon="-1.87061">
        <ele>13.3</ele>
        <time>2013-09-22T10:33:48Z</time>
      </trkpt>
      <trkpt lat="47.291" lon="-1.87077">
        <ele>13.1</ele>
        <time>2013-09-22T10:33:51Z</time>
      </trkpt>
      <trkpt lat="47.29093" lon="-1.87091">
        <ele>13</ele>
        <time>2013-09-22T10:33:54Z</time>
      </trkpt>
      <trkpt lat="47.29087" lon="-1.87105">
        <ele>12.6</ele>
        <time>2013-09-22T10:33:57Z</time>
      </trkpt>
      <trkpt lat="47.29081" lon="-1.87119">
        <ele>12.9</ele>
        <time>2013-09-22T10:34:00Z</time>
      </trkpt>
      <trkpt lat="47.29075" lon="-1.87133">
        <ele>13</ele>
        <time>2013-09-22T10:34:03Z</time>
      </trkpt>
      <trkpt lat="47.29069" lon="-1.87147">
        <ele>13.2</ele>
        <time>2013-09-22T10:34:06Z</time>
      </trkpt>
      <trkpt lat="47.29063" lon="-1.87161">
        <ele>13.4</ele>
        <time>2013-09-22T10:34:09Z</time>
      </trkpt>
      <trkpt lat="47.29058" lon="-1.87173">
        <ele>13.4</ele>
        <time>2013-09-22T10:34:12Z</time>
      </trkpt>
      <trkpt lat="47.29051" lon="-1.87187">
        <ele>13.6</ele>
        <time>2013-09-22T10:34:15Z</time>
      </trkpt>
      <trkpt lat="47.29045" lon="-1.87201">
        <ele>15.1</ele>
        <time>2013-09-22T10:34:18Z</time>
      </trkpt>
      <trkpt lat="47.29038" lon="-1.87216">
        <ele>15.8</ele>
        <time>2013-09-22T10:34:21Z</time>
      </trkpt>
      <trkpt lat="47.2903" lon="-1.87232">
        <ele>16</ele>
        <time>2013-09-22T10:34:24Z</time>
      </trkpt>
      <trkpt lat="47.29025" lon="-1.87244">
        <ele>16.1</ele>
        <time>2013-09-22T10:34:26Z</time>
      </trkpt>
      <trkpt lat="47.29021" lon="-1.87256">
        <ele>16.1</ele>
        <time>2013-09-22T10:34:28Z</time>
      </trkpt>
      <trkpt lat="47.29016" lon="-1.8727">
        <ele>15.8</ele>
        <time>2013-09-22T10:34:30Z</time>
      </trkpt>
      <trkpt lat="47.29012" lon="-1.87285">
        <ele>15.6</ele>
        <time>2013-09-22T10:34:32Z</time>
      </trkpt>
      <trkpt lat="47.2901" lon="-1.873">
        <ele>15.2</ele>
        <time>2013-09-22T10:34:34Z</time>
      </trkpt>
      <trkpt lat="47.29009" lon="-1.87318">
        <ele>14.6</ele>
        <time>2013-09-22T10:34:37Z</time>
      </trkpt>
      <trkpt lat="47.2901" lon="-1.87334">
        <ele>13.9</ele>
        <time>2013-09-22T10:34:40Z</time>
      </trkpt>
      <trkpt lat="47.29011" lon="-1.87349">
        <ele>13.1</ele>
        <time>2013-09-22T10:34:42Z</time>
      </trkpt>
      <trkpt lat="47.29012" lon="-1.87366">
        <ele>12.6</ele>
        <time>2013-09-22T10:34:44Z</time>
      </trkpt>
      <trkpt lat="47.29013" lon="-1.87384">
        <ele>12.1</ele>
        <time>2013-09-22T10:34:46Z</time>
      </trkpt>
      <trkpt lat="47.29013" lon="-1.87404">
        <ele>12</ele>
        <time>2013-09-22T10:34:48Z</time>
      </trkpt>
      <trkpt lat="47.29013" lon="-1.87424">
        <ele>11.7</ele>
        <time>2013-09-22T10:34:50Z</time>
      </trkpt>
      <trkpt lat="47.29014" lon="-1.87444">
        <ele>11.7</ele>
        <time>2013-09-22T10:34:52Z</time>
      </trkpt>
      <trkpt lat="47.29015" lon="-1.87465">
        <ele>10.4</ele>
        <time>2013-09-22T10:34:54Z</time>
      </trkpt>
      <trkpt lat="47.29015" lon="-1.87485">
        <ele>9.4</ele>
        <time>2013-09-22T10:34:56Z</time>
      </trkpt>
      <trkpt lat="47.29016" lon="-1.87506">
        <ele>9.6</ele>
        <time>2013-09-22T10:34:58Z</time>
      </trkpt>
      <trkpt lat="47.29016" lon="-1.87527">
        <ele>9.7</ele>
        <time>2013-09-22T10:35:00Z</time>
      </trkpt>
      <trkpt lat="47.29016" lon="-1.87548">
        <ele>10.3</ele>
        <time>2013-09-22T10:35:02Z</time>
      </trkpt>
      <trkpt lat="47.29016" lon="-1.87567">
        <ele>10.7</ele>
        <time>2013-09-22T10:35:04Z</time>
      </trkpt>
      <trkpt lat="47.29017" lon="-1.87583">
        <ele>11.1</ele>
        <time>2013-09-22T10:35:06Z</time>
      </trkpt>
      <trkpt lat="47.29018" lon="-1.876">
        <ele>11.4</ele>
        <time>2013-09-22T10:35:08Z</time>
      </trkpt>
      <trkpt lat="47.29019" lon="-1.87618">
        <ele>11.7</ele>
        <time>2013-09-22T10:35:10Z</time>
      </trkpt>
      <trkpt lat="47.29021" lon="-1.87638">
        <ele>12.2</ele>
        <time>2013-09-22T10:35:12Z</time>
      </trkpt>
      <trkpt lat="47.29023" lon="-1.87656">
        <ele>11.7</ele>
        <time>2013-09-22T10:35:14Z</time>
      </trkpt>
      <trkpt lat="47.29026" lon="-1.87673">
        <ele>11.5</ele>
        <time>2013-09-22T10:35:16Z</time>
      </trkpt>
      <trkpt lat="47.29027" lon="-1.87691">
        <ele>11.5</ele>
        <time>2013-09-22T10:35:18Z</time>
      </trkpt>
      <trkpt lat="47.29027" lon="-1.87707">
        <ele>11.4</ele>
        <time>2013-09-22T10:35:20Z</time>
      </trkpt>
      <trkpt lat="47.29027" lon="-1.87722">
        <ele>10.8</ele>
        <time>2013-09-22T10:35:22Z</time>
      </trkpt>
      <trkpt lat="47.29027" lon="-1.87738">
        <ele>10.4</ele>
        <time>2013-09-22T10:35:24Z</time>
      </trkpt>
      <trkpt lat="47.29025" lon="-1.87753">
        <ele>10</ele>
        <time>2013-09-22T10:35:26Z</time>
      </trkpt>
      <trkpt lat="47.29024" lon="-1.87767">
        <ele>9.9</ele>
        <time>2013-09-22T10:35:28Z</time>
      </trkpt>
      <trkpt lat="47.29022" lon="-1.87783">
        <ele>10.2</ele>
        <time>2013-09-22T10:35:30Z</time>
      </trkpt>
      <trkpt lat="47.2902" lon="-1.87799">
        <ele>11.5</ele>
        <time>2013-09-22T10:35:32Z</time>
      </trkpt>
      <trkpt lat="47.29019" lon="-1.87812">
        <ele>12.5</ele>
        <time>2013-09-22T10:35:34Z</time>
      </trkpt>
      <trkpt lat="47.29016" lon="-1.87832">
        <ele>13</ele>
        <time>2013-09-22T10:35:37Z</time>
      </trkpt>
      <trkpt lat="47.29013" lon="-1.87849">
        <ele>13.9</ele>
        <time>2013-09-22T10:35:40Z</time>
      </trkpt>
      <trkpt lat="47.29009" lon="-1.87865">
        <ele>12.9</ele>
        <time>2013-09-22T10:35:43Z</time>
      </trkpt>
      <trkpt lat="47.29005" lon="-1.87881">
        <ele>11.3</ele>
        <time>2013-09-22T10:35:46Z</time>
      </trkpt>
      <trkpt lat="47.29004" lon="-1.87898">
        <ele>11.2</ele>
        <time>2013-09-22T10:35:49Z</time>
      </trkpt>
      <trkpt lat="47.29004" lon="-1.87914">
        <ele>11.2</ele>
        <time>2013-09-22T10:35:52Z</time>
      </trkpt>
      <trkpt lat="47.29002" lon="-1.8793">
        <ele>11.8</ele>
        <time>2013-09-22T10:35:55Z</time>
      </trkpt>
      <trkpt lat="47.29" lon="-1.87949">
        <ele>12.5</ele>
        <time>2013-09-22T10:35:58Z</time>
      </trkpt>
      <trkpt lat="47.28999" lon="-1.87964">
        <ele>12.7</ele>
        <time>2013-09-22T10:36:00Z</time>
      </trkpt>
      <trkpt lat="47.28997" lon="-1.87979">
        <ele>12.1</ele>
        <time>2013-09-22T10:36:02Z</time>
      </trkpt>
      <trkpt lat="47.28995" lon="-1.87995">
        <ele>12.2</ele>
        <time>2013-09-22T10:36:04Z</time>
      </trkpt>
      <trkpt lat="47.28994" lon="-1.88012">
        <ele>13.4</ele>
        <time>2013-09-22T10:36:06Z</time>
      </trkpt>
      <trkpt lat="47.28993" lon="-1.88028">
        <ele>14.4</ele>
        <time>2013-09-22T10:36:08Z</time>
      </trkpt>
      <trkpt lat="47.28992" lon="-1.88044">
        <ele>15</ele>
        <time>2013-09-22T10:36:10Z</time>
      </trkpt>
      <trkpt lat="47.28992" lon="-1.88061">
        <ele>15.4</ele>
        <time>2013-09-22T10:36:12Z</time>
      </trkpt>
      <trkpt lat="47.28991" lon="-1.88078">
        <ele>15.2</ele>
        <time>2013-09-22T10:36:14Z</time>
      </trkpt>
      <trkpt lat="47.28989" lon="-1.88092">
        <ele>14.6</ele>
        <time>2013-09-22T10:36:16Z</time>
      </trkpt>
      <trkpt lat="47.28986" lon="-1.88107">
        <ele>13.6</ele>
        <time>2013-09-22T10:36:18Z</time>
      </trkpt>
      <trkpt lat="47.28983" lon="-1.88122">
        <ele>12.9</ele>
        <time>2013-09-22T10:36:20Z</time>
      </trkpt>
      <trkpt lat="47.28979" lon="-1.88138">
        <ele>13.1</ele>
        <time>2013-09-22T10:36:22Z</time>
      </trkpt>
      <trkpt lat="47.2897" lon="-1.88146">
        <ele>13.8</ele>
        <time>2013-09-22T10:36:24Z</time>
      </trkpt>
      <trkpt lat="47.28959" lon="-1.8815">
        <ele>14.3</ele>
        <time>2013-09-22T10:36:26Z</time>
      </trkpt>
      <trkpt lat="47.28946" lon="-1.88151">
        <ele>13.5</ele>
        <time>2013-09-22T10:36:28Z</time>
      </trkpt>
      <trkpt lat="47.28936" lon="-1.8815">
        <ele>12.6</ele>
        <time>2013-09-22T10:36:30Z</time>
      </trkpt>
      <trkpt lat="47.28923" lon="-1.88149">
        <ele>13.8</ele>
        <time>2013-09-22T10:36:32Z</time>
      </trkpt>
      <trkpt lat="47.28909" lon="-1.8815">
        <ele>15.4</ele>
        <time>2013-09-22T10:36:34Z</time>
      </trkpt>
      <trkpt lat="47.28896" lon="-1.88152">
        <ele>15.5</ele>
        <time>2013-09-22T10:36:36Z</time>
      </trkpt>
      <trkpt lat="47.28884" lon="-1.88155">
        <ele>15.5</ele>
        <time>2013-09-22T10:36:38Z</time>
      </trkpt>
      <trkpt lat="47.2887" lon="-1.8816">
        <ele>15.4</ele>
        <time>2013-09-22T10:36:40Z</time>
      </trkpt>
      <trkpt lat="47.28855" lon="-1.88167">
        <ele>14</ele>
        <time>2013-09-22T10:36:42Z</time>
      </trkpt>
      <trkpt lat="47.28838" lon="-1.88175">
        <ele>12.6</ele>
        <time>2013-09-22T10:36:44Z</time>
      </trkpt>
      <trkpt lat="47.28821" lon="-1.88183">
        <ele>12.2</ele>
        <time>2013-09-22T10:36:46Z</time>
      </trkpt>
      <trkpt lat="47.28813" lon="-1.88188">
        <ele>11.8</ele>
        <time>2013-09-22T10:36:47Z</time>
      </trkpt>
      <trkpt lat="47.28797" lon="-1.88197">
        <ele>10.4</ele>
        <time>2013-09-22T10:36:49Z</time>
      </trkpt>
      <trkpt lat="47.28781" lon="-1.88206">
        <ele>7.9</ele>
        <time>2013-09-22T10:36:51Z</time>
      </trkpt>
      <trkpt lat="47.28766" lon="-1.88213">
        <ele>6.9</ele>
        <time>2013-09-22T10:36:53Z</time>
      </trkpt>
      <trkpt lat="47.28751" lon="-1.88221">
        <ele>7.6</ele>
        <time>2013-09-22T10:36:55Z</time>
      </trkpt>
      <trkpt lat="47.28742" lon="-1.88225">
        <ele>7.7</ele>
        <time>2013-09-22T10:36:56Z</time>
      </trkpt>
      <trkpt lat="47.28733" lon="-1.8823">
        <ele>7.7</ele>
        <time>2013-09-22T10:36:57Z</time>
      </trkpt>
      <trkpt lat="47.28718" lon="-1.88238">
        <ele>7.2</ele>
        <time>2013-09-22T10:36:59Z</time>
      </trkpt>
      <trkpt lat="47.28705" lon="-1.88244">
        <ele>6.9</ele>
        <time>2013-09-22T10:37:01Z</time>
      </trkpt>
      <trkpt lat="47.28693" lon="-1.8825">
        <ele>6.7</ele>
        <time>2013-09-22T10:37:03Z</time>
      </trkpt>
      <trkpt lat="47.2868" lon="-1.88257">
        <ele>6</ele>
        <time>2013-09-22T10:37:05Z</time>
      </trkpt>
      <trkpt lat="47.28668" lon="-1.88264">
        <ele>6.4</ele>
        <time>2013-09-22T10:37:07Z</time>
      </trkpt>
      <trkpt lat="47.28656" lon="-1.88271">
        <ele>6</ele>
        <time>2013-09-22T10:37:09Z</time>
      </trkpt>
      <trkpt lat="47.28643" lon="-1.88277">
        <ele>5.6</ele>
        <time>2013-09-22T10:37:11Z</time>
      </trkpt>
      <trkpt lat="47.28632" lon="-1.88283">
        <ele>4.6</ele>
        <time>2013-09-22T10:37:13Z</time>
      </trkpt>
      <trkpt lat="47.28619" lon="-1.88288">
        <ele>3.6</ele>
        <time>2013-09-22T10:37:15Z</time>
      </trkpt>
      <trkpt lat="47.28609" lon="-1.88292">
        <ele>2.2</ele>
        <time>2013-09-22T10:37:17Z</time>
      </trkpt>
      <trkpt lat="47.28599" lon="-1.88297">
        <ele>2.1</ele>
        <time>2013-09-22T10:37:19Z</time>
      </trkpt>
      <trkpt lat="47.28589" lon="-1.88302">
        <ele>2.2</ele>
        <time>2013-09-22T10:37:21Z</time>
      </trkpt>
      <trkpt lat="47.28578" lon="-1.88307">
        <ele>2.2</ele>
        <time>2013-09-22T10:37:23Z</time>
      </trkpt>
      <trkpt lat="47.28568" lon="-1.88312">
        <ele>2.3</ele>
        <time>2013-09-22T10:37:25Z</time>
      </trkpt>
      <trkpt lat="47.28558" lon="-1.88318">
        <ele>2.3</ele>
        <time>2013-09-22T10:37:27Z</time>
      </trkpt>
      <trkpt lat="47.28547" lon="-1.88324">
        <ele>1.6</ele>
        <time>2013-09-22T10:37:29Z</time>
      </trkpt>
      <trkpt lat="47.28537" lon="-1.8833">
        <ele>0.4</ele>
        <time>2013-09-22T10:37:31Z</time>
      </trkpt>
      <trkpt lat="47.28528" lon="-1.88334">
        <ele>-1.4</ele>
        <time>2013-09-22T10:37:33Z</time>
      </trkpt>
      <trkpt lat="47.28518" lon="-1.8834">
        <ele>-2.4</ele>
        <time>2013-09-22T10:37:35Z</time>
      </trkpt>
      <trkpt lat="47.28509" lon="-1.88344">
        <ele>-3.1</ele>
        <time>2013-09-22T10:37:37Z</time>
      </trkpt>
      <trkpt lat="47.28498" lon="-1.88349">
        <ele>-3.5</ele>
        <time>2013-09-22T10:37:39Z</time>
      </trkpt>
      <trkpt lat="47.28488" lon="-1.88354">
        <ele>-3.8</ele>
        <time>2013-09-22T10:37:41Z</time>
      </trkpt>
      <trkpt lat="47.28477" lon="-1.88358">
        <ele>-3.6</ele>
        <time>2013-09-22T10:37:43Z</time>
      </trkpt>
      <trkpt lat="47.28467" lon="-1.88363">
        <ele>-2.7</ele>
        <time>2013-09-22T10:37:45Z</time>
      </trkpt>
      <trkpt lat="47.28457" lon="-1.88368">
        <ele>-2.9</ele>
        <time>2013-09-22T10:37:47Z</time>
      </trkpt>
      <trkpt lat="47.28445" lon="-1.88373">
        <ele>-3.8</ele>
        <time>2013-09-22T10:37:49Z</time>
      </trkpt>
      <trkpt lat="47.28436" lon="-1.88378">
        <ele>-3.8</ele>
        <time>2013-09-22T10:37:51Z</time>
      </trkpt>
      <trkpt lat="47.28427" lon="-1.88382">
        <ele>-2.8</ele>
        <time>2013-09-22T10:37:53Z</time>
      </trkpt>
      <trkpt lat="47.28416" lon="-1.88388">
        <ele>-2.5</ele>
        <time>2013-09-22T10:37:55Z</time>
      </trkpt>
      <trkpt lat="47.28404" lon="-1.88393">
        <ele>-1.8</ele>
        <time>2013-09-22T10:37:57Z</time>
      </trkpt>
      <trkpt lat="47.28393" lon="-1.88398">
        <ele>-1.3</ele>
        <time>2013-09-22T10:37:59Z</time>
      </trkpt>
      <trkpt lat="47.28383" lon="-1.88402">
        <ele>-1.7</ele>
        <time>2013-09-22T10:38:01Z</time>
      </trkpt>
      <trkpt lat="47.28375" lon="-1.88406">
        <ele>-2.2</ele>
        <time>2013-09-22T10:38:03Z</time>
      </trkpt>
      <trkpt lat="47.28364" lon="-1.88409">
        <ele>-2</ele>
        <time>2013-09-22T10:38:06Z</time>
      </trkpt>
      <trkpt lat="47.28355" lon="-1.88401">
        <ele>-1.6</ele>
        <time>2013-09-22T10:38:09Z</time>
      </trkpt>
      <trkpt lat="47.28357" lon="-1.88385">
        <ele>-1.1</ele>
        <time>2013-09-22T10:38:12Z</time>
      </trkpt>
      <trkpt lat="47.28367" lon="-1.88379">
        <ele>-0.9</ele>
        <time>2013-09-22T10:38:16Z</time>
      </trkpt>
      <trkpt lat="47.28377" lon="-1.88376">
        <ele>-0.7</ele>
        <time>2013-09-22T10:38:21Z</time>
      </trkpt>
      <trkpt lat="47.28387" lon="-1.8837">
        <ele>-0.7</ele>
        <time>2013-09-22T10:38:26Z</time>
      </trkpt>
      <trkpt lat="47.28396" lon="-1.88362">
        <ele>-0.6</ele>
        <time>2013-09-22T10:38:30Z</time>
      </trkpt>
      <trkpt lat="47.28398" lon="-1.88348">
        <ele>-0.3</ele>
        <time>2013-09-22T10:38:33Z</time>
      </trkpt>
      <trkpt lat="47.28397" lon="-1.88332">
        <ele>4</ele>
        <time>2013-09-22T10:38:38Z</time>
      </trkpt>
      <trkpt lat="47.28399" lon="-1.88323">
        <ele>2.8</ele>
        <time>2013-09-22T10:39:54Z</time>
      </trkpt>
      <trkpt lat="47.28399" lon="-1.88323">
        <ele>2.8</ele>
        <time>2013-09-22T10:39:54Z</time>
      </trkpt>
    </trkseg>
  </trk>
</gpx>